<?xml version="1.0" encoding="UTF-8" standalone="no" ?>
<gpx xmlns="http://www.topografix.com/GPX/1/1" xmlns:xsi="http://www.w3.org/2001/XMLSchema-instance" xsi:schemaLocation="http://www.topografix.com/GPX/1/1 http://www.topografix.com/GPX/1/1/gpx.xsd" version="1.1" creator="VisuGPX - https://www.visugpx.com">
  <metadata>
    <name>9/16 - Barcelone du Gers/La Trille - 2019-04-18 </name>
    <desc><![CDATA[File with points/tracks from Locus Map/3.37.2]]></desc>
  </metadata>
  <trk>
    <name><![CDATA[2019-04-18 08:48:53]]></name>
    <trkseg>
      <trkpt lat="43.70301" lon="-0.23733">
        <ele>156.08</ele>
        <time>2019-04-18T06:49:38.000Z</time>
      </trkpt>
      <trkpt lat="43.70297" lon="-0.23702">
        <ele>155.74</ele>
        <time>2019-04-18T06:49:48.000Z</time>
      </trkpt>
      <trkpt lat="43.70301" lon="-0.23705">
        <ele>155.58</ele>
        <time>2019-04-18T06:49:58.000Z</time>
      </trkpt>
      <trkpt lat="43.70299" lon="-0.23686">
        <ele>155.41</ele>
        <time>2019-04-18T06:50:08.000Z</time>
      </trkpt>
      <trkpt lat="43.70306" lon="-0.23679">
        <ele>154.96</ele>
        <time>2019-04-18T06:50:18.000Z</time>
      </trkpt>
      <trkpt lat="43.70303" lon="-0.2372">
        <ele>155.3</ele>
        <time>2019-04-18T06:50:28.000Z</time>
      </trkpt>
      <trkpt lat="43.70304" lon="-0.23734">
        <ele>154.86</ele>
        <time>2019-04-18T06:50:38.000Z</time>
      </trkpt>
      <trkpt lat="43.70307" lon="-0.23746">
        <ele>154.99</ele>
        <time>2019-04-18T06:50:48.000Z</time>
      </trkpt>
      <trkpt lat="43.70307" lon="-0.23762">
        <ele>154.82</ele>
        <time>2019-04-18T06:50:58.000Z</time>
      </trkpt>
      <trkpt lat="43.70312" lon="-0.23776">
        <ele>154.71</ele>
        <time>2019-04-18T06:51:08.000Z</time>
      </trkpt>
      <trkpt lat="43.70315" lon="-0.23791">
        <ele>155.16</ele>
        <time>2019-04-18T06:51:18.000Z</time>
      </trkpt>
      <trkpt lat="43.70318" lon="-0.23801">
        <ele>154.89</ele>
        <time>2019-04-18T06:51:28.000Z</time>
      </trkpt>
      <trkpt lat="43.7032" lon="-0.23812">
        <ele>154.89</ele>
        <time>2019-04-18T06:51:38.000Z</time>
      </trkpt>
      <trkpt lat="43.7032" lon="-0.23824">
        <ele>155</ele>
        <time>2019-04-18T06:51:48.000Z</time>
      </trkpt>
      <trkpt lat="43.70325" lon="-0.23838">
        <ele>154.58</ele>
        <time>2019-04-18T06:51:58.000Z</time>
      </trkpt>
      <trkpt lat="43.70328" lon="-0.23848">
        <ele>155.11</ele>
        <time>2019-04-18T06:52:08.000Z</time>
      </trkpt>
      <trkpt lat="43.70331" lon="-0.23864">
        <ele>155.28</ele>
        <time>2019-04-18T06:52:18.000Z</time>
      </trkpt>
      <trkpt lat="43.70334" lon="-0.23877">
        <ele>154.99</ele>
        <time>2019-04-18T06:52:28.000Z</time>
      </trkpt>
      <trkpt lat="43.70337" lon="-0.23893">
        <ele>154.67</ele>
        <time>2019-04-18T06:52:38.000Z</time>
      </trkpt>
      <trkpt lat="43.70339" lon="-0.23909">
        <ele>154.87</ele>
        <time>2019-04-18T06:52:48.000Z</time>
      </trkpt>
      <trkpt lat="43.70341" lon="-0.23924">
        <ele>155.11</ele>
        <time>2019-04-18T06:52:58.000Z</time>
      </trkpt>
      <trkpt lat="43.70344" lon="-0.2394">
        <ele>154.7</ele>
        <time>2019-04-18T06:53:08.000Z</time>
      </trkpt>
      <trkpt lat="43.7035" lon="-0.23955">
        <ele>154.29</ele>
        <time>2019-04-18T06:53:18.000Z</time>
      </trkpt>
      <trkpt lat="43.70354" lon="-0.23972">
        <ele>154.29</ele>
        <time>2019-04-18T06:53:28.000Z</time>
      </trkpt>
      <trkpt lat="43.70359" lon="-0.23986">
        <ele>154.9</ele>
        <time>2019-04-18T06:53:38.000Z</time>
      </trkpt>
      <trkpt lat="43.70362" lon="-0.24">
        <ele>154.67</ele>
        <time>2019-04-18T06:53:48.000Z</time>
      </trkpt>
      <trkpt lat="43.70367" lon="-0.24016">
        <ele>154.38</ele>
        <time>2019-04-18T06:53:58.000Z</time>
      </trkpt>
      <trkpt lat="43.7037" lon="-0.24032">
        <ele>155.07</ele>
        <time>2019-04-18T06:54:08.000Z</time>
      </trkpt>
      <trkpt lat="43.70375" lon="-0.24047">
        <ele>154.48</ele>
        <time>2019-04-18T06:54:18.000Z</time>
      </trkpt>
      <trkpt lat="43.70377" lon="-0.24063">
        <ele>154.68</ele>
        <time>2019-04-18T06:54:28.000Z</time>
      </trkpt>
      <trkpt lat="43.70382" lon="-0.24079">
        <ele>154.63</ele>
        <time>2019-04-18T06:54:38.000Z</time>
      </trkpt>
      <trkpt lat="43.70384" lon="-0.24094">
        <ele>154.63</ele>
        <time>2019-04-18T06:54:48.000Z</time>
      </trkpt>
      <trkpt lat="43.70387" lon="-0.2411">
        <ele>154.29</ele>
        <time>2019-04-18T06:54:58.000Z</time>
      </trkpt>
      <trkpt lat="43.70385" lon="-0.24125">
        <ele>154.26</ele>
        <time>2019-04-18T06:55:08.000Z</time>
      </trkpt>
      <trkpt lat="43.70383" lon="-0.24139">
        <ele>154.68</ele>
        <time>2019-04-18T06:55:18.000Z</time>
      </trkpt>
      <trkpt lat="43.70378" lon="-0.24144">
        <ele>154.66</ele>
        <time>2019-04-18T06:55:28.000Z</time>
      </trkpt>
      <trkpt lat="43.70366" lon="-0.24148">
        <ele>154.94</ele>
        <time>2019-04-18T06:55:38.000Z</time>
      </trkpt>
      <trkpt lat="43.70355" lon="-0.24153">
        <ele>154.6</ele>
        <time>2019-04-18T06:55:48.000Z</time>
      </trkpt>
      <trkpt lat="43.70343" lon="-0.24159">
        <ele>154.23</ele>
        <time>2019-04-18T06:55:58.000Z</time>
      </trkpt>
      <trkpt lat="43.7033" lon="-0.24161">
        <ele>154.06</ele>
        <time>2019-04-18T06:56:08.000Z</time>
      </trkpt>
      <trkpt lat="43.70319" lon="-0.24166">
        <ele>154.17</ele>
        <time>2019-04-18T06:56:18.000Z</time>
      </trkpt>
      <trkpt lat="43.70308" lon="-0.24176">
        <ele>154.22</ele>
        <time>2019-04-18T06:56:28.000Z</time>
      </trkpt>
      <trkpt lat="43.70297" lon="-0.24181">
        <ele>154.14</ele>
        <time>2019-04-18T06:56:38.000Z</time>
      </trkpt>
      <trkpt lat="43.7029" lon="-0.24188">
        <ele>154.49</ele>
        <time>2019-04-18T06:56:48.000Z</time>
      </trkpt>
      <trkpt lat="43.7029" lon="-0.24196">
        <ele>154.43</ele>
        <time>2019-04-18T06:56:58.000Z</time>
      </trkpt>
      <trkpt lat="43.70295" lon="-0.2421">
        <ele>154.08</ele>
        <time>2019-04-18T06:57:08.000Z</time>
      </trkpt>
      <trkpt lat="43.70298" lon="-0.24224">
        <ele>153.89</ele>
        <time>2019-04-18T06:57:18.000Z</time>
      </trkpt>
      <trkpt lat="43.70299" lon="-0.24239">
        <ele>154.02</ele>
        <time>2019-04-18T06:57:28.000Z</time>
      </trkpt>
      <trkpt lat="43.70303" lon="-0.24255">
        <ele>154.26</ele>
        <time>2019-04-18T06:57:38.000Z</time>
      </trkpt>
      <trkpt lat="43.70307" lon="-0.24271">
        <ele>153.95</ele>
        <time>2019-04-18T06:57:48.000Z</time>
      </trkpt>
      <trkpt lat="43.70311" lon="-0.24288">
        <ele>153.93</ele>
        <time>2019-04-18T06:57:58.000Z</time>
      </trkpt>
      <trkpt lat="43.70315" lon="-0.24303">
        <ele>153.95</ele>
        <time>2019-04-18T06:58:08.000Z</time>
      </trkpt>
      <trkpt lat="43.70319" lon="-0.24318">
        <ele>153.92</ele>
        <time>2019-04-18T06:58:18.000Z</time>
      </trkpt>
      <trkpt lat="43.7032" lon="-0.24334">
        <ele>153.97</ele>
        <time>2019-04-18T06:58:28.000Z</time>
      </trkpt>
      <trkpt lat="43.70325" lon="-0.2435">
        <ele>154.05</ele>
        <time>2019-04-18T06:58:38.000Z</time>
      </trkpt>
      <trkpt lat="43.70328" lon="-0.24366">
        <ele>154.33</ele>
        <time>2019-04-18T06:58:48.000Z</time>
      </trkpt>
      <trkpt lat="43.70332" lon="-0.24382">
        <ele>154.04</ele>
        <time>2019-04-18T06:58:58.000Z</time>
      </trkpt>
      <trkpt lat="43.70338" lon="-0.244">
        <ele>154.18</ele>
        <time>2019-04-18T06:59:08.000Z</time>
      </trkpt>
      <trkpt lat="43.7034" lon="-0.24415">
        <ele>154.19</ele>
        <time>2019-04-18T06:59:18.000Z</time>
      </trkpt>
      <trkpt lat="43.70343" lon="-0.24431">
        <ele>153.96</ele>
        <time>2019-04-18T06:59:28.000Z</time>
      </trkpt>
      <trkpt lat="43.70346" lon="-0.24448">
        <ele>154.05</ele>
        <time>2019-04-18T06:59:38.000Z</time>
      </trkpt>
      <trkpt lat="43.70348" lon="-0.24464">
        <ele>153.98</ele>
        <time>2019-04-18T06:59:48.000Z</time>
      </trkpt>
      <trkpt lat="43.7035" lon="-0.2448">
        <ele>153.99</ele>
        <time>2019-04-18T06:59:58.000Z</time>
      </trkpt>
      <trkpt lat="43.70352" lon="-0.24496">
        <ele>153.92</ele>
        <time>2019-04-18T07:00:08.000Z</time>
      </trkpt>
      <trkpt lat="43.70352" lon="-0.24512">
        <ele>153.9</ele>
        <time>2019-04-18T07:00:18.000Z</time>
      </trkpt>
      <trkpt lat="43.70355" lon="-0.24529">
        <ele>153.68</ele>
        <time>2019-04-18T07:00:28.000Z</time>
      </trkpt>
      <trkpt lat="43.70357" lon="-0.24545">
        <ele>153.85</ele>
        <time>2019-04-18T07:00:38.000Z</time>
      </trkpt>
      <trkpt lat="43.70361" lon="-0.24564">
        <ele>153.71</ele>
        <time>2019-04-18T07:00:48.000Z</time>
      </trkpt>
      <trkpt lat="43.70365" lon="-0.2458">
        <ele>154</ele>
        <time>2019-04-18T07:00:58.000Z</time>
      </trkpt>
      <trkpt lat="43.70367" lon="-0.24597">
        <ele>153.85</ele>
        <time>2019-04-18T07:01:08.000Z</time>
      </trkpt>
      <trkpt lat="43.7037" lon="-0.24614">
        <ele>153.7</ele>
        <time>2019-04-18T07:01:18.000Z</time>
      </trkpt>
      <trkpt lat="43.70372" lon="-0.24631">
        <ele>153.98</ele>
        <time>2019-04-18T07:01:28.000Z</time>
      </trkpt>
      <trkpt lat="43.70373" lon="-0.24649">
        <ele>153.75</ele>
        <time>2019-04-18T07:01:38.000Z</time>
      </trkpt>
      <trkpt lat="43.70372" lon="-0.24666">
        <ele>153.74</ele>
        <time>2019-04-18T07:01:48.000Z</time>
      </trkpt>
      <trkpt lat="43.7037" lon="-0.24682">
        <ele>153.66</ele>
        <time>2019-04-18T07:01:58.000Z</time>
      </trkpt>
      <trkpt lat="43.70366" lon="-0.24699">
        <ele>153.5</ele>
        <time>2019-04-18T07:02:08.000Z</time>
      </trkpt>
      <trkpt lat="43.70361" lon="-0.24714">
        <ele>153.15</ele>
        <time>2019-04-18T07:02:18.000Z</time>
      </trkpt>
      <trkpt lat="43.70362" lon="-0.24732">
        <ele>153.54</ele>
        <time>2019-04-18T07:02:28.000Z</time>
      </trkpt>
      <trkpt lat="43.7036" lon="-0.2475">
        <ele>153.64</ele>
        <time>2019-04-18T07:02:38.000Z</time>
      </trkpt>
      <trkpt lat="43.70356" lon="-0.24766">
        <ele>153.43</ele>
        <time>2019-04-18T07:02:48.000Z</time>
      </trkpt>
      <trkpt lat="43.70355" lon="-0.24784">
        <ele>153.42</ele>
        <time>2019-04-18T07:02:58.000Z</time>
      </trkpt>
      <trkpt lat="43.70354" lon="-0.24801">
        <ele>153.3</ele>
        <time>2019-04-18T07:03:08.000Z</time>
      </trkpt>
      <trkpt lat="43.70354" lon="-0.24817">
        <ele>153.4</ele>
        <time>2019-04-18T07:03:18.000Z</time>
      </trkpt>
      <trkpt lat="43.70352" lon="-0.24834">
        <ele>153.49</ele>
        <time>2019-04-18T07:03:28.000Z</time>
      </trkpt>
      <trkpt lat="43.70348" lon="-0.24851">
        <ele>153.18</ele>
        <time>2019-04-18T07:03:38.000Z</time>
      </trkpt>
      <trkpt lat="43.70345" lon="-0.24868">
        <ele>153.79</ele>
        <time>2019-04-18T07:03:48.000Z</time>
      </trkpt>
      <trkpt lat="43.7034" lon="-0.24884">
        <ele>153.69</ele>
        <time>2019-04-18T07:03:58.000Z</time>
      </trkpt>
      <trkpt lat="43.70334" lon="-0.24899">
        <ele>153.38</ele>
        <time>2019-04-18T07:04:08.000Z</time>
      </trkpt>
      <trkpt lat="43.70329" lon="-0.24914">
        <ele>153.55</ele>
        <time>2019-04-18T07:04:18.000Z</time>
      </trkpt>
      <trkpt lat="43.70325" lon="-0.2493">
        <ele>153.77</ele>
        <time>2019-04-18T07:04:28.000Z</time>
      </trkpt>
      <trkpt lat="43.7032" lon="-0.24945">
        <ele>153.66</ele>
        <time>2019-04-18T07:04:38.000Z</time>
      </trkpt>
      <trkpt lat="43.70317" lon="-0.24961">
        <ele>153.66</ele>
        <time>2019-04-18T07:04:48.000Z</time>
      </trkpt>
      <trkpt lat="43.70317" lon="-0.24974">
        <ele>153.7</ele>
        <time>2019-04-18T07:04:58.000Z</time>
      </trkpt>
      <trkpt lat="43.70325" lon="-0.24982">
        <ele>153.61</ele>
        <time>2019-04-18T07:05:08.000Z</time>
      </trkpt>
      <trkpt lat="43.70325" lon="-0.24983">
        <ele>154.37</ele>
        <time>2019-04-18T07:05:43.000Z</time>
      </trkpt>
      <trkpt lat="43.70334" lon="-0.24988">
        <ele>154.11</ele>
        <time>2019-04-18T07:05:53.000Z</time>
      </trkpt>
      <trkpt lat="43.70348" lon="-0.24994">
        <ele>154.54</ele>
        <time>2019-04-18T07:06:03.000Z</time>
      </trkpt>
      <trkpt lat="43.70358" lon="-0.24999">
        <ele>154.63</ele>
        <time>2019-04-18T07:06:13.000Z</time>
      </trkpt>
      <trkpt lat="43.70371" lon="-0.25005">
        <ele>154.94</ele>
        <time>2019-04-18T07:06:23.000Z</time>
      </trkpt>
      <trkpt lat="43.70383" lon="-0.25009">
        <ele>154.86</ele>
        <time>2019-04-18T07:06:33.000Z</time>
      </trkpt>
      <trkpt lat="43.70394" lon="-0.25014">
        <ele>155.2</ele>
        <time>2019-04-18T07:06:43.000Z</time>
      </trkpt>
      <trkpt lat="43.70406" lon="-0.25019">
        <ele>155.25</ele>
        <time>2019-04-18T07:06:53.000Z</time>
      </trkpt>
      <trkpt lat="43.70412" lon="-0.25029">
        <ele>155.47</ele>
        <time>2019-04-18T07:07:03.000Z</time>
      </trkpt>
      <trkpt lat="43.70409" lon="-0.25038">
        <ele>155.68</ele>
        <time>2019-04-18T07:07:13.000Z</time>
      </trkpt>
      <trkpt lat="43.70407" lon="-0.25026">
        <ele>155.84</ele>
        <time>2019-04-18T07:07:23.000Z</time>
      </trkpt>
      <trkpt lat="43.70409" lon="-0.25038">
        <ele>156.03</ele>
        <time>2019-04-18T07:07:33.000Z</time>
      </trkpt>
      <trkpt lat="43.70409" lon="-0.25041">
        <ele>155.46</ele>
        <time>2019-04-18T07:08:08.000Z</time>
      </trkpt>
      <trkpt lat="43.7041" lon="-0.25054">
        <ele>154.74</ele>
        <time>2019-04-18T07:08:18.000Z</time>
      </trkpt>
      <trkpt lat="43.70409" lon="-0.25071">
        <ele>155.06</ele>
        <time>2019-04-18T07:08:28.000Z</time>
      </trkpt>
      <trkpt lat="43.7041" lon="-0.25084">
        <ele>154.9</ele>
        <time>2019-04-18T07:08:38.000Z</time>
      </trkpt>
      <trkpt lat="43.70411" lon="-0.25102">
        <ele>154.85</ele>
        <time>2019-04-18T07:08:48.000Z</time>
      </trkpt>
      <trkpt lat="43.7041" lon="-0.25119">
        <ele>155.05</ele>
        <time>2019-04-18T07:08:58.000Z</time>
      </trkpt>
      <trkpt lat="43.70411" lon="-0.25135">
        <ele>154.79</ele>
        <time>2019-04-18T07:09:08.000Z</time>
      </trkpt>
      <trkpt lat="43.70411" lon="-0.25149">
        <ele>155.17</ele>
        <time>2019-04-18T07:09:18.000Z</time>
      </trkpt>
      <trkpt lat="43.70411" lon="-0.25166">
        <ele>155.17</ele>
        <time>2019-04-18T07:09:28.000Z</time>
      </trkpt>
      <trkpt lat="43.70415" lon="-0.2518">
        <ele>155.01</ele>
        <time>2019-04-18T07:09:38.000Z</time>
      </trkpt>
      <trkpt lat="43.70416" lon="-0.25196">
        <ele>154.82</ele>
        <time>2019-04-18T07:09:48.000Z</time>
      </trkpt>
      <trkpt lat="43.70421" lon="-0.25212">
        <ele>154.75</ele>
        <time>2019-04-18T07:09:58.000Z</time>
      </trkpt>
      <trkpt lat="43.70424" lon="-0.25227">
        <ele>154.71</ele>
        <time>2019-04-18T07:10:08.000Z</time>
      </trkpt>
      <trkpt lat="43.70427" lon="-0.25242">
        <ele>155</ele>
        <time>2019-04-18T07:10:18.000Z</time>
      </trkpt>
      <trkpt lat="43.70426" lon="-0.25259">
        <ele>154.8</ele>
        <time>2019-04-18T07:10:28.000Z</time>
      </trkpt>
      <trkpt lat="43.70426" lon="-0.25274">
        <ele>154.88</ele>
        <time>2019-04-18T07:10:38.000Z</time>
      </trkpt>
      <trkpt lat="43.70428" lon="-0.2529">
        <ele>155.13</ele>
        <time>2019-04-18T07:10:48.000Z</time>
      </trkpt>
      <trkpt lat="43.70428" lon="-0.25307">
        <ele>155</ele>
        <time>2019-04-18T07:10:58.000Z</time>
      </trkpt>
      <trkpt lat="43.70428" lon="-0.25325">
        <ele>155.08</ele>
        <time>2019-04-18T07:11:08.000Z</time>
      </trkpt>
      <trkpt lat="43.70428" lon="-0.25342">
        <ele>154.91</ele>
        <time>2019-04-18T07:11:18.000Z</time>
      </trkpt>
      <trkpt lat="43.70428" lon="-0.25358">
        <ele>154.82</ele>
        <time>2019-04-18T07:11:28.000Z</time>
      </trkpt>
      <trkpt lat="43.70428" lon="-0.25377">
        <ele>154.79</ele>
        <time>2019-04-18T07:11:38.000Z</time>
      </trkpt>
      <trkpt lat="43.70429" lon="-0.25394">
        <ele>154.35</ele>
        <time>2019-04-18T07:11:48.000Z</time>
      </trkpt>
      <trkpt lat="43.70429" lon="-0.25411">
        <ele>154.44</ele>
        <time>2019-04-18T07:11:58.000Z</time>
      </trkpt>
      <trkpt lat="43.7043" lon="-0.25427">
        <ele>154.03</ele>
        <time>2019-04-18T07:12:08.000Z</time>
      </trkpt>
      <trkpt lat="43.70431" lon="-0.25445">
        <ele>154.05</ele>
        <time>2019-04-18T07:12:18.000Z</time>
      </trkpt>
      <trkpt lat="43.70432" lon="-0.25462">
        <ele>153.88</ele>
        <time>2019-04-18T07:12:28.000Z</time>
      </trkpt>
      <trkpt lat="43.70433" lon="-0.25481">
        <ele>153.88</ele>
        <time>2019-04-18T07:12:38.000Z</time>
      </trkpt>
      <trkpt lat="43.70434" lon="-0.25499">
        <ele>154.04</ele>
        <time>2019-04-18T07:12:48.000Z</time>
      </trkpt>
      <trkpt lat="43.70434" lon="-0.25515">
        <ele>154.43</ele>
        <time>2019-04-18T07:12:58.000Z</time>
      </trkpt>
      <trkpt lat="43.70433" lon="-0.25532">
        <ele>154.28</ele>
        <time>2019-04-18T07:13:08.000Z</time>
      </trkpt>
      <trkpt lat="43.70433" lon="-0.2555">
        <ele>154.07</ele>
        <time>2019-04-18T07:13:18.000Z</time>
      </trkpt>
      <trkpt lat="43.70433" lon="-0.25567">
        <ele>153.99</ele>
        <time>2019-04-18T07:13:28.000Z</time>
      </trkpt>
      <trkpt lat="43.70435" lon="-0.25582">
        <ele>153.82</ele>
        <time>2019-04-18T07:13:38.000Z</time>
      </trkpt>
      <trkpt lat="43.70436" lon="-0.256">
        <ele>153.77</ele>
        <time>2019-04-18T07:13:48.000Z</time>
      </trkpt>
      <trkpt lat="43.70435" lon="-0.25615">
        <ele>153.7</ele>
        <time>2019-04-18T07:13:58.000Z</time>
      </trkpt>
      <trkpt lat="43.70436" lon="-0.25632">
        <ele>153.81</ele>
        <time>2019-04-18T07:14:08.000Z</time>
      </trkpt>
      <trkpt lat="43.70435" lon="-0.25649">
        <ele>153.66</ele>
        <time>2019-04-18T07:14:18.000Z</time>
      </trkpt>
      <trkpt lat="43.70438" lon="-0.25667">
        <ele>154.19</ele>
        <time>2019-04-18T07:14:28.000Z</time>
      </trkpt>
      <trkpt lat="43.70438" lon="-0.25684">
        <ele>153.76</ele>
        <time>2019-04-18T07:14:38.000Z</time>
      </trkpt>
      <trkpt lat="43.7044" lon="-0.257">
        <ele>153.72</ele>
        <time>2019-04-18T07:14:48.000Z</time>
      </trkpt>
      <trkpt lat="43.70442" lon="-0.25717">
        <ele>154.04</ele>
        <time>2019-04-18T07:14:58.000Z</time>
      </trkpt>
      <trkpt lat="43.70442" lon="-0.25731">
        <ele>153.74</ele>
        <time>2019-04-18T07:15:08.000Z</time>
      </trkpt>
      <trkpt lat="43.70442" lon="-0.25748">
        <ele>154.18</ele>
        <time>2019-04-18T07:15:18.000Z</time>
      </trkpt>
      <trkpt lat="43.70443" lon="-0.25765">
        <ele>153.82</ele>
        <time>2019-04-18T07:15:28.000Z</time>
      </trkpt>
      <trkpt lat="43.70443" lon="-0.25782">
        <ele>153.52</ele>
        <time>2019-04-18T07:15:38.000Z</time>
      </trkpt>
      <trkpt lat="43.7044" lon="-0.25798">
        <ele>153.62</ele>
        <time>2019-04-18T07:15:48.000Z</time>
      </trkpt>
      <trkpt lat="43.70442" lon="-0.25816">
        <ele>153.86</ele>
        <time>2019-04-18T07:15:58.000Z</time>
      </trkpt>
      <trkpt lat="43.70444" lon="-0.25832">
        <ele>153.8</ele>
        <time>2019-04-18T07:16:08.000Z</time>
      </trkpt>
      <trkpt lat="43.70446" lon="-0.25849">
        <ele>153.96</ele>
        <time>2019-04-18T07:16:18.000Z</time>
      </trkpt>
      <trkpt lat="43.70445" lon="-0.25864">
        <ele>154.09</ele>
        <time>2019-04-18T07:16:28.000Z</time>
      </trkpt>
      <trkpt lat="43.70442" lon="-0.2588">
        <ele>154.27</ele>
        <time>2019-04-18T07:16:38.000Z</time>
      </trkpt>
      <trkpt lat="43.70446" lon="-0.25899">
        <ele>153.99</ele>
        <time>2019-04-18T07:16:48.000Z</time>
      </trkpt>
      <trkpt lat="43.70447" lon="-0.25913">
        <ele>154.09</ele>
        <time>2019-04-18T07:16:58.000Z</time>
      </trkpt>
      <trkpt lat="43.70448" lon="-0.25928">
        <ele>154.28</ele>
        <time>2019-04-18T07:17:08.000Z</time>
      </trkpt>
      <trkpt lat="43.70448" lon="-0.25945">
        <ele>153.87</ele>
        <time>2019-04-18T07:17:18.000Z</time>
      </trkpt>
      <trkpt lat="43.70449" lon="-0.25962">
        <ele>153.95</ele>
        <time>2019-04-18T07:17:28.000Z</time>
      </trkpt>
      <trkpt lat="43.70451" lon="-0.25979">
        <ele>153.92</ele>
        <time>2019-04-18T07:17:38.000Z</time>
      </trkpt>
      <trkpt lat="43.70451" lon="-0.25996">
        <ele>154.26</ele>
        <time>2019-04-18T07:17:48.000Z</time>
      </trkpt>
      <trkpt lat="43.70447" lon="-0.26011">
        <ele>154.4</ele>
        <time>2019-04-18T07:17:58.000Z</time>
      </trkpt>
      <trkpt lat="43.70438" lon="-0.26018">
        <ele>153.92</ele>
        <time>2019-04-18T07:18:08.000Z</time>
      </trkpt>
      <trkpt lat="43.70428" lon="-0.26028">
        <ele>154.34</ele>
        <time>2019-04-18T07:18:18.000Z</time>
      </trkpt>
      <trkpt lat="43.70419" lon="-0.26038">
        <ele>154.9</ele>
        <time>2019-04-18T07:18:28.000Z</time>
      </trkpt>
      <trkpt lat="43.70413" lon="-0.26048">
        <ele>154.41</ele>
        <time>2019-04-18T07:18:38.000Z</time>
      </trkpt>
      <trkpt lat="43.70415" lon="-0.26065">
        <ele>154.03</ele>
        <time>2019-04-18T07:18:48.000Z</time>
      </trkpt>
      <trkpt lat="43.70416" lon="-0.26082">
        <ele>153.75</ele>
        <time>2019-04-18T07:18:58.000Z</time>
      </trkpt>
      <trkpt lat="43.70422" lon="-0.26098">
        <ele>153.57</ele>
        <time>2019-04-18T07:19:08.000Z</time>
      </trkpt>
      <trkpt lat="43.70425" lon="-0.26112">
        <ele>153.1</ele>
        <time>2019-04-18T07:19:18.000Z</time>
      </trkpt>
      <trkpt lat="43.70427" lon="-0.26129">
        <ele>152.88</ele>
        <time>2019-04-18T07:19:28.000Z</time>
      </trkpt>
      <trkpt lat="43.70427" lon="-0.26144">
        <ele>152.41</ele>
        <time>2019-04-18T07:19:38.000Z</time>
      </trkpt>
      <trkpt lat="43.70428" lon="-0.26155">
        <ele>152.81</ele>
        <time>2019-04-18T07:19:48.000Z</time>
      </trkpt>
      <trkpt lat="43.70427" lon="-0.26161">
        <ele>152.88</ele>
        <time>2019-04-18T07:19:58.000Z</time>
      </trkpt>
      <trkpt lat="43.70419" lon="-0.26168">
        <ele>153.65</ele>
        <time>2019-04-18T07:20:08.000Z</time>
      </trkpt>
      <trkpt lat="43.7041" lon="-0.26171">
        <ele>154.96</ele>
        <time>2019-04-18T07:20:18.000Z</time>
      </trkpt>
      <trkpt lat="43.70399" lon="-0.26175">
        <ele>155.36</ele>
        <time>2019-04-18T07:20:28.000Z</time>
      </trkpt>
      <trkpt lat="43.70388" lon="-0.2618">
        <ele>156.1</ele>
        <time>2019-04-18T07:20:38.000Z</time>
      </trkpt>
      <trkpt lat="43.70377" lon="-0.26182">
        <ele>156.88</ele>
        <time>2019-04-18T07:20:48.000Z</time>
      </trkpt>
      <trkpt lat="43.70379" lon="-0.26179">
        <ele>156.55</ele>
        <time>2019-04-18T07:20:58.000Z</time>
      </trkpt>
      <trkpt lat="43.70373" lon="-0.26185">
        <ele>156.35</ele>
        <time>2019-04-18T07:21:08.000Z</time>
      </trkpt>
      <trkpt lat="43.70363" lon="-0.26187">
        <ele>156.35</ele>
        <time>2019-04-18T07:21:18.000Z</time>
      </trkpt>
      <trkpt lat="43.70353" lon="-0.2619">
        <ele>156.34</ele>
        <time>2019-04-18T07:21:28.000Z</time>
      </trkpt>
      <trkpt lat="43.7034" lon="-0.26194">
        <ele>156.86</ele>
        <time>2019-04-18T07:21:38.000Z</time>
      </trkpt>
      <trkpt lat="43.70328" lon="-0.26196">
        <ele>157</ele>
        <time>2019-04-18T07:21:48.000Z</time>
      </trkpt>
      <trkpt lat="43.70317" lon="-0.26202">
        <ele>156.38</ele>
        <time>2019-04-18T07:21:58.000Z</time>
      </trkpt>
      <trkpt lat="43.70307" lon="-0.26205">
        <ele>156.42</ele>
        <time>2019-04-18T07:22:08.000Z</time>
      </trkpt>
      <trkpt lat="43.70295" lon="-0.26206">
        <ele>155.88</ele>
        <time>2019-04-18T07:22:18.000Z</time>
      </trkpt>
      <trkpt lat="43.70284" lon="-0.26211">
        <ele>155.68</ele>
        <time>2019-04-18T07:22:28.000Z</time>
      </trkpt>
      <trkpt lat="43.70273" lon="-0.26215">
        <ele>155.4</ele>
        <time>2019-04-18T07:22:38.000Z</time>
      </trkpt>
      <trkpt lat="43.70261" lon="-0.26216">
        <ele>155.02</ele>
        <time>2019-04-18T07:22:48.000Z</time>
      </trkpt>
      <trkpt lat="43.70248" lon="-0.26216">
        <ele>155.14</ele>
        <time>2019-04-18T07:22:58.000Z</time>
      </trkpt>
      <trkpt lat="43.70242" lon="-0.26207">
        <ele>155.33</ele>
        <time>2019-04-18T07:23:08.000Z</time>
      </trkpt>
      <trkpt lat="43.70236" lon="-0.2619">
        <ele>154.64</ele>
        <time>2019-04-18T07:23:18.000Z</time>
      </trkpt>
      <trkpt lat="43.70229" lon="-0.26175">
        <ele>153.85</ele>
        <time>2019-04-18T07:23:28.000Z</time>
      </trkpt>
      <trkpt lat="43.70225" lon="-0.26168">
        <ele>154.53</ele>
        <time>2019-04-18T07:23:38.000Z</time>
      </trkpt>
      <trkpt lat="43.70225" lon="-0.26165">
        <ele>154.28</ele>
        <time>2019-04-18T07:23:48.000Z</time>
      </trkpt>
      <trkpt lat="43.70223" lon="-0.26159">
        <ele>154.75</ele>
        <time>2019-04-18T07:23:58.000Z</time>
      </trkpt>
      <trkpt lat="43.70223" lon="-0.26161">
        <ele>154.69</ele>
        <time>2019-04-18T07:24:10.000Z</time>
      </trkpt>
      <trkpt lat="43.70222" lon="-0.26161">
        <ele>154.68</ele>
        <time>2019-04-18T07:24:21.000Z</time>
      </trkpt>
      <trkpt lat="43.70219" lon="-0.26163">
        <ele>154.05</ele>
        <time>2019-04-18T07:24:31.000Z</time>
      </trkpt>
      <trkpt lat="43.70216" lon="-0.26162">
        <ele>154.04</ele>
        <time>2019-04-18T07:24:41.000Z</time>
      </trkpt>
      <trkpt lat="43.70212" lon="-0.2616">
        <ele>154.11</ele>
        <time>2019-04-18T07:24:51.000Z</time>
      </trkpt>
      <trkpt lat="43.70209" lon="-0.26169">
        <ele>154.32</ele>
        <time>2019-04-18T07:25:01.000Z</time>
      </trkpt>
      <trkpt lat="43.70213" lon="-0.26168">
        <ele>154.3</ele>
        <time>2019-04-18T07:25:11.000Z</time>
      </trkpt>
      <trkpt lat="43.70214" lon="-0.26169">
        <ele>154.43</ele>
        <time>2019-04-18T07:25:23.000Z</time>
      </trkpt>
      <trkpt lat="43.70218" lon="-0.26171">
        <ele>154.31</ele>
        <time>2019-04-18T07:25:33.000Z</time>
      </trkpt>
      <trkpt lat="43.70219" lon="-0.26169">
        <ele>154.39</ele>
        <time>2019-04-18T07:25:43.000Z</time>
      </trkpt>
      <trkpt lat="43.70217" lon="-0.26162">
        <ele>153.99</ele>
        <time>2019-04-18T07:25:53.000Z</time>
      </trkpt>
      <trkpt lat="43.70216" lon="-0.26164">
        <ele>154.26</ele>
        <time>2019-04-18T07:26:03.000Z</time>
      </trkpt>
      <trkpt lat="43.70216" lon="-0.26165">
        <ele>154.19</ele>
        <time>2019-04-18T07:26:13.000Z</time>
      </trkpt>
      <trkpt lat="43.70214" lon="-0.26165">
        <ele>153.9</ele>
        <time>2019-04-18T07:26:36.000Z</time>
      </trkpt>
      <trkpt lat="43.7021" lon="-0.26165">
        <ele>153.72</ele>
        <time>2019-04-18T07:26:46.000Z</time>
      </trkpt>
      <trkpt lat="43.70209" lon="-0.26168">
        <ele>153.59</ele>
        <time>2019-04-18T07:26:56.000Z</time>
      </trkpt>
      <trkpt lat="43.70207" lon="-0.26168">
        <ele>153.82</ele>
        <time>2019-04-18T07:27:07.000Z</time>
      </trkpt>
      <trkpt lat="43.70212" lon="-0.26176">
        <ele>153.7</ele>
        <time>2019-04-18T07:27:17.000Z</time>
      </trkpt>
      <trkpt lat="43.70221" lon="-0.26193">
        <ele>153.35</ele>
        <time>2019-04-18T07:27:27.000Z</time>
      </trkpt>
      <trkpt lat="43.70226" lon="-0.26207">
        <ele>153.92</ele>
        <time>2019-04-18T07:27:37.000Z</time>
      </trkpt>
      <trkpt lat="43.70223" lon="-0.2622">
        <ele>153.86</ele>
        <time>2019-04-18T07:27:47.000Z</time>
      </trkpt>
      <trkpt lat="43.70225" lon="-0.26226">
        <ele>154.29</ele>
        <time>2019-04-18T07:27:57.000Z</time>
      </trkpt>
      <trkpt lat="43.70222" lon="-0.26224">
        <ele>153.62</ele>
        <time>2019-04-18T07:28:07.000Z</time>
      </trkpt>
      <trkpt lat="43.70217" lon="-0.2622">
        <ele>153.38</ele>
        <time>2019-04-18T07:28:17.000Z</time>
      </trkpt>
      <trkpt lat="43.70219" lon="-0.26213">
        <ele>153.92</ele>
        <time>2019-04-18T07:28:27.000Z</time>
      </trkpt>
      <trkpt lat="43.70216" lon="-0.26196">
        <ele>153.84</ele>
        <time>2019-04-18T07:28:37.000Z</time>
      </trkpt>
      <trkpt lat="43.70209" lon="-0.26193">
        <ele>153.26</ele>
        <time>2019-04-18T07:28:47.000Z</time>
      </trkpt>
      <trkpt lat="43.70195" lon="-0.2619">
        <ele>153.8</ele>
        <time>2019-04-18T07:28:57.000Z</time>
      </trkpt>
      <trkpt lat="43.70182" lon="-0.26191">
        <ele>153.84</ele>
        <time>2019-04-18T07:29:07.000Z</time>
      </trkpt>
      <trkpt lat="43.70168" lon="-0.2619">
        <ele>154.09</ele>
        <time>2019-04-18T07:29:17.000Z</time>
      </trkpt>
      <trkpt lat="43.70155" lon="-0.26191">
        <ele>153.95</ele>
        <time>2019-04-18T07:29:27.000Z</time>
      </trkpt>
      <trkpt lat="43.70143" lon="-0.26188">
        <ele>154.07</ele>
        <time>2019-04-18T07:29:37.000Z</time>
      </trkpt>
      <trkpt lat="43.7013" lon="-0.26193">
        <ele>154.19</ele>
        <time>2019-04-18T07:29:47.000Z</time>
      </trkpt>
      <trkpt lat="43.70119" lon="-0.2619">
        <ele>154.34</ele>
        <time>2019-04-18T07:29:57.000Z</time>
      </trkpt>
      <trkpt lat="43.70106" lon="-0.26189">
        <ele>154.76</ele>
        <time>2019-04-18T07:30:07.000Z</time>
      </trkpt>
      <trkpt lat="43.70099" lon="-0.26189">
        <ele>154.64</ele>
        <time>2019-04-18T07:30:17.000Z</time>
      </trkpt>
      <trkpt lat="43.70087" lon="-0.26194">
        <ele>154.37</ele>
        <time>2019-04-18T07:30:27.000Z</time>
      </trkpt>
      <trkpt lat="43.70075" lon="-0.262">
        <ele>155.01</ele>
        <time>2019-04-18T07:30:37.000Z</time>
      </trkpt>
      <trkpt lat="43.70062" lon="-0.26198">
        <ele>155.07</ele>
        <time>2019-04-18T07:30:47.000Z</time>
      </trkpt>
      <trkpt lat="43.70055" lon="-0.26198">
        <ele>155.83</ele>
        <time>2019-04-18T07:30:57.000Z</time>
      </trkpt>
      <trkpt lat="43.70047" lon="-0.26204">
        <ele>155.98</ele>
        <time>2019-04-18T07:31:07.000Z</time>
      </trkpt>
      <trkpt lat="43.70044" lon="-0.26217">
        <ele>156.01</ele>
        <time>2019-04-18T07:31:17.000Z</time>
      </trkpt>
      <trkpt lat="43.70042" lon="-0.26232">
        <ele>156.15</ele>
        <time>2019-04-18T07:31:27.000Z</time>
      </trkpt>
      <trkpt lat="43.70035" lon="-0.26235">
        <ele>156.08</ele>
        <time>2019-04-18T07:31:37.000Z</time>
      </trkpt>
      <trkpt lat="43.70034" lon="-0.26236">
        <ele>155.91</ele>
        <time>2019-04-18T07:31:49.000Z</time>
      </trkpt>
      <trkpt lat="43.70027" lon="-0.26235">
        <ele>155.98</ele>
        <time>2019-04-18T07:31:59.000Z</time>
      </trkpt>
      <trkpt lat="43.7003" lon="-0.26236">
        <ele>156.11</ele>
        <time>2019-04-18T07:32:09.000Z</time>
      </trkpt>
      <trkpt lat="43.69951" lon="-0.262">
        <ele>155.78</ele>
        <time>2019-04-18T07:32:40.000Z</time>
      </trkpt>
      <trkpt lat="43.69936" lon="-0.26206">
        <ele>156.08</ele>
        <time>2019-04-18T07:32:55.000Z</time>
      </trkpt>
      <trkpt lat="43.69935" lon="-0.26233">
        <ele>156.05</ele>
        <time>2019-04-18T07:33:08.000Z</time>
      </trkpt>
      <trkpt lat="43.69908" lon="-0.26232">
        <ele>155.97</ele>
        <time>2019-04-18T07:33:18.000Z</time>
      </trkpt>
      <trkpt lat="43.6997" lon="-0.26144">
        <ele>155.81</ele>
        <time>2019-04-18T07:34:18.000Z</time>
      </trkpt>
      <trkpt lat="43.69966" lon="-0.26175">
        <ele>155.6</ele>
        <time>2019-04-18T07:34:29.000Z</time>
      </trkpt>
      <trkpt lat="43.69952" lon="-0.26205">
        <ele>155.56</ele>
        <time>2019-04-18T07:34:39.000Z</time>
      </trkpt>
      <trkpt lat="43.69952" lon="-0.26186">
        <ele>155.57</ele>
        <time>2019-04-18T07:35:24.000Z</time>
      </trkpt>
      <trkpt lat="43.69907" lon="-0.26211">
        <ele>155.34</ele>
        <time>2019-04-18T07:35:45.000Z</time>
      </trkpt>
      <trkpt lat="43.69876" lon="-0.26242">
        <ele>155.72</ele>
        <time>2019-04-18T07:35:58.000Z</time>
      </trkpt>
      <trkpt lat="43.69956" lon="-0.26192">
        <ele>155.64</ele>
        <time>2019-04-18T07:37:49.000Z</time>
      </trkpt>
      <trkpt lat="43.69955" lon="-0.26191">
        <ele>155.46</ele>
        <time>2019-04-18T07:38:00.000Z</time>
      </trkpt>
      <trkpt lat="43.69951" lon="-0.26218">
        <ele>155.28</ele>
        <time>2019-04-18T07:38:39.000Z</time>
      </trkpt>
      <trkpt lat="43.70036" lon="-0.26245">
        <ele>157.59</ele>
        <time>2019-04-18T07:43:58.000Z</time>
      </trkpt>
      <trkpt lat="43.70035" lon="-0.26243">
        <ele>157.48</ele>
        <time>2019-04-18T07:44:10.000Z</time>
      </trkpt>
      <trkpt lat="43.70029" lon="-0.2624">
        <ele>157.04</ele>
        <time>2019-04-18T07:44:20.000Z</time>
      </trkpt>
      <trkpt lat="43.70028" lon="-0.2625">
        <ele>156.99</ele>
        <time>2019-04-18T07:44:30.000Z</time>
      </trkpt>
      <trkpt lat="43.70026" lon="-0.26254">
        <ele>156.9</ele>
        <time>2019-04-18T07:44:40.000Z</time>
      </trkpt>
      <trkpt lat="43.70033" lon="-0.26257">
        <ele>157.03</ele>
        <time>2019-04-18T07:44:50.000Z</time>
      </trkpt>
      <trkpt lat="43.70034" lon="-0.26262">
        <ele>156.38</ele>
        <time>2019-04-18T07:45:00.000Z</time>
      </trkpt>
      <trkpt lat="43.70037" lon="-0.26277">
        <ele>156.57</ele>
        <time>2019-04-18T07:45:10.000Z</time>
      </trkpt>
      <trkpt lat="43.70043" lon="-0.26294">
        <ele>156.5</ele>
        <time>2019-04-18T07:45:20.000Z</time>
      </trkpt>
      <trkpt lat="43.70046" lon="-0.26299">
        <ele>156.88</ele>
        <time>2019-04-18T07:45:30.000Z</time>
      </trkpt>
      <trkpt lat="43.70044" lon="-0.26299">
        <ele>156.76</ele>
        <time>2019-04-18T07:45:40.000Z</time>
      </trkpt>
      <trkpt lat="43.70041" lon="-0.26298">
        <ele>157.07</ele>
        <time>2019-04-18T07:45:50.000Z</time>
      </trkpt>
      <trkpt lat="43.70032" lon="-0.26297">
        <ele>157.16</ele>
        <time>2019-04-18T07:46:00.000Z</time>
      </trkpt>
      <trkpt lat="43.70016" lon="-0.263">
        <ele>156.54</ele>
        <time>2019-04-18T07:46:10.000Z</time>
      </trkpt>
      <trkpt lat="43.7" lon="-0.26303">
        <ele>156.48</ele>
        <time>2019-04-18T07:46:20.000Z</time>
      </trkpt>
      <trkpt lat="43.69987" lon="-0.26302">
        <ele>156.81</ele>
        <time>2019-04-18T07:46:30.000Z</time>
      </trkpt>
      <trkpt lat="43.69976" lon="-0.26306">
        <ele>156.77</ele>
        <time>2019-04-18T07:46:40.000Z</time>
      </trkpt>
      <trkpt lat="43.69965" lon="-0.26306">
        <ele>156.42</ele>
        <time>2019-04-18T07:46:50.000Z</time>
      </trkpt>
      <trkpt lat="43.69957" lon="-0.26317">
        <ele>156.32</ele>
        <time>2019-04-18T07:47:00.000Z</time>
      </trkpt>
      <trkpt lat="43.69959" lon="-0.26311">
        <ele>156.51</ele>
        <time>2019-04-18T07:47:10.000Z</time>
      </trkpt>
      <trkpt lat="43.69963" lon="-0.2631">
        <ele>156.56</ele>
        <time>2019-04-18T07:47:20.000Z</time>
      </trkpt>
      <trkpt lat="43.69966" lon="-0.26311">
        <ele>156.72</ele>
        <time>2019-04-18T07:47:30.000Z</time>
      </trkpt>
      <trkpt lat="43.69969" lon="-0.26313">
        <ele>156.59</ele>
        <time>2019-04-18T07:47:40.000Z</time>
      </trkpt>
      <trkpt lat="43.6997" lon="-0.26315">
        <ele>156.92</ele>
        <time>2019-04-18T07:47:50.000Z</time>
      </trkpt>
      <trkpt lat="43.69972" lon="-0.26318">
        <ele>157.06</ele>
        <time>2019-04-18T07:48:00.000Z</time>
      </trkpt>
      <trkpt lat="43.69975" lon="-0.26317">
        <ele>156.75</ele>
        <time>2019-04-18T07:48:10.000Z</time>
      </trkpt>
      <trkpt lat="43.69979" lon="-0.26316">
        <ele>156.54</ele>
        <time>2019-04-18T07:48:20.000Z</time>
      </trkpt>
      <trkpt lat="43.69981" lon="-0.26315">
        <ele>156.88</ele>
        <time>2019-04-18T07:48:30.000Z</time>
      </trkpt>
      <trkpt lat="43.69985" lon="-0.26318">
        <ele>156.94</ele>
        <time>2019-04-18T07:48:40.000Z</time>
      </trkpt>
      <trkpt lat="43.69986" lon="-0.26316">
        <ele>156.97</ele>
        <time>2019-04-18T07:48:50.000Z</time>
      </trkpt>
      <trkpt lat="43.69983" lon="-0.26314">
        <ele>157.37</ele>
        <time>2019-04-18T07:49:00.000Z</time>
      </trkpt>
      <trkpt lat="43.69986" lon="-0.2632">
        <ele>157.81</ele>
        <time>2019-04-18T07:53:53.000Z</time>
      </trkpt>
      <trkpt lat="43.69987" lon="-0.26317">
        <ele>158.08</ele>
        <time>2019-04-18T07:54:03.000Z</time>
      </trkpt>
      <trkpt lat="43.69987" lon="-0.26318">
        <ele>157.61</ele>
        <time>2019-04-18T07:54:32.000Z</time>
      </trkpt>
      <trkpt lat="43.69989" lon="-0.2633">
        <ele>158.46</ele>
        <time>2019-04-18T07:54:42.000Z</time>
      </trkpt>
      <trkpt lat="43.69993" lon="-0.26341">
        <ele>157.89</ele>
        <time>2019-04-18T07:54:52.000Z</time>
      </trkpt>
      <trkpt lat="43.69992" lon="-0.26354">
        <ele>158.4</ele>
        <time>2019-04-18T07:55:02.000Z</time>
      </trkpt>
      <trkpt lat="43.69994" lon="-0.26369">
        <ele>158.82</ele>
        <time>2019-04-18T07:55:12.000Z</time>
      </trkpt>
      <trkpt lat="43.69995" lon="-0.26386">
        <ele>158.79</ele>
        <time>2019-04-18T07:55:22.000Z</time>
      </trkpt>
      <trkpt lat="43.69995" lon="-0.26399">
        <ele>158.62</ele>
        <time>2019-04-18T07:55:32.000Z</time>
      </trkpt>
      <trkpt lat="43.69996" lon="-0.26414">
        <ele>158.81</ele>
        <time>2019-04-18T07:55:42.000Z</time>
      </trkpt>
      <trkpt lat="43.69993" lon="-0.26426">
        <ele>158.62</ele>
        <time>2019-04-18T07:55:52.000Z</time>
      </trkpt>
      <trkpt lat="43.69994" lon="-0.2644">
        <ele>159.09</ele>
        <time>2019-04-18T07:56:02.000Z</time>
      </trkpt>
      <trkpt lat="43.69993" lon="-0.26455">
        <ele>159.05</ele>
        <time>2019-04-18T07:56:12.000Z</time>
      </trkpt>
      <trkpt lat="43.69993" lon="-0.26468">
        <ele>160.04</ele>
        <time>2019-04-18T07:56:22.000Z</time>
      </trkpt>
      <trkpt lat="43.69991" lon="-0.26481">
        <ele>160.31</ele>
        <time>2019-04-18T07:56:32.000Z</time>
      </trkpt>
      <trkpt lat="43.69991" lon="-0.26493">
        <ele>160.89</ele>
        <time>2019-04-18T07:56:42.000Z</time>
      </trkpt>
      <trkpt lat="43.69991" lon="-0.26505">
        <ele>160.89</ele>
        <time>2019-04-18T07:56:52.000Z</time>
      </trkpt>
      <trkpt lat="43.69992" lon="-0.26522">
        <ele>161.51</ele>
        <time>2019-04-18T07:57:02.000Z</time>
      </trkpt>
      <trkpt lat="43.69992" lon="-0.26535">
        <ele>161.89</ele>
        <time>2019-04-18T07:57:12.000Z</time>
      </trkpt>
      <trkpt lat="43.69991" lon="-0.26547">
        <ele>162.36</ele>
        <time>2019-04-18T07:57:22.000Z</time>
      </trkpt>
      <trkpt lat="43.69988" lon="-0.2656">
        <ele>162.66</ele>
        <time>2019-04-18T07:57:32.000Z</time>
      </trkpt>
      <trkpt lat="43.69989" lon="-0.26569">
        <ele>162.57</ele>
        <time>2019-04-18T07:57:42.000Z</time>
      </trkpt>
      <trkpt lat="43.69989" lon="-0.26584">
        <ele>163.2</ele>
        <time>2019-04-18T07:57:52.000Z</time>
      </trkpt>
      <trkpt lat="43.69992" lon="-0.26599">
        <ele>163.43</ele>
        <time>2019-04-18T07:58:02.000Z</time>
      </trkpt>
      <trkpt lat="43.69989" lon="-0.26612">
        <ele>164.34</ele>
        <time>2019-04-18T07:58:12.000Z</time>
      </trkpt>
      <trkpt lat="43.69986" lon="-0.26622">
        <ele>164.2</ele>
        <time>2019-04-18T07:58:22.000Z</time>
      </trkpt>
      <trkpt lat="43.69984" lon="-0.26635">
        <ele>164.65</ele>
        <time>2019-04-18T07:58:32.000Z</time>
      </trkpt>
      <trkpt lat="43.69983" lon="-0.26646">
        <ele>165.61</ele>
        <time>2019-04-18T07:58:42.000Z</time>
      </trkpt>
      <trkpt lat="43.69983" lon="-0.26659">
        <ele>166.98</ele>
        <time>2019-04-18T07:58:52.000Z</time>
      </trkpt>
      <trkpt lat="43.69981" lon="-0.26671">
        <ele>167.49</ele>
        <time>2019-04-18T07:59:02.000Z</time>
      </trkpt>
      <trkpt lat="43.69977" lon="-0.26682">
        <ele>168.48</ele>
        <time>2019-04-18T07:59:12.000Z</time>
      </trkpt>
      <trkpt lat="43.69971" lon="-0.26692">
        <ele>169.67</ele>
        <time>2019-04-18T07:59:22.000Z</time>
      </trkpt>
      <trkpt lat="43.69965" lon="-0.26701">
        <ele>170.49</ele>
        <time>2019-04-18T07:59:32.000Z</time>
      </trkpt>
      <trkpt lat="43.69956" lon="-0.26708">
        <ele>171.47</ele>
        <time>2019-04-18T07:59:42.000Z</time>
      </trkpt>
      <trkpt lat="43.6995" lon="-0.26713">
        <ele>172.54</ele>
        <time>2019-04-18T07:59:52.000Z</time>
      </trkpt>
      <trkpt lat="43.69949" lon="-0.26714">
        <ele>173.24</ele>
        <time>2019-04-18T08:00:02.000Z</time>
      </trkpt>
      <trkpt lat="43.69942" lon="-0.26723">
        <ele>173.99</ele>
        <time>2019-04-18T08:00:12.000Z</time>
      </trkpt>
      <trkpt lat="43.69932" lon="-0.26727">
        <ele>174.63</ele>
        <time>2019-04-18T08:00:22.000Z</time>
      </trkpt>
      <trkpt lat="43.69926" lon="-0.26732">
        <ele>174.88</ele>
        <time>2019-04-18T08:00:32.000Z</time>
      </trkpt>
      <trkpt lat="43.69921" lon="-0.2674">
        <ele>175.7</ele>
        <time>2019-04-18T08:00:42.000Z</time>
      </trkpt>
      <trkpt lat="43.69915" lon="-0.26745">
        <ele>176.45</ele>
        <time>2019-04-18T08:00:52.000Z</time>
      </trkpt>
      <trkpt lat="43.69909" lon="-0.2675">
        <ele>177.64</ele>
        <time>2019-04-18T08:01:02.000Z</time>
      </trkpt>
      <trkpt lat="43.69903" lon="-0.26758">
        <ele>178.09</ele>
        <time>2019-04-18T08:01:12.000Z</time>
      </trkpt>
      <trkpt lat="43.69898" lon="-0.26765">
        <ele>179.13</ele>
        <time>2019-04-18T08:01:22.000Z</time>
      </trkpt>
      <trkpt lat="43.69891" lon="-0.2677">
        <ele>179.75</ele>
        <time>2019-04-18T08:01:32.000Z</time>
      </trkpt>
      <trkpt lat="43.69886" lon="-0.26777">
        <ele>180.48</ele>
        <time>2019-04-18T08:01:42.000Z</time>
      </trkpt>
      <trkpt lat="43.69877" lon="-0.26783">
        <ele>181.03</ele>
        <time>2019-04-18T08:01:52.000Z</time>
      </trkpt>
      <trkpt lat="43.69871" lon="-0.26789">
        <ele>182.06</ele>
        <time>2019-04-18T08:02:02.000Z</time>
      </trkpt>
      <trkpt lat="43.69868" lon="-0.2679">
        <ele>183.19</ele>
        <time>2019-04-18T08:02:12.000Z</time>
      </trkpt>
      <trkpt lat="43.69862" lon="-0.26799">
        <ele>184.02</ele>
        <time>2019-04-18T08:02:22.000Z</time>
      </trkpt>
      <trkpt lat="43.69855" lon="-0.26806">
        <ele>184.51</ele>
        <time>2019-04-18T08:02:32.000Z</time>
      </trkpt>
      <trkpt lat="43.69848" lon="-0.26813">
        <ele>185.64</ele>
        <time>2019-04-18T08:02:42.000Z</time>
      </trkpt>
      <trkpt lat="43.69839" lon="-0.26818">
        <ele>186.49</ele>
        <time>2019-04-18T08:02:52.000Z</time>
      </trkpt>
      <trkpt lat="43.69831" lon="-0.26824">
        <ele>187.27</ele>
        <time>2019-04-18T08:03:02.000Z</time>
      </trkpt>
      <trkpt lat="43.69824" lon="-0.26829">
        <ele>188.4</ele>
        <time>2019-04-18T08:03:12.000Z</time>
      </trkpt>
      <trkpt lat="43.69814" lon="-0.26837">
        <ele>189.11</ele>
        <time>2019-04-18T08:03:22.000Z</time>
      </trkpt>
      <trkpt lat="43.69806" lon="-0.26843">
        <ele>189.58</ele>
        <time>2019-04-18T08:03:32.000Z</time>
      </trkpt>
      <trkpt lat="43.69803" lon="-0.26849">
        <ele>190.19</ele>
        <time>2019-04-18T08:03:42.000Z</time>
      </trkpt>
      <trkpt lat="43.69794" lon="-0.26856">
        <ele>191.61</ele>
        <time>2019-04-18T08:03:52.000Z</time>
      </trkpt>
      <trkpt lat="43.69788" lon="-0.26862">
        <ele>192.19</ele>
        <time>2019-04-18T08:04:02.000Z</time>
      </trkpt>
      <trkpt lat="43.6978" lon="-0.26871">
        <ele>193.06</ele>
        <time>2019-04-18T08:04:12.000Z</time>
      </trkpt>
      <trkpt lat="43.69774" lon="-0.26878">
        <ele>193.58</ele>
        <time>2019-04-18T08:04:22.000Z</time>
      </trkpt>
      <trkpt lat="43.69768" lon="-0.26882">
        <ele>194.92</ele>
        <time>2019-04-18T08:04:32.000Z</time>
      </trkpt>
      <trkpt lat="43.69762" lon="-0.26886">
        <ele>195.15</ele>
        <time>2019-04-18T08:04:42.000Z</time>
      </trkpt>
      <trkpt lat="43.69756" lon="-0.26888">
        <ele>195.71</ele>
        <time>2019-04-18T08:04:52.000Z</time>
      </trkpt>
      <trkpt lat="43.6975" lon="-0.26887">
        <ele>195.69</ele>
        <time>2019-04-18T08:05:02.000Z</time>
      </trkpt>
      <trkpt lat="43.69743" lon="-0.26899">
        <ele>196.7</ele>
        <time>2019-04-18T08:05:12.000Z</time>
      </trkpt>
      <trkpt lat="43.69743" lon="-0.269">
        <ele>197.11</ele>
        <time>2019-04-18T08:05:23.000Z</time>
      </trkpt>
      <trkpt lat="43.69735" lon="-0.26871">
        <ele>196.75</ele>
        <time>2019-04-18T08:06:26.000Z</time>
      </trkpt>
      <trkpt lat="43.69729" lon="-0.2686">
        <ele>196.15</ele>
        <time>2019-04-18T08:06:39.000Z</time>
      </trkpt>
      <trkpt lat="43.69695" lon="-0.26851">
        <ele>196.15</ele>
        <time>2019-04-18T08:06:49.000Z</time>
      </trkpt>
      <trkpt lat="43.69729" lon="-0.2682">
        <ele>195.84</ele>
        <time>2019-04-18T08:06:59.000Z</time>
      </trkpt>
      <trkpt lat="43.69717" lon="-0.26831">
        <ele>195.81</ele>
        <time>2019-04-18T08:07:22.000Z</time>
      </trkpt>
      <trkpt lat="43.69702" lon="-0.26837">
        <ele>195.81</ele>
        <time>2019-04-18T08:07:35.000Z</time>
      </trkpt>
      <trkpt lat="43.69702" lon="-0.26842">
        <ele>195.15</ele>
        <time>2019-04-18T08:09:26.000Z</time>
      </trkpt>
      <trkpt lat="43.69691" lon="-0.26838">
        <ele>195.35</ele>
        <time>2019-04-18T08:10:07.000Z</time>
      </trkpt>
      <trkpt lat="43.69698" lon="-0.2684">
        <ele>195.38</ele>
        <time>2019-04-18T08:10:18.000Z</time>
      </trkpt>
      <trkpt lat="43.69686" lon="-0.26823">
        <ele>195.32</ele>
        <time>2019-04-18T08:10:28.000Z</time>
      </trkpt>
      <trkpt lat="43.69749" lon="-0.26877">
        <ele>195.16</ele>
        <time>2019-04-18T08:11:15.000Z</time>
      </trkpt>
      <trkpt lat="43.69734" lon="-0.26873">
        <ele>194.99</ele>
        <time>2019-04-18T08:11:26.000Z</time>
      </trkpt>
      <trkpt lat="43.69742" lon="-0.26876">
        <ele>194.89</ele>
        <time>2019-04-18T08:11:37.000Z</time>
      </trkpt>
      <trkpt lat="43.69704" lon="-0.26911">
        <ele>195.39</ele>
        <time>2019-04-18T08:12:13.000Z</time>
      </trkpt>
      <trkpt lat="43.69715" lon="-0.26909">
        <ele>196.52</ele>
        <time>2019-04-18T08:12:24.000Z</time>
      </trkpt>
      <trkpt lat="43.69718" lon="-0.26907">
        <ele>196.39</ele>
        <time>2019-04-18T08:12:34.000Z</time>
      </trkpt>
      <trkpt lat="43.69711" lon="-0.26913">
        <ele>197.13</ele>
        <time>2019-04-18T08:12:44.000Z</time>
      </trkpt>
      <trkpt lat="43.69711" lon="-0.26919">
        <ele>197.61</ele>
        <time>2019-04-18T08:12:54.000Z</time>
      </trkpt>
      <trkpt lat="43.69711" lon="-0.2692">
        <ele>198.1</ele>
        <time>2019-04-18T08:13:04.000Z</time>
      </trkpt>
      <trkpt lat="43.69705" lon="-0.26924">
        <ele>198.47</ele>
        <time>2019-04-18T08:13:14.000Z</time>
      </trkpt>
      <trkpt lat="43.69697" lon="-0.26929">
        <ele>198.96</ele>
        <time>2019-04-18T08:13:24.000Z</time>
      </trkpt>
      <trkpt lat="43.69685" lon="-0.26928">
        <ele>199.69</ele>
        <time>2019-04-18T08:13:35.000Z</time>
      </trkpt>
      <trkpt lat="43.6968" lon="-0.26938">
        <ele>200.22</ele>
        <time>2019-04-18T08:13:45.000Z</time>
      </trkpt>
      <trkpt lat="43.69671" lon="-0.26943">
        <ele>201.13</ele>
        <time>2019-04-18T08:13:55.000Z</time>
      </trkpt>
      <trkpt lat="43.6966" lon="-0.26944">
        <ele>201.75</ele>
        <time>2019-04-18T08:14:05.000Z</time>
      </trkpt>
      <trkpt lat="43.69652" lon="-0.26944">
        <ele>202.47</ele>
        <time>2019-04-18T08:14:15.000Z</time>
      </trkpt>
      <trkpt lat="43.69645" lon="-0.26945">
        <ele>202.95</ele>
        <time>2019-04-18T08:14:25.000Z</time>
      </trkpt>
      <trkpt lat="43.69636" lon="-0.26953">
        <ele>203.58</ele>
        <time>2019-04-18T08:14:35.000Z</time>
      </trkpt>
      <trkpt lat="43.69631" lon="-0.26958">
        <ele>204.4</ele>
        <time>2019-04-18T08:14:45.000Z</time>
      </trkpt>
      <trkpt lat="43.69624" lon="-0.26963">
        <ele>204.66</ele>
        <time>2019-04-18T08:14:55.000Z</time>
      </trkpt>
      <trkpt lat="43.69611" lon="-0.26975">
        <ele>204.73</ele>
        <time>2019-04-18T08:15:05.000Z</time>
      </trkpt>
      <trkpt lat="43.696" lon="-0.26978">
        <ele>205.12</ele>
        <time>2019-04-18T08:15:15.000Z</time>
      </trkpt>
      <trkpt lat="43.69589" lon="-0.26984">
        <ele>205.8</ele>
        <time>2019-04-18T08:15:25.000Z</time>
      </trkpt>
      <trkpt lat="43.69579" lon="-0.26993">
        <ele>206.07</ele>
        <time>2019-04-18T08:15:35.000Z</time>
      </trkpt>
      <trkpt lat="43.6957" lon="-0.26998">
        <ele>206.63</ele>
        <time>2019-04-18T08:15:45.000Z</time>
      </trkpt>
      <trkpt lat="43.69563" lon="-0.27002">
        <ele>207.57</ele>
        <time>2019-04-18T08:15:55.000Z</time>
      </trkpt>
      <trkpt lat="43.69556" lon="-0.27014">
        <ele>207.76</ele>
        <time>2019-04-18T08:16:05.000Z</time>
      </trkpt>
      <trkpt lat="43.69548" lon="-0.2702">
        <ele>208.06</ele>
        <time>2019-04-18T08:16:15.000Z</time>
      </trkpt>
      <trkpt lat="43.6954" lon="-0.27026">
        <ele>208.6</ele>
        <time>2019-04-18T08:16:25.000Z</time>
      </trkpt>
      <trkpt lat="43.69533" lon="-0.27031">
        <ele>209.05</ele>
        <time>2019-04-18T08:16:35.000Z</time>
      </trkpt>
      <trkpt lat="43.69524" lon="-0.27035">
        <ele>209.77</ele>
        <time>2019-04-18T08:16:45.000Z</time>
      </trkpt>
      <trkpt lat="43.69514" lon="-0.27041">
        <ele>210.37</ele>
        <time>2019-04-18T08:16:55.000Z</time>
      </trkpt>
      <trkpt lat="43.69505" lon="-0.27047">
        <ele>211.04</ele>
        <time>2019-04-18T08:17:05.000Z</time>
      </trkpt>
      <trkpt lat="43.695" lon="-0.27056">
        <ele>211.22</ele>
        <time>2019-04-18T08:17:15.000Z</time>
      </trkpt>
      <trkpt lat="43.69491" lon="-0.27063">
        <ele>211.63</ele>
        <time>2019-04-18T08:17:25.000Z</time>
      </trkpt>
      <trkpt lat="43.69481" lon="-0.2707">
        <ele>212.03</ele>
        <time>2019-04-18T08:17:35.000Z</time>
      </trkpt>
      <trkpt lat="43.69474" lon="-0.27077">
        <ele>212.42</ele>
        <time>2019-04-18T08:17:45.000Z</time>
      </trkpt>
      <trkpt lat="43.6947" lon="-0.27085">
        <ele>212.64</ele>
        <time>2019-04-18T08:17:55.000Z</time>
      </trkpt>
      <trkpt lat="43.69463" lon="-0.27085">
        <ele>212.36</ele>
        <time>2019-04-18T08:18:05.000Z</time>
      </trkpt>
      <trkpt lat="43.69453" lon="-0.2709">
        <ele>212.94</ele>
        <time>2019-04-18T08:18:15.000Z</time>
      </trkpt>
      <trkpt lat="43.69445" lon="-0.27095">
        <ele>213.44</ele>
        <time>2019-04-18T08:18:25.000Z</time>
      </trkpt>
      <trkpt lat="43.69434" lon="-0.27101">
        <ele>213.48</ele>
        <time>2019-04-18T08:18:35.000Z</time>
      </trkpt>
      <trkpt lat="43.69425" lon="-0.27107">
        <ele>213.57</ele>
        <time>2019-04-18T08:18:45.000Z</time>
      </trkpt>
      <trkpt lat="43.69418" lon="-0.27112">
        <ele>214.13</ele>
        <time>2019-04-18T08:18:55.000Z</time>
      </trkpt>
      <trkpt lat="43.69408" lon="-0.2712">
        <ele>214.37</ele>
        <time>2019-04-18T08:19:05.000Z</time>
      </trkpt>
      <trkpt lat="43.69407" lon="-0.27116">
        <ele>214.26</ele>
        <time>2019-04-18T08:19:15.000Z</time>
      </trkpt>
      <trkpt lat="43.69407" lon="-0.27114">
        <ele>214.01</ele>
        <time>2019-04-18T08:19:39.000Z</time>
      </trkpt>
      <trkpt lat="43.69407" lon="-0.27116">
        <ele>212.92</ele>
        <time>2019-04-18T08:21:19.000Z</time>
      </trkpt>
      <trkpt lat="43.69396" lon="-0.27123">
        <ele>213.15</ele>
        <time>2019-04-18T08:21:29.000Z</time>
      </trkpt>
      <trkpt lat="43.69387" lon="-0.2713">
        <ele>213.4</ele>
        <time>2019-04-18T08:21:39.000Z</time>
      </trkpt>
      <trkpt lat="43.69379" lon="-0.27135">
        <ele>213.56</ele>
        <time>2019-04-18T08:21:49.000Z</time>
      </trkpt>
      <trkpt lat="43.6937" lon="-0.27144">
        <ele>214.19</ele>
        <time>2019-04-18T08:21:59.000Z</time>
      </trkpt>
      <trkpt lat="43.69361" lon="-0.27149">
        <ele>214.8</ele>
        <time>2019-04-18T08:22:09.000Z</time>
      </trkpt>
      <trkpt lat="43.69353" lon="-0.27156">
        <ele>215.22</ele>
        <time>2019-04-18T08:22:19.000Z</time>
      </trkpt>
      <trkpt lat="43.69345" lon="-0.27163">
        <ele>215.47</ele>
        <time>2019-04-18T08:22:29.000Z</time>
      </trkpt>
      <trkpt lat="43.69336" lon="-0.27168">
        <ele>215.85</ele>
        <time>2019-04-18T08:22:39.000Z</time>
      </trkpt>
      <trkpt lat="43.69325" lon="-0.27174">
        <ele>216.61</ele>
        <time>2019-04-18T08:22:49.000Z</time>
      </trkpt>
      <trkpt lat="43.69315" lon="-0.27177">
        <ele>216.96</ele>
        <time>2019-04-18T08:22:59.000Z</time>
      </trkpt>
      <trkpt lat="43.69307" lon="-0.27184">
        <ele>217.04</ele>
        <time>2019-04-18T08:23:09.000Z</time>
      </trkpt>
      <trkpt lat="43.69298" lon="-0.27191">
        <ele>217.28</ele>
        <time>2019-04-18T08:23:19.000Z</time>
      </trkpt>
      <trkpt lat="43.69289" lon="-0.272">
        <ele>217.72</ele>
        <time>2019-04-18T08:23:29.000Z</time>
      </trkpt>
      <trkpt lat="43.69279" lon="-0.27207">
        <ele>217.36</ele>
        <time>2019-04-18T08:23:39.000Z</time>
      </trkpt>
      <trkpt lat="43.69271" lon="-0.27213">
        <ele>217.75</ele>
        <time>2019-04-18T08:23:49.000Z</time>
      </trkpt>
      <trkpt lat="43.69262" lon="-0.27219">
        <ele>218.21</ele>
        <time>2019-04-18T08:23:59.000Z</time>
      </trkpt>
      <trkpt lat="43.69251" lon="-0.27225">
        <ele>218.29</ele>
        <time>2019-04-18T08:24:09.000Z</time>
      </trkpt>
      <trkpt lat="43.6924" lon="-0.27231">
        <ele>218.62</ele>
        <time>2019-04-18T08:24:19.000Z</time>
      </trkpt>
      <trkpt lat="43.69232" lon="-0.27238">
        <ele>218.67</ele>
        <time>2019-04-18T08:24:29.000Z</time>
      </trkpt>
      <trkpt lat="43.69224" lon="-0.27247">
        <ele>218.7</ele>
        <time>2019-04-18T08:24:39.000Z</time>
      </trkpt>
      <trkpt lat="43.69216" lon="-0.27253">
        <ele>219.04</ele>
        <time>2019-04-18T08:24:49.000Z</time>
      </trkpt>
      <trkpt lat="43.69207" lon="-0.27258">
        <ele>219.15</ele>
        <time>2019-04-18T08:24:59.000Z</time>
      </trkpt>
      <trkpt lat="43.69196" lon="-0.2726">
        <ele>219</ele>
        <time>2019-04-18T08:25:09.000Z</time>
      </trkpt>
      <trkpt lat="43.69186" lon="-0.27265">
        <ele>219.51</ele>
        <time>2019-04-18T08:25:19.000Z</time>
      </trkpt>
      <trkpt lat="43.69177" lon="-0.27271">
        <ele>219.82</ele>
        <time>2019-04-18T08:25:29.000Z</time>
      </trkpt>
      <trkpt lat="43.69167" lon="-0.27278">
        <ele>219.88</ele>
        <time>2019-04-18T08:25:39.000Z</time>
      </trkpt>
      <trkpt lat="43.69158" lon="-0.27284">
        <ele>219.35</ele>
        <time>2019-04-18T08:25:49.000Z</time>
      </trkpt>
      <trkpt lat="43.69149" lon="-0.27291">
        <ele>219.28</ele>
        <time>2019-04-18T08:25:59.000Z</time>
      </trkpt>
      <trkpt lat="43.69141" lon="-0.27297">
        <ele>219</ele>
        <time>2019-04-18T08:26:09.000Z</time>
      </trkpt>
      <trkpt lat="43.69132" lon="-0.27304">
        <ele>219.24</ele>
        <time>2019-04-18T08:26:19.000Z</time>
      </trkpt>
      <trkpt lat="43.69123" lon="-0.2731">
        <ele>219.62</ele>
        <time>2019-04-18T08:26:29.000Z</time>
      </trkpt>
      <trkpt lat="43.69113" lon="-0.27317">
        <ele>220.17</ele>
        <time>2019-04-18T08:26:39.000Z</time>
      </trkpt>
      <trkpt lat="43.69105" lon="-0.27326">
        <ele>220.25</ele>
        <time>2019-04-18T08:26:49.000Z</time>
      </trkpt>
      <trkpt lat="43.69095" lon="-0.27331">
        <ele>220.05</ele>
        <time>2019-04-18T08:26:59.000Z</time>
      </trkpt>
      <trkpt lat="43.69085" lon="-0.27338">
        <ele>220.1</ele>
        <time>2019-04-18T08:27:09.000Z</time>
      </trkpt>
      <trkpt lat="43.69076" lon="-0.27342">
        <ele>220.42</ele>
        <time>2019-04-18T08:27:19.000Z</time>
      </trkpt>
      <trkpt lat="43.69066" lon="-0.27349">
        <ele>220.85</ele>
        <time>2019-04-18T08:27:29.000Z</time>
      </trkpt>
      <trkpt lat="43.69055" lon="-0.27358">
        <ele>220.79</ele>
        <time>2019-04-18T08:27:39.000Z</time>
      </trkpt>
      <trkpt lat="43.69045" lon="-0.27364">
        <ele>220.47</ele>
        <time>2019-04-18T08:27:49.000Z</time>
      </trkpt>
      <trkpt lat="43.69035" lon="-0.2737">
        <ele>220.4</ele>
        <time>2019-04-18T08:27:59.000Z</time>
      </trkpt>
      <trkpt lat="43.69026" lon="-0.27377">
        <ele>220.7</ele>
        <time>2019-04-18T08:28:09.000Z</time>
      </trkpt>
      <trkpt lat="43.69015" lon="-0.27384">
        <ele>220.67</ele>
        <time>2019-04-18T08:28:19.000Z</time>
      </trkpt>
      <trkpt lat="43.69007" lon="-0.27393">
        <ele>221.01</ele>
        <time>2019-04-18T08:28:29.000Z</time>
      </trkpt>
      <trkpt lat="43.68997" lon="-0.274">
        <ele>221.34</ele>
        <time>2019-04-18T08:28:39.000Z</time>
      </trkpt>
      <trkpt lat="43.68996" lon="-0.27401">
        <ele>221.09</ele>
        <time>2019-04-18T08:28:49.000Z</time>
      </trkpt>
      <trkpt lat="43.68991" lon="-0.27416">
        <ele>221.14</ele>
        <time>2019-04-18T08:28:59.000Z</time>
      </trkpt>
      <trkpt lat="43.68983" lon="-0.27424">
        <ele>220.87</ele>
        <time>2019-04-18T08:29:09.000Z</time>
      </trkpt>
      <trkpt lat="43.68977" lon="-0.27435">
        <ele>220.77</ele>
        <time>2019-04-18T08:29:19.000Z</time>
      </trkpt>
      <trkpt lat="43.68972" lon="-0.27446">
        <ele>221.27</ele>
        <time>2019-04-18T08:29:29.000Z</time>
      </trkpt>
      <trkpt lat="43.6897" lon="-0.27461">
        <ele>221.23</ele>
        <time>2019-04-18T08:29:39.000Z</time>
      </trkpt>
      <trkpt lat="43.68972" lon="-0.27476">
        <ele>221.05</ele>
        <time>2019-04-18T08:29:49.000Z</time>
      </trkpt>
      <trkpt lat="43.68971" lon="-0.2749">
        <ele>220.71</ele>
        <time>2019-04-18T08:29:59.000Z</time>
      </trkpt>
      <trkpt lat="43.68972" lon="-0.27506">
        <ele>221.39</ele>
        <time>2019-04-18T08:30:09.000Z</time>
      </trkpt>
      <trkpt lat="43.68977" lon="-0.27523">
        <ele>220.84</ele>
        <time>2019-04-18T08:30:19.000Z</time>
      </trkpt>
      <trkpt lat="43.68978" lon="-0.27537">
        <ele>221.01</ele>
        <time>2019-04-18T08:30:29.000Z</time>
      </trkpt>
      <trkpt lat="43.68978" lon="-0.27551">
        <ele>220.36</ele>
        <time>2019-04-18T08:30:39.000Z</time>
      </trkpt>
      <trkpt lat="43.68978" lon="-0.27564">
        <ele>220.48</ele>
        <time>2019-04-18T08:30:49.000Z</time>
      </trkpt>
      <trkpt lat="43.6898" lon="-0.27579">
        <ele>220.73</ele>
        <time>2019-04-18T08:30:59.000Z</time>
      </trkpt>
      <trkpt lat="43.6898" lon="-0.27594">
        <ele>220.59</ele>
        <time>2019-04-18T08:31:09.000Z</time>
      </trkpt>
      <trkpt lat="43.68982" lon="-0.27608">
        <ele>219.89</ele>
        <time>2019-04-18T08:31:19.000Z</time>
      </trkpt>
      <trkpt lat="43.68983" lon="-0.27624">
        <ele>219.72</ele>
        <time>2019-04-18T08:31:29.000Z</time>
      </trkpt>
      <trkpt lat="43.68983" lon="-0.27638">
        <ele>219.76</ele>
        <time>2019-04-18T08:31:39.000Z</time>
      </trkpt>
      <trkpt lat="43.68987" lon="-0.27653">
        <ele>219.75</ele>
        <time>2019-04-18T08:31:49.000Z</time>
      </trkpt>
      <trkpt lat="43.68988" lon="-0.27669">
        <ele>219.29</ele>
        <time>2019-04-18T08:31:59.000Z</time>
      </trkpt>
      <trkpt lat="43.68987" lon="-0.27682">
        <ele>219.19</ele>
        <time>2019-04-18T08:32:09.000Z</time>
      </trkpt>
      <trkpt lat="43.68978" lon="-0.27693">
        <ele>219.64</ele>
        <time>2019-04-18T08:32:19.000Z</time>
      </trkpt>
      <trkpt lat="43.68969" lon="-0.27702">
        <ele>220.21</ele>
        <time>2019-04-18T08:32:29.000Z</time>
      </trkpt>
      <trkpt lat="43.68959" lon="-0.27711">
        <ele>220.11</ele>
        <time>2019-04-18T08:32:39.000Z</time>
      </trkpt>
      <trkpt lat="43.68951" lon="-0.27719">
        <ele>220.5</ele>
        <time>2019-04-18T08:32:49.000Z</time>
      </trkpt>
      <trkpt lat="43.68942" lon="-0.27728">
        <ele>220.77</ele>
        <time>2019-04-18T08:32:59.000Z</time>
      </trkpt>
      <trkpt lat="43.68933" lon="-0.27737">
        <ele>220.36</ele>
        <time>2019-04-18T08:33:09.000Z</time>
      </trkpt>
      <trkpt lat="43.68924" lon="-0.27744">
        <ele>221.09</ele>
        <time>2019-04-18T08:33:19.000Z</time>
      </trkpt>
      <trkpt lat="43.68915" lon="-0.27751">
        <ele>221</ele>
        <time>2019-04-18T08:33:29.000Z</time>
      </trkpt>
      <trkpt lat="43.68906" lon="-0.27758">
        <ele>220.67</ele>
        <time>2019-04-18T08:33:39.000Z</time>
      </trkpt>
      <trkpt lat="43.68897" lon="-0.27765">
        <ele>221.02</ele>
        <time>2019-04-18T08:33:49.000Z</time>
      </trkpt>
      <trkpt lat="43.68888" lon="-0.27774">
        <ele>221.62</ele>
        <time>2019-04-18T08:33:59.000Z</time>
      </trkpt>
      <trkpt lat="43.68879" lon="-0.27781">
        <ele>221.36</ele>
        <time>2019-04-18T08:34:09.000Z</time>
      </trkpt>
      <trkpt lat="43.68872" lon="-0.27789">
        <ele>221.64</ele>
        <time>2019-04-18T08:34:19.000Z</time>
      </trkpt>
      <trkpt lat="43.68861" lon="-0.27794">
        <ele>221.48</ele>
        <time>2019-04-18T08:34:29.000Z</time>
      </trkpt>
      <trkpt lat="43.68862" lon="-0.2781">
        <ele>221.5</ele>
        <time>2019-04-18T08:34:39.000Z</time>
      </trkpt>
      <trkpt lat="43.68862" lon="-0.27826">
        <ele>221.44</ele>
        <time>2019-04-18T08:34:49.000Z</time>
      </trkpt>
      <trkpt lat="43.68859" lon="-0.2784">
        <ele>221.39</ele>
        <time>2019-04-18T08:34:59.000Z</time>
      </trkpt>
      <trkpt lat="43.68851" lon="-0.27852">
        <ele>221.47</ele>
        <time>2019-04-18T08:35:09.000Z</time>
      </trkpt>
      <trkpt lat="43.68842" lon="-0.27861">
        <ele>222.06</ele>
        <time>2019-04-18T08:35:19.000Z</time>
      </trkpt>
      <trkpt lat="43.68833" lon="-0.2787">
        <ele>221.93</ele>
        <time>2019-04-18T08:35:29.000Z</time>
      </trkpt>
      <trkpt lat="43.68823" lon="-0.27878">
        <ele>222.16</ele>
        <time>2019-04-18T08:35:39.000Z</time>
      </trkpt>
      <trkpt lat="43.68814" lon="-0.27886">
        <ele>222.83</ele>
        <time>2019-04-18T08:35:49.000Z</time>
      </trkpt>
      <trkpt lat="43.68804" lon="-0.27895">
        <ele>222.87</ele>
        <time>2019-04-18T08:35:59.000Z</time>
      </trkpt>
      <trkpt lat="43.68796" lon="-0.27905">
        <ele>222.55</ele>
        <time>2019-04-18T08:36:09.000Z</time>
      </trkpt>
      <trkpt lat="43.68789" lon="-0.27919">
        <ele>222.93</ele>
        <time>2019-04-18T08:36:19.000Z</time>
      </trkpt>
      <trkpt lat="43.68781" lon="-0.2793">
        <ele>222.47</ele>
        <time>2019-04-18T08:36:29.000Z</time>
      </trkpt>
      <trkpt lat="43.68774" lon="-0.27942">
        <ele>222.69</ele>
        <time>2019-04-18T08:36:39.000Z</time>
      </trkpt>
      <trkpt lat="43.68767" lon="-0.27952">
        <ele>222.78</ele>
        <time>2019-04-18T08:36:49.000Z</time>
      </trkpt>
      <trkpt lat="43.68759" lon="-0.27962">
        <ele>223.01</ele>
        <time>2019-04-18T08:36:59.000Z</time>
      </trkpt>
      <trkpt lat="43.6875" lon="-0.27974">
        <ele>222.87</ele>
        <time>2019-04-18T08:37:09.000Z</time>
      </trkpt>
      <trkpt lat="43.68741" lon="-0.27985">
        <ele>223</ele>
        <time>2019-04-18T08:37:19.000Z</time>
      </trkpt>
      <trkpt lat="43.68735" lon="-0.27994">
        <ele>222.99</ele>
        <time>2019-04-18T08:37:29.000Z</time>
      </trkpt>
      <trkpt lat="43.68726" lon="-0.28006">
        <ele>223.18</ele>
        <time>2019-04-18T08:37:39.000Z</time>
      </trkpt>
      <trkpt lat="43.68717" lon="-0.28014">
        <ele>223.41</ele>
        <time>2019-04-18T08:37:49.000Z</time>
      </trkpt>
      <trkpt lat="43.68708" lon="-0.28023">
        <ele>223.29</ele>
        <time>2019-04-18T08:37:59.000Z</time>
      </trkpt>
      <trkpt lat="43.68699" lon="-0.28032">
        <ele>223.21</ele>
        <time>2019-04-18T08:38:09.000Z</time>
      </trkpt>
      <trkpt lat="43.68689" lon="-0.28042">
        <ele>223.5</ele>
        <time>2019-04-18T08:38:19.000Z</time>
      </trkpt>
      <trkpt lat="43.6868" lon="-0.28051">
        <ele>223.2</ele>
        <time>2019-04-18T08:38:29.000Z</time>
      </trkpt>
      <trkpt lat="43.6867" lon="-0.2806">
        <ele>223.2</ele>
        <time>2019-04-18T08:38:39.000Z</time>
      </trkpt>
      <trkpt lat="43.68661" lon="-0.2807">
        <ele>223.31</ele>
        <time>2019-04-18T08:38:49.000Z</time>
      </trkpt>
      <trkpt lat="43.68652" lon="-0.28077">
        <ele>222.96</ele>
        <time>2019-04-18T08:38:59.000Z</time>
      </trkpt>
      <trkpt lat="43.68642" lon="-0.28086">
        <ele>222.97</ele>
        <time>2019-04-18T08:39:09.000Z</time>
      </trkpt>
      <trkpt lat="43.68632" lon="-0.28091">
        <ele>222.64</ele>
        <time>2019-04-18T08:39:19.000Z</time>
      </trkpt>
      <trkpt lat="43.6862" lon="-0.28091">
        <ele>223.14</ele>
        <time>2019-04-18T08:39:29.000Z</time>
      </trkpt>
      <trkpt lat="43.6861" lon="-0.28094">
        <ele>224.04</ele>
        <time>2019-04-18T08:39:39.000Z</time>
      </trkpt>
      <trkpt lat="43.68601" lon="-0.28094">
        <ele>224.21</ele>
        <time>2019-04-18T08:39:49.000Z</time>
      </trkpt>
      <trkpt lat="43.68588" lon="-0.28093">
        <ele>224.45</ele>
        <time>2019-04-18T08:39:59.000Z</time>
      </trkpt>
      <trkpt lat="43.68576" lon="-0.28093">
        <ele>224.93</ele>
        <time>2019-04-18T08:40:09.000Z</time>
      </trkpt>
      <trkpt lat="43.68566" lon="-0.28089">
        <ele>225.21</ele>
        <time>2019-04-18T08:40:19.000Z</time>
      </trkpt>
      <trkpt lat="43.68553" lon="-0.28086">
        <ele>225.57</ele>
        <time>2019-04-18T08:40:29.000Z</time>
      </trkpt>
      <trkpt lat="43.68543" lon="-0.28085">
        <ele>226.01</ele>
        <time>2019-04-18T08:40:39.000Z</time>
      </trkpt>
      <trkpt lat="43.68536" lon="-0.28082">
        <ele>226.39</ele>
        <time>2019-04-18T08:40:49.000Z</time>
      </trkpt>
      <trkpt lat="43.68532" lon="-0.28081">
        <ele>226.32</ele>
        <time>2019-04-18T08:40:59.000Z</time>
      </trkpt>
      <trkpt lat="43.68526" lon="-0.28082">
        <ele>226.32</ele>
        <time>2019-04-18T08:41:09.000Z</time>
      </trkpt>
      <trkpt lat="43.68516" lon="-0.2808">
        <ele>226.69</ele>
        <time>2019-04-18T08:41:19.000Z</time>
      </trkpt>
      <trkpt lat="43.68504" lon="-0.28077">
        <ele>226.78</ele>
        <time>2019-04-18T08:41:29.000Z</time>
      </trkpt>
      <trkpt lat="43.68492" lon="-0.28077">
        <ele>226.92</ele>
        <time>2019-04-18T08:41:39.000Z</time>
      </trkpt>
      <trkpt lat="43.68481" lon="-0.28076">
        <ele>227.02</ele>
        <time>2019-04-18T08:41:49.000Z</time>
      </trkpt>
      <trkpt lat="43.6847" lon="-0.28074">
        <ele>227.05</ele>
        <time>2019-04-18T08:41:59.000Z</time>
      </trkpt>
      <trkpt lat="43.68459" lon="-0.28075">
        <ele>227.16</ele>
        <time>2019-04-18T08:42:09.000Z</time>
      </trkpt>
      <trkpt lat="43.68453" lon="-0.28083">
        <ele>226.82</ele>
        <time>2019-04-18T08:42:19.000Z</time>
      </trkpt>
      <trkpt lat="43.68446" lon="-0.28094">
        <ele>227.58</ele>
        <time>2019-04-18T08:42:29.000Z</time>
      </trkpt>
      <trkpt lat="43.68438" lon="-0.28107">
        <ele>227.52</ele>
        <time>2019-04-18T08:42:39.000Z</time>
      </trkpt>
      <trkpt lat="43.68432" lon="-0.2812">
        <ele>226.89</ele>
        <time>2019-04-18T08:42:49.000Z</time>
      </trkpt>
      <trkpt lat="43.68425" lon="-0.28133">
        <ele>226.99</ele>
        <time>2019-04-18T08:42:59.000Z</time>
      </trkpt>
      <trkpt lat="43.68417" lon="-0.28144">
        <ele>226.35</ele>
        <time>2019-04-18T08:43:09.000Z</time>
      </trkpt>
      <trkpt lat="43.68409" lon="-0.28158">
        <ele>226.72</ele>
        <time>2019-04-18T08:43:19.000Z</time>
      </trkpt>
      <trkpt lat="43.68403" lon="-0.28171">
        <ele>226.66</ele>
        <time>2019-04-18T08:43:29.000Z</time>
      </trkpt>
      <trkpt lat="43.68398" lon="-0.28181">
        <ele>226.16</ele>
        <time>2019-04-18T08:43:39.000Z</time>
      </trkpt>
      <trkpt lat="43.68393" lon="-0.28198">
        <ele>225.84</ele>
        <time>2019-04-18T08:43:49.000Z</time>
      </trkpt>
      <trkpt lat="43.6839" lon="-0.28213">
        <ele>225.82</ele>
        <time>2019-04-18T08:43:59.000Z</time>
      </trkpt>
      <trkpt lat="43.68386" lon="-0.28224">
        <ele>225.61</ele>
        <time>2019-04-18T08:44:09.000Z</time>
      </trkpt>
      <trkpt lat="43.68381" lon="-0.28238">
        <ele>225.45</ele>
        <time>2019-04-18T08:44:19.000Z</time>
      </trkpt>
      <trkpt lat="43.68375" lon="-0.28253">
        <ele>225.35</ele>
        <time>2019-04-18T08:44:29.000Z</time>
      </trkpt>
      <trkpt lat="43.68369" lon="-0.28268">
        <ele>224.2</ele>
        <time>2019-04-18T08:44:39.000Z</time>
      </trkpt>
      <trkpt lat="43.68363" lon="-0.28281">
        <ele>223.78</ele>
        <time>2019-04-18T08:44:49.000Z</time>
      </trkpt>
      <trkpt lat="43.68355" lon="-0.28288">
        <ele>222.58</ele>
        <time>2019-04-18T08:44:59.000Z</time>
      </trkpt>
      <trkpt lat="43.68348" lon="-0.28297">
        <ele>221.39</ele>
        <time>2019-04-18T08:45:09.000Z</time>
      </trkpt>
      <trkpt lat="43.68338" lon="-0.28305">
        <ele>220.18</ele>
        <time>2019-04-18T08:45:19.000Z</time>
      </trkpt>
      <trkpt lat="43.68327" lon="-0.28311">
        <ele>219.43</ele>
        <time>2019-04-18T08:45:29.000Z</time>
      </trkpt>
      <trkpt lat="43.68317" lon="-0.28318">
        <ele>218.45</ele>
        <time>2019-04-18T08:45:39.000Z</time>
      </trkpt>
      <trkpt lat="43.68309" lon="-0.28324">
        <ele>217.29</ele>
        <time>2019-04-18T08:45:49.000Z</time>
      </trkpt>
      <trkpt lat="43.683" lon="-0.28329">
        <ele>216.03</ele>
        <time>2019-04-18T08:45:59.000Z</time>
      </trkpt>
      <trkpt lat="43.68291" lon="-0.28335">
        <ele>214.95</ele>
        <time>2019-04-18T08:46:09.000Z</time>
      </trkpt>
      <trkpt lat="43.68282" lon="-0.28341">
        <ele>213.79</ele>
        <time>2019-04-18T08:46:19.000Z</time>
      </trkpt>
      <trkpt lat="43.68275" lon="-0.28347">
        <ele>212.67</ele>
        <time>2019-04-18T08:46:29.000Z</time>
      </trkpt>
      <trkpt lat="43.68266" lon="-0.28352">
        <ele>211.73</ele>
        <time>2019-04-18T08:46:39.000Z</time>
      </trkpt>
      <trkpt lat="43.68254" lon="-0.28356">
        <ele>210.93</ele>
        <time>2019-04-18T08:46:49.000Z</time>
      </trkpt>
      <trkpt lat="43.68243" lon="-0.28359">
        <ele>209.83</ele>
        <time>2019-04-18T08:46:59.000Z</time>
      </trkpt>
      <trkpt lat="43.68231" lon="-0.28363">
        <ele>208.61</ele>
        <time>2019-04-18T08:47:09.000Z</time>
      </trkpt>
      <trkpt lat="43.6822" lon="-0.28369">
        <ele>207.53</ele>
        <time>2019-04-18T08:47:19.000Z</time>
      </trkpt>
      <trkpt lat="43.68211" lon="-0.28377">
        <ele>206.54</ele>
        <time>2019-04-18T08:47:29.000Z</time>
      </trkpt>
      <trkpt lat="43.68203" lon="-0.28386">
        <ele>205.41</ele>
        <time>2019-04-18T08:47:39.000Z</time>
      </trkpt>
      <trkpt lat="43.68195" lon="-0.28394">
        <ele>203.82</ele>
        <time>2019-04-18T08:47:49.000Z</time>
      </trkpt>
      <trkpt lat="43.68186" lon="-0.28402">
        <ele>203.29</ele>
        <time>2019-04-18T08:47:59.000Z</time>
      </trkpt>
      <trkpt lat="43.68177" lon="-0.28411">
        <ele>202.33</ele>
        <time>2019-04-18T08:48:09.000Z</time>
      </trkpt>
      <trkpt lat="43.68167" lon="-0.28416">
        <ele>200.89</ele>
        <time>2019-04-18T08:48:19.000Z</time>
      </trkpt>
      <trkpt lat="43.68156" lon="-0.2842">
        <ele>199.47</ele>
        <time>2019-04-18T08:48:29.000Z</time>
      </trkpt>
      <trkpt lat="43.68145" lon="-0.28423">
        <ele>198.51</ele>
        <time>2019-04-18T08:48:39.000Z</time>
      </trkpt>
      <trkpt lat="43.68134" lon="-0.28424">
        <ele>197.72</ele>
        <time>2019-04-18T08:48:49.000Z</time>
      </trkpt>
      <trkpt lat="43.68122" lon="-0.28428">
        <ele>196.6</ele>
        <time>2019-04-18T08:48:59.000Z</time>
      </trkpt>
      <trkpt lat="43.68112" lon="-0.28428">
        <ele>195.47</ele>
        <time>2019-04-18T08:49:09.000Z</time>
      </trkpt>
      <trkpt lat="43.68104" lon="-0.28429">
        <ele>194.43</ele>
        <time>2019-04-18T08:49:19.000Z</time>
      </trkpt>
      <trkpt lat="43.68092" lon="-0.2843">
        <ele>193.18</ele>
        <time>2019-04-18T08:49:29.000Z</time>
      </trkpt>
      <trkpt lat="43.68082" lon="-0.28435">
        <ele>191.58</ele>
        <time>2019-04-18T08:49:39.000Z</time>
      </trkpt>
      <trkpt lat="43.68072" lon="-0.28438">
        <ele>190.24</ele>
        <time>2019-04-18T08:49:49.000Z</time>
      </trkpt>
      <trkpt lat="43.68063" lon="-0.28441">
        <ele>189.33</ele>
        <time>2019-04-18T08:49:59.000Z</time>
      </trkpt>
      <trkpt lat="43.68064" lon="-0.2844">
        <ele>187.77</ele>
        <time>2019-04-18T08:50:11.000Z</time>
      </trkpt>
      <trkpt lat="43.68066" lon="-0.28441">
        <ele>187.27</ele>
        <time>2019-04-18T08:50:21.000Z</time>
      </trkpt>
      <trkpt lat="43.68065" lon="-0.28441">
        <ele>186.57</ele>
        <time>2019-04-18T08:51:00.000Z</time>
      </trkpt>
      <trkpt lat="43.68055" lon="-0.28442">
        <ele>187.12</ele>
        <time>2019-04-18T08:51:10.000Z</time>
      </trkpt>
      <trkpt lat="43.68046" lon="-0.28442">
        <ele>186.4</ele>
        <time>2019-04-18T08:51:20.000Z</time>
      </trkpt>
      <trkpt lat="43.6804" lon="-0.28444">
        <ele>185.38</ele>
        <time>2019-04-18T08:51:30.000Z</time>
      </trkpt>
      <trkpt lat="43.6804" lon="-0.28443">
        <ele>184.91</ele>
        <time>2019-04-18T08:52:01.000Z</time>
      </trkpt>
      <trkpt lat="43.68036" lon="-0.28432">
        <ele>184.98</ele>
        <time>2019-04-18T08:52:11.000Z</time>
      </trkpt>
      <trkpt lat="43.68028" lon="-0.2843">
        <ele>185.46</ele>
        <time>2019-04-18T08:52:21.000Z</time>
      </trkpt>
      <trkpt lat="43.68019" lon="-0.28424">
        <ele>185.54</ele>
        <time>2019-04-18T08:52:31.000Z</time>
      </trkpt>
      <trkpt lat="43.6801" lon="-0.28419">
        <ele>185.36</ele>
        <time>2019-04-18T08:52:41.000Z</time>
      </trkpt>
      <trkpt lat="43.67999" lon="-0.28415">
        <ele>185.41</ele>
        <time>2019-04-18T08:52:51.000Z</time>
      </trkpt>
      <trkpt lat="43.67988" lon="-0.28412">
        <ele>185.26</ele>
        <time>2019-04-18T08:53:01.000Z</time>
      </trkpt>
      <trkpt lat="43.67978" lon="-0.28407">
        <ele>185.2</ele>
        <time>2019-04-18T08:53:11.000Z</time>
      </trkpt>
      <trkpt lat="43.67967" lon="-0.28404">
        <ele>184.77</ele>
        <time>2019-04-18T08:53:21.000Z</time>
      </trkpt>
      <trkpt lat="43.67957" lon="-0.284">
        <ele>184.68</ele>
        <time>2019-04-18T08:53:31.000Z</time>
      </trkpt>
      <trkpt lat="43.67947" lon="-0.284">
        <ele>185.43</ele>
        <time>2019-04-18T08:53:41.000Z</time>
      </trkpt>
      <trkpt lat="43.67936" lon="-0.28397">
        <ele>186.12</ele>
        <time>2019-04-18T08:53:51.000Z</time>
      </trkpt>
      <trkpt lat="43.67927" lon="-0.28396">
        <ele>187.45</ele>
        <time>2019-04-18T08:54:01.000Z</time>
      </trkpt>
      <trkpt lat="43.67918" lon="-0.28391">
        <ele>187.59</ele>
        <time>2019-04-18T08:54:11.000Z</time>
      </trkpt>
      <trkpt lat="43.67911" lon="-0.28389">
        <ele>187.87</ele>
        <time>2019-04-18T08:54:21.000Z</time>
      </trkpt>
      <trkpt lat="43.67904" lon="-0.28393">
        <ele>187.7</ele>
        <time>2019-04-18T08:54:31.000Z</time>
      </trkpt>
      <trkpt lat="43.67895" lon="-0.28401">
        <ele>187.56</ele>
        <time>2019-04-18T08:54:41.000Z</time>
      </trkpt>
      <trkpt lat="43.67889" lon="-0.28409">
        <ele>186.37</ele>
        <time>2019-04-18T08:54:51.000Z</time>
      </trkpt>
      <trkpt lat="43.67883" lon="-0.28418">
        <ele>185.39</ele>
        <time>2019-04-18T08:55:01.000Z</time>
      </trkpt>
      <trkpt lat="43.67871" lon="-0.28426">
        <ele>185.09</ele>
        <time>2019-04-18T08:55:11.000Z</time>
      </trkpt>
      <trkpt lat="43.67863" lon="-0.28433">
        <ele>185.6</ele>
        <time>2019-04-18T08:55:21.000Z</time>
      </trkpt>
      <trkpt lat="43.67853" lon="-0.28438">
        <ele>186.19</ele>
        <time>2019-04-18T08:55:31.000Z</time>
      </trkpt>
      <trkpt lat="43.67846" lon="-0.28437">
        <ele>185.72</ele>
        <time>2019-04-18T08:55:41.000Z</time>
      </trkpt>
      <trkpt lat="43.67839" lon="-0.28436">
        <ele>185.79</ele>
        <time>2019-04-18T08:55:51.000Z</time>
      </trkpt>
      <trkpt lat="43.6783" lon="-0.28429">
        <ele>185.43</ele>
        <time>2019-04-18T08:56:01.000Z</time>
      </trkpt>
      <trkpt lat="43.67825" lon="-0.28427">
        <ele>185.34</ele>
        <time>2019-04-18T08:56:11.000Z</time>
      </trkpt>
      <trkpt lat="43.67826" lon="-0.28425">
        <ele>185.22</ele>
        <time>2019-04-18T08:56:21.000Z</time>
      </trkpt>
      <trkpt lat="43.67825" lon="-0.28426">
        <ele>185.65</ele>
        <time>2019-04-18T08:56:36.000Z</time>
      </trkpt>
      <trkpt lat="43.67824" lon="-0.28427">
        <ele>185.21</ele>
        <time>2019-04-18T08:57:59.000Z</time>
      </trkpt>
      <trkpt lat="43.67823" lon="-0.28427">
        <ele>184.08</ele>
        <time>2019-04-18T08:58:41.000Z</time>
      </trkpt>
      <trkpt lat="43.67823" lon="-0.28426">
        <ele>183.96</ele>
        <time>2019-04-18T08:58:54.000Z</time>
      </trkpt>
      <trkpt lat="43.67823" lon="-0.28428">
        <ele>183.14</ele>
        <time>2019-04-18T08:59:21.000Z</time>
      </trkpt>
      <trkpt lat="43.67819" lon="-0.28429">
        <ele>182.52</ele>
        <time>2019-04-18T08:59:31.000Z</time>
      </trkpt>
      <trkpt lat="43.67817" lon="-0.28419">
        <ele>182.6</ele>
        <time>2019-04-18T09:00:14.000Z</time>
      </trkpt>
      <trkpt lat="43.67821" lon="-0.28417">
        <ele>182.28</ele>
        <time>2019-04-18T09:00:25.000Z</time>
      </trkpt>
      <trkpt lat="43.6782" lon="-0.28421">
        <ele>182.48</ele>
        <time>2019-04-18T09:00:35.000Z</time>
      </trkpt>
      <trkpt lat="43.67818" lon="-0.28424">
        <ele>182.19</ele>
        <time>2019-04-18T09:00:45.000Z</time>
      </trkpt>
      <trkpt lat="43.67825" lon="-0.28424">
        <ele>182.44</ele>
        <time>2019-04-18T09:02:13.000Z</time>
      </trkpt>
      <trkpt lat="43.67823" lon="-0.28422">
        <ele>182.43</ele>
        <time>2019-04-18T09:02:23.000Z</time>
      </trkpt>
      <trkpt lat="43.67824" lon="-0.28424">
        <ele>181.89</ele>
        <time>2019-04-18T09:06:54.000Z</time>
      </trkpt>
      <trkpt lat="43.67826" lon="-0.28425">
        <ele>181.97</ele>
        <time>2019-04-18T09:07:20.000Z</time>
      </trkpt>
      <trkpt lat="43.67825" lon="-0.28427">
        <ele>181.76</ele>
        <time>2019-04-18T09:07:38.000Z</time>
      </trkpt>
      <trkpt lat="43.67827" lon="-0.28426">
        <ele>181.5</ele>
        <time>2019-04-18T09:07:48.000Z</time>
      </trkpt>
      <trkpt lat="43.67826" lon="-0.28425">
        <ele>181.65</ele>
        <time>2019-04-18T09:08:00.000Z</time>
      </trkpt>
      <trkpt lat="43.67826" lon="-0.28427">
        <ele>181.57</ele>
        <time>2019-04-18T09:08:10.000Z</time>
      </trkpt>
      <trkpt lat="43.67824" lon="-0.28427">
        <ele>181.45</ele>
        <time>2019-04-18T09:08:35.000Z</time>
      </trkpt>
      <trkpt lat="43.67824" lon="-0.28429">
        <ele>181.13</ele>
        <time>2019-04-18T09:08:57.000Z</time>
      </trkpt>
      <trkpt lat="43.67824" lon="-0.28432">
        <ele>180.99</ele>
        <time>2019-04-18T09:09:14.000Z</time>
      </trkpt>
      <trkpt lat="43.67823" lon="-0.28423">
        <ele>181.02</ele>
        <time>2019-04-18T09:09:24.000Z</time>
      </trkpt>
      <trkpt lat="43.67819" lon="-0.28423">
        <ele>181.04</ele>
        <time>2019-04-18T09:09:34.000Z</time>
      </trkpt>
      <trkpt lat="43.67821" lon="-0.28419">
        <ele>181.01</ele>
        <time>2019-04-18T09:09:44.000Z</time>
      </trkpt>
      <trkpt lat="43.6782" lon="-0.2842">
        <ele>180.91</ele>
        <time>2019-04-18T09:10:49.000Z</time>
      </trkpt>
      <trkpt lat="43.67818" lon="-0.28421">
        <ele>180.94</ele>
        <time>2019-04-18T09:10:59.000Z</time>
      </trkpt>
      <trkpt lat="43.6782" lon="-0.28421">
        <ele>181.58</ele>
        <time>2019-04-18T09:11:34.000Z</time>
      </trkpt>
      <trkpt lat="43.67818" lon="-0.28417">
        <ele>181.63</ele>
        <time>2019-04-18T09:11:44.000Z</time>
      </trkpt>
      <trkpt lat="43.67811" lon="-0.28407">
        <ele>181</ele>
        <time>2019-04-18T09:11:54.000Z</time>
      </trkpt>
      <trkpt lat="43.67802" lon="-0.284">
        <ele>180.51</ele>
        <time>2019-04-18T09:12:04.000Z</time>
      </trkpt>
      <trkpt lat="43.67793" lon="-0.28395">
        <ele>180.31</ele>
        <time>2019-04-18T09:12:14.000Z</time>
      </trkpt>
      <trkpt lat="43.67786" lon="-0.28392">
        <ele>180.11</ele>
        <time>2019-04-18T09:12:24.000Z</time>
      </trkpt>
      <trkpt lat="43.67776" lon="-0.28387">
        <ele>179.8</ele>
        <time>2019-04-18T09:12:34.000Z</time>
      </trkpt>
      <trkpt lat="43.67768" lon="-0.28385">
        <ele>179.95</ele>
        <time>2019-04-18T09:12:44.000Z</time>
      </trkpt>
      <trkpt lat="43.67759" lon="-0.28382">
        <ele>180.47</ele>
        <time>2019-04-18T09:12:54.000Z</time>
      </trkpt>
      <trkpt lat="43.67748" lon="-0.28375">
        <ele>180.97</ele>
        <time>2019-04-18T09:13:04.000Z</time>
      </trkpt>
      <trkpt lat="43.67739" lon="-0.28366">
        <ele>181.13</ele>
        <time>2019-04-18T09:13:14.000Z</time>
      </trkpt>
      <trkpt lat="43.67731" lon="-0.28355">
        <ele>181.6</ele>
        <time>2019-04-18T09:13:24.000Z</time>
      </trkpt>
      <trkpt lat="43.67723" lon="-0.28352">
        <ele>182</ele>
        <time>2019-04-18T09:13:34.000Z</time>
      </trkpt>
      <trkpt lat="43.67716" lon="-0.28352">
        <ele>180.67</ele>
        <time>2019-04-18T09:13:44.000Z</time>
      </trkpt>
      <trkpt lat="43.67707" lon="-0.28355">
        <ele>180.28</ele>
        <time>2019-04-18T09:13:54.000Z</time>
      </trkpt>
      <trkpt lat="43.67695" lon="-0.2835">
        <ele>180.89</ele>
        <time>2019-04-18T09:14:04.000Z</time>
      </trkpt>
      <trkpt lat="43.67684" lon="-0.28347">
        <ele>182.37</ele>
        <time>2019-04-18T09:14:14.000Z</time>
      </trkpt>
      <trkpt lat="43.67678" lon="-0.28341">
        <ele>183.89</ele>
        <time>2019-04-18T09:14:24.000Z</time>
      </trkpt>
      <trkpt lat="43.67668" lon="-0.28338">
        <ele>184.19</ele>
        <time>2019-04-18T09:14:34.000Z</time>
      </trkpt>
      <trkpt lat="43.67659" lon="-0.28326">
        <ele>185.39</ele>
        <time>2019-04-18T09:14:44.000Z</time>
      </trkpt>
      <trkpt lat="43.67652" lon="-0.2832">
        <ele>186.33</ele>
        <time>2019-04-18T09:14:54.000Z</time>
      </trkpt>
      <trkpt lat="43.67644" lon="-0.28313">
        <ele>186.89</ele>
        <time>2019-04-18T09:15:04.000Z</time>
      </trkpt>
      <trkpt lat="43.67638" lon="-0.28304">
        <ele>188.12</ele>
        <time>2019-04-18T09:15:14.000Z</time>
      </trkpt>
      <trkpt lat="43.67635" lon="-0.28296">
        <ele>189.82</ele>
        <time>2019-04-18T09:15:24.000Z</time>
      </trkpt>
      <trkpt lat="43.67628" lon="-0.28291">
        <ele>189.91</ele>
        <time>2019-04-18T09:15:34.000Z</time>
      </trkpt>
      <trkpt lat="43.67619" lon="-0.28291">
        <ele>190.28</ele>
        <time>2019-04-18T09:15:44.000Z</time>
      </trkpt>
      <trkpt lat="43.67613" lon="-0.28291">
        <ele>190.12</ele>
        <time>2019-04-18T09:15:54.000Z</time>
      </trkpt>
      <trkpt lat="43.67605" lon="-0.28293">
        <ele>188.59</ele>
        <time>2019-04-18T09:16:04.000Z</time>
      </trkpt>
      <trkpt lat="43.67593" lon="-0.28298">
        <ele>186.7</ele>
        <time>2019-04-18T09:16:14.000Z</time>
      </trkpt>
      <trkpt lat="43.67582" lon="-0.28297">
        <ele>186.24</ele>
        <time>2019-04-18T09:16:24.000Z</time>
      </trkpt>
      <trkpt lat="43.6757" lon="-0.28296">
        <ele>186.24</ele>
        <time>2019-04-18T09:16:34.000Z</time>
      </trkpt>
      <trkpt lat="43.6756" lon="-0.28302">
        <ele>185.16</ele>
        <time>2019-04-18T09:16:44.000Z</time>
      </trkpt>
      <trkpt lat="43.67552" lon="-0.28302">
        <ele>183.6</ele>
        <time>2019-04-18T09:16:54.000Z</time>
      </trkpt>
      <trkpt lat="43.67539" lon="-0.28306">
        <ele>182.97</ele>
        <time>2019-04-18T09:17:04.000Z</time>
      </trkpt>
      <trkpt lat="43.67528" lon="-0.28306">
        <ele>182.14</ele>
        <time>2019-04-18T09:17:14.000Z</time>
      </trkpt>
      <trkpt lat="43.67516" lon="-0.28304">
        <ele>181.26</ele>
        <time>2019-04-18T09:17:24.000Z</time>
      </trkpt>
      <trkpt lat="43.67505" lon="-0.28301">
        <ele>180.38</ele>
        <time>2019-04-18T09:17:34.000Z</time>
      </trkpt>
      <trkpt lat="43.67497" lon="-0.28294">
        <ele>181.48</ele>
        <time>2019-04-18T09:17:44.000Z</time>
      </trkpt>
      <trkpt lat="43.67488" lon="-0.2829">
        <ele>182.73</ele>
        <time>2019-04-18T09:17:54.000Z</time>
      </trkpt>
      <trkpt lat="43.67479" lon="-0.28282">
        <ele>184.17</ele>
        <time>2019-04-18T09:18:04.000Z</time>
      </trkpt>
      <trkpt lat="43.67472" lon="-0.28279">
        <ele>184.69</ele>
        <time>2019-04-18T09:18:14.000Z</time>
      </trkpt>
      <trkpt lat="43.67467" lon="-0.2828">
        <ele>183.13</ele>
        <time>2019-04-18T09:18:24.000Z</time>
      </trkpt>
      <trkpt lat="43.67461" lon="-0.28281">
        <ele>181.81</ele>
        <time>2019-04-18T09:18:34.000Z</time>
      </trkpt>
      <trkpt lat="43.67448" lon="-0.28281">
        <ele>180.66</ele>
        <time>2019-04-18T09:18:44.000Z</time>
      </trkpt>
      <trkpt lat="43.6744" lon="-0.28287">
        <ele>180.85</ele>
        <time>2019-04-18T09:18:54.000Z</time>
      </trkpt>
      <trkpt lat="43.67431" lon="-0.2829">
        <ele>181.68</ele>
        <time>2019-04-18T09:19:04.000Z</time>
      </trkpt>
      <trkpt lat="43.67427" lon="-0.28288">
        <ele>181.3</ele>
        <time>2019-04-18T09:19:14.000Z</time>
      </trkpt>
      <trkpt lat="43.67428" lon="-0.28284">
        <ele>181.71</ele>
        <time>2019-04-18T09:19:24.000Z</time>
      </trkpt>
      <trkpt lat="43.67416" lon="-0.28286">
        <ele>181.77</ele>
        <time>2019-04-18T09:19:34.000Z</time>
      </trkpt>
      <trkpt lat="43.67403" lon="-0.28281">
        <ele>181.78</ele>
        <time>2019-04-18T09:19:44.000Z</time>
      </trkpt>
      <trkpt lat="43.6739" lon="-0.28279">
        <ele>181.64</ele>
        <time>2019-04-18T09:19:54.000Z</time>
      </trkpt>
      <trkpt lat="43.67376" lon="-0.28279">
        <ele>181.14</ele>
        <time>2019-04-18T09:20:04.000Z</time>
      </trkpt>
      <trkpt lat="43.67368" lon="-0.28278">
        <ele>180.64</ele>
        <time>2019-04-18T09:20:14.000Z</time>
      </trkpt>
      <trkpt lat="43.67357" lon="-0.2828">
        <ele>180.18</ele>
        <time>2019-04-18T09:20:24.000Z</time>
      </trkpt>
      <trkpt lat="43.67346" lon="-0.28281">
        <ele>180.62</ele>
        <time>2019-04-18T09:20:34.000Z</time>
      </trkpt>
      <trkpt lat="43.67337" lon="-0.28281">
        <ele>182.06</ele>
        <time>2019-04-18T09:20:44.000Z</time>
      </trkpt>
      <trkpt lat="43.67325" lon="-0.2828">
        <ele>183.36</ele>
        <time>2019-04-18T09:20:54.000Z</time>
      </trkpt>
      <trkpt lat="43.67316" lon="-0.28279">
        <ele>183.93</ele>
        <time>2019-04-18T09:21:04.000Z</time>
      </trkpt>
      <trkpt lat="43.67304" lon="-0.28278">
        <ele>183.58</ele>
        <time>2019-04-18T09:21:14.000Z</time>
      </trkpt>
      <trkpt lat="43.67291" lon="-0.28275">
        <ele>183.59</ele>
        <time>2019-04-18T09:21:24.000Z</time>
      </trkpt>
      <trkpt lat="43.67279" lon="-0.28273">
        <ele>183.03</ele>
        <time>2019-04-18T09:21:34.000Z</time>
      </trkpt>
      <trkpt lat="43.67266" lon="-0.28269">
        <ele>182.67</ele>
        <time>2019-04-18T09:21:44.000Z</time>
      </trkpt>
      <trkpt lat="43.67256" lon="-0.28269">
        <ele>182.81</ele>
        <time>2019-04-18T09:21:54.000Z</time>
      </trkpt>
      <trkpt lat="43.67246" lon="-0.28266">
        <ele>183.04</ele>
        <time>2019-04-18T09:22:04.000Z</time>
      </trkpt>
      <trkpt lat="43.67236" lon="-0.28263">
        <ele>182.98</ele>
        <time>2019-04-18T09:22:14.000Z</time>
      </trkpt>
      <trkpt lat="43.67224" lon="-0.28261">
        <ele>182.62</ele>
        <time>2019-04-18T09:22:24.000Z</time>
      </trkpt>
      <trkpt lat="43.67212" lon="-0.28259">
        <ele>181.91</ele>
        <time>2019-04-18T09:22:34.000Z</time>
      </trkpt>
      <trkpt lat="43.67201" lon="-0.28257">
        <ele>181.26</ele>
        <time>2019-04-18T09:22:44.000Z</time>
      </trkpt>
      <trkpt lat="43.67189" lon="-0.28256">
        <ele>180.24</ele>
        <time>2019-04-18T09:22:54.000Z</time>
      </trkpt>
      <trkpt lat="43.67178" lon="-0.28254">
        <ele>179.86</ele>
        <time>2019-04-18T09:23:04.000Z</time>
      </trkpt>
      <trkpt lat="43.67169" lon="-0.28252">
        <ele>179</ele>
        <time>2019-04-18T09:23:14.000Z</time>
      </trkpt>
      <trkpt lat="43.67159" lon="-0.28252">
        <ele>178.9</ele>
        <time>2019-04-18T09:23:24.000Z</time>
      </trkpt>
      <trkpt lat="43.67148" lon="-0.28254">
        <ele>179.17</ele>
        <time>2019-04-18T09:23:34.000Z</time>
      </trkpt>
      <trkpt lat="43.67138" lon="-0.28255">
        <ele>179.12</ele>
        <time>2019-04-18T09:23:44.000Z</time>
      </trkpt>
      <trkpt lat="43.67126" lon="-0.2826">
        <ele>179</ele>
        <time>2019-04-18T09:23:54.000Z</time>
      </trkpt>
      <trkpt lat="43.67114" lon="-0.28258">
        <ele>179.11</ele>
        <time>2019-04-18T09:24:04.000Z</time>
      </trkpt>
      <trkpt lat="43.67102" lon="-0.28262">
        <ele>178.72</ele>
        <time>2019-04-18T09:24:14.000Z</time>
      </trkpt>
      <trkpt lat="43.67088" lon="-0.28262">
        <ele>178.54</ele>
        <time>2019-04-18T09:24:24.000Z</time>
      </trkpt>
      <trkpt lat="43.67085" lon="-0.28258">
        <ele>179.09</ele>
        <time>2019-04-18T09:24:34.000Z</time>
      </trkpt>
      <trkpt lat="43.67082" lon="-0.28266">
        <ele>179.63</ele>
        <time>2019-04-18T09:24:44.000Z</time>
      </trkpt>
      <trkpt lat="43.67081" lon="-0.28278">
        <ele>179.16</ele>
        <time>2019-04-18T09:24:54.000Z</time>
      </trkpt>
      <trkpt lat="43.67074" lon="-0.28289">
        <ele>179.09</ele>
        <time>2019-04-18T09:25:04.000Z</time>
      </trkpt>
      <trkpt lat="43.67075" lon="-0.28303">
        <ele>179.32</ele>
        <time>2019-04-18T09:25:14.000Z</time>
      </trkpt>
      <trkpt lat="43.67079" lon="-0.2832">
        <ele>179.19</ele>
        <time>2019-04-18T09:25:24.000Z</time>
      </trkpt>
      <trkpt lat="43.6707" lon="-0.28338">
        <ele>179.09</ele>
        <time>2019-04-18T09:25:34.000Z</time>
      </trkpt>
      <trkpt lat="43.67062" lon="-0.2835">
        <ele>178.86</ele>
        <time>2019-04-18T09:25:44.000Z</time>
      </trkpt>
      <trkpt lat="43.67049" lon="-0.28358">
        <ele>179.28</ele>
        <time>2019-04-18T09:25:54.000Z</time>
      </trkpt>
      <trkpt lat="43.67037" lon="-0.28365">
        <ele>179.46</ele>
        <time>2019-04-18T09:26:04.000Z</time>
      </trkpt>
      <trkpt lat="43.67028" lon="-0.28372">
        <ele>179.17</ele>
        <time>2019-04-18T09:26:14.000Z</time>
      </trkpt>
      <trkpt lat="43.6702" lon="-0.28381">
        <ele>178.96</ele>
        <time>2019-04-18T09:26:24.000Z</time>
      </trkpt>
      <trkpt lat="43.67012" lon="-0.28391">
        <ele>179.16</ele>
        <time>2019-04-18T09:26:34.000Z</time>
      </trkpt>
      <trkpt lat="43.67006" lon="-0.28403">
        <ele>179.18</ele>
        <time>2019-04-18T09:26:44.000Z</time>
      </trkpt>
      <trkpt lat="43.67003" lon="-0.28418">
        <ele>180.11</ele>
        <time>2019-04-18T09:26:54.000Z</time>
      </trkpt>
      <trkpt lat="43.66998" lon="-0.2843">
        <ele>180.09</ele>
        <time>2019-04-18T09:27:04.000Z</time>
      </trkpt>
      <trkpt lat="43.66992" lon="-0.28446">
        <ele>180.79</ele>
        <time>2019-04-18T09:27:14.000Z</time>
      </trkpt>
      <trkpt lat="43.66983" lon="-0.2845">
        <ele>181.21</ele>
        <time>2019-04-18T09:27:24.000Z</time>
      </trkpt>
      <trkpt lat="43.66972" lon="-0.2845">
        <ele>180.5</ele>
        <time>2019-04-18T09:27:34.000Z</time>
      </trkpt>
      <trkpt lat="43.66965" lon="-0.28457">
        <ele>180.15</ele>
        <time>2019-04-18T09:27:44.000Z</time>
      </trkpt>
      <trkpt lat="43.66955" lon="-0.28467">
        <ele>180.29</ele>
        <time>2019-04-18T09:27:54.000Z</time>
      </trkpt>
      <trkpt lat="43.66948" lon="-0.28478">
        <ele>180.54</ele>
        <time>2019-04-18T09:28:04.000Z</time>
      </trkpt>
      <trkpt lat="43.66941" lon="-0.28488">
        <ele>180.9</ele>
        <time>2019-04-18T09:28:14.000Z</time>
      </trkpt>
      <trkpt lat="43.66937" lon="-0.28494">
        <ele>180.25</ele>
        <time>2019-04-18T09:28:24.000Z</time>
      </trkpt>
      <trkpt lat="43.66929" lon="-0.28499">
        <ele>180.29</ele>
        <time>2019-04-18T09:28:34.000Z</time>
      </trkpt>
      <trkpt lat="43.66923" lon="-0.28512">
        <ele>180.52</ele>
        <time>2019-04-18T09:28:44.000Z</time>
      </trkpt>
      <trkpt lat="43.66911" lon="-0.28515">
        <ele>181.03</ele>
        <time>2019-04-18T09:28:54.000Z</time>
      </trkpt>
      <trkpt lat="43.66897" lon="-0.2855">
        <ele>181.13</ele>
        <time>2019-04-18T09:29:04.000Z</time>
      </trkpt>
      <trkpt lat="43.66891" lon="-0.2856">
        <ele>181.49</ele>
        <time>2019-04-18T09:29:14.000Z</time>
      </trkpt>
      <trkpt lat="43.66885" lon="-0.28573">
        <ele>181.99</ele>
        <time>2019-04-18T09:29:24.000Z</time>
      </trkpt>
      <trkpt lat="43.66883" lon="-0.28584">
        <ele>182.46</ele>
        <time>2019-04-18T09:29:34.000Z</time>
      </trkpt>
      <trkpt lat="43.66887" lon="-0.28588">
        <ele>183.53</ele>
        <time>2019-04-18T09:29:44.000Z</time>
      </trkpt>
      <trkpt lat="43.66887" lon="-0.28617">
        <ele>184.44</ele>
        <time>2019-04-18T09:29:54.000Z</time>
      </trkpt>
      <trkpt lat="43.6686" lon="-0.28623">
        <ele>185.34</ele>
        <time>2019-04-18T09:30:04.000Z</time>
      </trkpt>
      <trkpt lat="43.6685" lon="-0.28627">
        <ele>186.29</ele>
        <time>2019-04-18T09:30:14.000Z</time>
      </trkpt>
      <trkpt lat="43.66847" lon="-0.28637">
        <ele>187.74</ele>
        <time>2019-04-18T09:30:24.000Z</time>
      </trkpt>
      <trkpt lat="43.66849" lon="-0.28649">
        <ele>188.17</ele>
        <time>2019-04-18T09:30:34.000Z</time>
      </trkpt>
      <trkpt lat="43.66859" lon="-0.28657">
        <ele>188.8</ele>
        <time>2019-04-18T09:30:44.000Z</time>
      </trkpt>
      <trkpt lat="43.66868" lon="-0.28663">
        <ele>189.19</ele>
        <time>2019-04-18T09:30:54.000Z</time>
      </trkpt>
      <trkpt lat="43.66878" lon="-0.28668">
        <ele>188.71</ele>
        <time>2019-04-18T09:31:04.000Z</time>
      </trkpt>
      <trkpt lat="43.6688" lon="-0.28669">
        <ele>189.55</ele>
        <time>2019-04-18T09:31:25.000Z</time>
      </trkpt>
      <trkpt lat="43.66887" lon="-0.28674">
        <ele>188.63</ele>
        <time>2019-04-18T09:31:35.000Z</time>
      </trkpt>
      <trkpt lat="43.66896" lon="-0.28682">
        <ele>189.14</ele>
        <time>2019-04-18T09:31:45.000Z</time>
      </trkpt>
      <trkpt lat="43.66905" lon="-0.28691">
        <ele>188.96</ele>
        <time>2019-04-18T09:31:55.000Z</time>
      </trkpt>
      <trkpt lat="43.66916" lon="-0.28699">
        <ele>188.61</ele>
        <time>2019-04-18T09:32:05.000Z</time>
      </trkpt>
      <trkpt lat="43.66926" lon="-0.28706">
        <ele>188.63</ele>
        <time>2019-04-18T09:32:15.000Z</time>
      </trkpt>
      <trkpt lat="43.66936" lon="-0.28713">
        <ele>189.72</ele>
        <time>2019-04-18T09:32:25.000Z</time>
      </trkpt>
      <trkpt lat="43.66945" lon="-0.28719">
        <ele>190.82</ele>
        <time>2019-04-18T09:32:35.000Z</time>
      </trkpt>
      <trkpt lat="43.66954" lon="-0.28725">
        <ele>192.44</ele>
        <time>2019-04-18T09:32:45.000Z</time>
      </trkpt>
      <trkpt lat="43.66962" lon="-0.28729">
        <ele>193.44</ele>
        <time>2019-04-18T09:32:55.000Z</time>
      </trkpt>
      <trkpt lat="43.66972" lon="-0.28731">
        <ele>194.06</ele>
        <time>2019-04-18T09:33:05.000Z</time>
      </trkpt>
      <trkpt lat="43.66982" lon="-0.28734">
        <ele>194.63</ele>
        <time>2019-04-18T09:33:15.000Z</time>
      </trkpt>
      <trkpt lat="43.66991" lon="-0.28741">
        <ele>195.47</ele>
        <time>2019-04-18T09:33:25.000Z</time>
      </trkpt>
      <trkpt lat="43.66999" lon="-0.28747">
        <ele>196.69</ele>
        <time>2019-04-18T09:33:35.000Z</time>
      </trkpt>
      <trkpt lat="43.67007" lon="-0.28753">
        <ele>197.36</ele>
        <time>2019-04-18T09:33:45.000Z</time>
      </trkpt>
      <trkpt lat="43.67015" lon="-0.28756">
        <ele>198.96</ele>
        <time>2019-04-18T09:33:55.000Z</time>
      </trkpt>
      <trkpt lat="43.67024" lon="-0.28764">
        <ele>199.77</ele>
        <time>2019-04-18T09:34:05.000Z</time>
      </trkpt>
      <trkpt lat="43.67031" lon="-0.28772">
        <ele>200.81</ele>
        <time>2019-04-18T09:34:15.000Z</time>
      </trkpt>
      <trkpt lat="43.67036" lon="-0.28779">
        <ele>201.89</ele>
        <time>2019-04-18T09:34:25.000Z</time>
      </trkpt>
      <trkpt lat="43.67044" lon="-0.28786">
        <ele>202.9</ele>
        <time>2019-04-18T09:34:35.000Z</time>
      </trkpt>
      <trkpt lat="43.67051" lon="-0.28794">
        <ele>203.94</ele>
        <time>2019-04-18T09:34:45.000Z</time>
      </trkpt>
      <trkpt lat="43.67057" lon="-0.28802">
        <ele>204.47</ele>
        <time>2019-04-18T09:34:55.000Z</time>
      </trkpt>
      <trkpt lat="43.67065" lon="-0.28811">
        <ele>205.81</ele>
        <time>2019-04-18T09:35:05.000Z</time>
      </trkpt>
      <trkpt lat="43.67069" lon="-0.28822">
        <ele>207.26</ele>
        <time>2019-04-18T09:35:15.000Z</time>
      </trkpt>
      <trkpt lat="43.67072" lon="-0.2883">
        <ele>208.44</ele>
        <time>2019-04-18T09:35:25.000Z</time>
      </trkpt>
      <trkpt lat="43.67075" lon="-0.28844">
        <ele>209.09</ele>
        <time>2019-04-18T09:35:35.000Z</time>
      </trkpt>
      <trkpt lat="43.67077" lon="-0.28855">
        <ele>210.37</ele>
        <time>2019-04-18T09:35:45.000Z</time>
      </trkpt>
      <trkpt lat="43.67078" lon="-0.28867">
        <ele>211.03</ele>
        <time>2019-04-18T09:35:55.000Z</time>
      </trkpt>
      <trkpt lat="43.67079" lon="-0.28879">
        <ele>211.78</ele>
        <time>2019-04-18T09:36:05.000Z</time>
      </trkpt>
      <trkpt lat="43.67077" lon="-0.28892">
        <ele>212.88</ele>
        <time>2019-04-18T09:36:15.000Z</time>
      </trkpt>
      <trkpt lat="43.67074" lon="-0.28904">
        <ele>213.9</ele>
        <time>2019-04-18T09:36:25.000Z</time>
      </trkpt>
      <trkpt lat="43.67073" lon="-0.28914">
        <ele>214.75</ele>
        <time>2019-04-18T09:36:35.000Z</time>
      </trkpt>
      <trkpt lat="43.67071" lon="-0.28926">
        <ele>215.92</ele>
        <time>2019-04-18T09:36:45.000Z</time>
      </trkpt>
      <trkpt lat="43.67068" lon="-0.28938">
        <ele>217.02</ele>
        <time>2019-04-18T09:36:55.000Z</time>
      </trkpt>
      <trkpt lat="43.67067" lon="-0.2895">
        <ele>218.06</ele>
        <time>2019-04-18T09:37:05.000Z</time>
      </trkpt>
      <trkpt lat="43.67067" lon="-0.28964">
        <ele>218.58</ele>
        <time>2019-04-18T09:37:15.000Z</time>
      </trkpt>
      <trkpt lat="43.67064" lon="-0.28977">
        <ele>219.22</ele>
        <time>2019-04-18T09:37:25.000Z</time>
      </trkpt>
      <trkpt lat="43.67062" lon="-0.28992">
        <ele>219.53</ele>
        <time>2019-04-18T09:37:35.000Z</time>
      </trkpt>
      <trkpt lat="43.67058" lon="-0.29007">
        <ele>219.33</ele>
        <time>2019-04-18T09:37:45.000Z</time>
      </trkpt>
      <trkpt lat="43.67055" lon="-0.29021">
        <ele>219.4</ele>
        <time>2019-04-18T09:37:55.000Z</time>
      </trkpt>
      <trkpt lat="43.67054" lon="-0.29036">
        <ele>219.87</ele>
        <time>2019-04-18T09:38:05.000Z</time>
      </trkpt>
      <trkpt lat="43.67052" lon="-0.29051">
        <ele>220.6</ele>
        <time>2019-04-18T09:38:15.000Z</time>
      </trkpt>
      <trkpt lat="43.67052" lon="-0.29065">
        <ele>220.44</ele>
        <time>2019-04-18T09:38:25.000Z</time>
      </trkpt>
      <trkpt lat="43.67049" lon="-0.2908">
        <ele>220.59</ele>
        <time>2019-04-18T09:38:35.000Z</time>
      </trkpt>
      <trkpt lat="43.67048" lon="-0.29093">
        <ele>220.95</ele>
        <time>2019-04-18T09:38:45.000Z</time>
      </trkpt>
      <trkpt lat="43.67046" lon="-0.29107">
        <ele>222</ele>
        <time>2019-04-18T09:38:55.000Z</time>
      </trkpt>
      <trkpt lat="43.67043" lon="-0.29121">
        <ele>222.32</ele>
        <time>2019-04-18T09:39:05.000Z</time>
      </trkpt>
      <trkpt lat="43.67041" lon="-0.29135">
        <ele>222.43</ele>
        <time>2019-04-18T09:39:15.000Z</time>
      </trkpt>
      <trkpt lat="43.67037" lon="-0.2915">
        <ele>222.92</ele>
        <time>2019-04-18T09:39:25.000Z</time>
      </trkpt>
      <trkpt lat="43.67034" lon="-0.29166">
        <ele>222.96</ele>
        <time>2019-04-18T09:39:35.000Z</time>
      </trkpt>
      <trkpt lat="43.67032" lon="-0.2918">
        <ele>223.15</ele>
        <time>2019-04-18T09:39:45.000Z</time>
      </trkpt>
      <trkpt lat="43.6703" lon="-0.29197">
        <ele>223.13</ele>
        <time>2019-04-18T09:39:55.000Z</time>
      </trkpt>
      <trkpt lat="43.67029" lon="-0.29211">
        <ele>223.28</ele>
        <time>2019-04-18T09:40:05.000Z</time>
      </trkpt>
      <trkpt lat="43.67023" lon="-0.29226">
        <ele>223.51</ele>
        <time>2019-04-18T09:40:15.000Z</time>
      </trkpt>
      <trkpt lat="43.67021" lon="-0.29242">
        <ele>223.68</ele>
        <time>2019-04-18T09:40:25.000Z</time>
      </trkpt>
      <trkpt lat="43.6702" lon="-0.29257">
        <ele>223.12</ele>
        <time>2019-04-18T09:40:35.000Z</time>
      </trkpt>
      <trkpt lat="43.67019" lon="-0.29272">
        <ele>222.76</ele>
        <time>2019-04-18T09:40:45.000Z</time>
      </trkpt>
      <trkpt lat="43.67016" lon="-0.29287">
        <ele>222.49</ele>
        <time>2019-04-18T09:40:55.000Z</time>
      </trkpt>
      <trkpt lat="43.67013" lon="-0.29305">
        <ele>222.37</ele>
        <time>2019-04-18T09:41:05.000Z</time>
      </trkpt>
      <trkpt lat="43.6701" lon="-0.2932">
        <ele>221.99</ele>
        <time>2019-04-18T09:41:15.000Z</time>
      </trkpt>
      <trkpt lat="43.67007" lon="-0.29337">
        <ele>221.9</ele>
        <time>2019-04-18T09:41:25.000Z</time>
      </trkpt>
      <trkpt lat="43.67006" lon="-0.29352">
        <ele>221.64</ele>
        <time>2019-04-18T09:41:35.000Z</time>
      </trkpt>
      <trkpt lat="43.67002" lon="-0.2937">
        <ele>221.48</ele>
        <time>2019-04-18T09:41:45.000Z</time>
      </trkpt>
      <trkpt lat="43.67" lon="-0.29383">
        <ele>221.29</ele>
        <time>2019-04-18T09:41:55.000Z</time>
      </trkpt>
      <trkpt lat="43.66996" lon="-0.29399">
        <ele>221.2</ele>
        <time>2019-04-18T09:42:05.000Z</time>
      </trkpt>
      <trkpt lat="43.66993" lon="-0.29414">
        <ele>220.87</ele>
        <time>2019-04-18T09:42:15.000Z</time>
      </trkpt>
      <trkpt lat="43.66989" lon="-0.29429">
        <ele>220.97</ele>
        <time>2019-04-18T09:42:25.000Z</time>
      </trkpt>
      <trkpt lat="43.66986" lon="-0.29444">
        <ele>220.89</ele>
        <time>2019-04-18T09:42:35.000Z</time>
      </trkpt>
      <trkpt lat="43.66982" lon="-0.2946">
        <ele>221.39</ele>
        <time>2019-04-18T09:42:45.000Z</time>
      </trkpt>
      <trkpt lat="43.66978" lon="-0.29476">
        <ele>221.2</ele>
        <time>2019-04-18T09:42:55.000Z</time>
      </trkpt>
      <trkpt lat="43.66976" lon="-0.29491">
        <ele>221.33</ele>
        <time>2019-04-18T09:43:05.000Z</time>
      </trkpt>
      <trkpt lat="43.66972" lon="-0.29506">
        <ele>221.33</ele>
        <time>2019-04-18T09:43:15.000Z</time>
      </trkpt>
      <trkpt lat="43.66969" lon="-0.29521">
        <ele>221.21</ele>
        <time>2019-04-18T09:43:25.000Z</time>
      </trkpt>
      <trkpt lat="43.66966" lon="-0.29537">
        <ele>221.28</ele>
        <time>2019-04-18T09:43:35.000Z</time>
      </trkpt>
      <trkpt lat="43.66962" lon="-0.29552">
        <ele>221.09</ele>
        <time>2019-04-18T09:43:45.000Z</time>
      </trkpt>
      <trkpt lat="43.66956" lon="-0.29568">
        <ele>221.17</ele>
        <time>2019-04-18T09:43:55.000Z</time>
      </trkpt>
      <trkpt lat="43.66953" lon="-0.29582">
        <ele>221.45</ele>
        <time>2019-04-18T09:44:05.000Z</time>
      </trkpt>
      <trkpt lat="43.66949" lon="-0.29598">
        <ele>221.57</ele>
        <time>2019-04-18T09:44:15.000Z</time>
      </trkpt>
      <trkpt lat="43.66946" lon="-0.29616">
        <ele>221.19</ele>
        <time>2019-04-18T09:44:25.000Z</time>
      </trkpt>
      <trkpt lat="43.66943" lon="-0.2963">
        <ele>221.05</ele>
        <time>2019-04-18T09:44:35.000Z</time>
      </trkpt>
      <trkpt lat="43.66937" lon="-0.29645">
        <ele>221.37</ele>
        <time>2019-04-18T09:44:45.000Z</time>
      </trkpt>
      <trkpt lat="43.66932" lon="-0.29664">
        <ele>221.17</ele>
        <time>2019-04-18T09:44:55.000Z</time>
      </trkpt>
      <trkpt lat="43.66928" lon="-0.2968">
        <ele>221.04</ele>
        <time>2019-04-18T09:45:05.000Z</time>
      </trkpt>
      <trkpt lat="43.66923" lon="-0.29696">
        <ele>220.84</ele>
        <time>2019-04-18T09:45:15.000Z</time>
      </trkpt>
      <trkpt lat="43.6692" lon="-0.29712">
        <ele>220.49</ele>
        <time>2019-04-18T09:45:25.000Z</time>
      </trkpt>
      <trkpt lat="43.66921" lon="-0.29729">
        <ele>220.14</ele>
        <time>2019-04-18T09:45:35.000Z</time>
      </trkpt>
      <trkpt lat="43.66923" lon="-0.29746">
        <ele>220.28</ele>
        <time>2019-04-18T09:45:45.000Z</time>
      </trkpt>
      <trkpt lat="43.66924" lon="-0.29761">
        <ele>219.79</ele>
        <time>2019-04-18T09:45:55.000Z</time>
      </trkpt>
      <trkpt lat="43.66927" lon="-0.29778">
        <ele>219.65</ele>
        <time>2019-04-18T09:46:05.000Z</time>
      </trkpt>
      <trkpt lat="43.66929" lon="-0.29794">
        <ele>219.62</ele>
        <time>2019-04-18T09:46:15.000Z</time>
      </trkpt>
      <trkpt lat="43.6693" lon="-0.29811">
        <ele>219.62</ele>
        <time>2019-04-18T09:46:25.000Z</time>
      </trkpt>
      <trkpt lat="43.66931" lon="-0.29831">
        <ele>219.18</ele>
        <time>2019-04-18T09:46:35.000Z</time>
      </trkpt>
      <trkpt lat="43.66933" lon="-0.29846">
        <ele>218.99</ele>
        <time>2019-04-18T09:46:45.000Z</time>
      </trkpt>
      <trkpt lat="43.66936" lon="-0.29862">
        <ele>219.11</ele>
        <time>2019-04-18T09:46:55.000Z</time>
      </trkpt>
      <trkpt lat="43.66931" lon="-0.2988">
        <ele>218.9</ele>
        <time>2019-04-18T09:47:05.000Z</time>
      </trkpt>
      <trkpt lat="43.6692" lon="-0.29889">
        <ele>219.32</ele>
        <time>2019-04-18T09:47:15.000Z</time>
      </trkpt>
      <trkpt lat="43.66919" lon="-0.2989">
        <ele>219.48</ele>
        <time>2019-04-18T09:47:27.000Z</time>
      </trkpt>
      <trkpt lat="43.66908" lon="-0.29894">
        <ele>219.59</ele>
        <time>2019-04-18T09:47:37.000Z</time>
      </trkpt>
      <trkpt lat="43.66895" lon="-0.29896">
        <ele>219.39</ele>
        <time>2019-04-18T09:47:47.000Z</time>
      </trkpt>
      <trkpt lat="43.66883" lon="-0.29901">
        <ele>219.45</ele>
        <time>2019-04-18T09:47:57.000Z</time>
      </trkpt>
      <trkpt lat="43.6687" lon="-0.29903">
        <ele>219.83</ele>
        <time>2019-04-18T09:48:07.000Z</time>
      </trkpt>
      <trkpt lat="43.66858" lon="-0.29908">
        <ele>219.86</ele>
        <time>2019-04-18T09:48:17.000Z</time>
      </trkpt>
      <trkpt lat="43.66846" lon="-0.29909">
        <ele>220.37</ele>
        <time>2019-04-18T09:48:27.000Z</time>
      </trkpt>
      <trkpt lat="43.66835" lon="-0.29911">
        <ele>220.73</ele>
        <time>2019-04-18T09:48:37.000Z</time>
      </trkpt>
      <trkpt lat="43.66824" lon="-0.29913">
        <ele>220.93</ele>
        <time>2019-04-18T09:48:47.000Z</time>
      </trkpt>
      <trkpt lat="43.66812" lon="-0.29916">
        <ele>221.33</ele>
        <time>2019-04-18T09:48:57.000Z</time>
      </trkpt>
      <trkpt lat="43.668" lon="-0.29918">
        <ele>221.56</ele>
        <time>2019-04-18T09:49:07.000Z</time>
      </trkpt>
      <trkpt lat="43.66789" lon="-0.2992">
        <ele>222.2</ele>
        <time>2019-04-18T09:49:17.000Z</time>
      </trkpt>
      <trkpt lat="43.66778" lon="-0.29923">
        <ele>222.74</ele>
        <time>2019-04-18T09:49:27.000Z</time>
      </trkpt>
      <trkpt lat="43.66765" lon="-0.29926">
        <ele>223.35</ele>
        <time>2019-04-18T09:49:37.000Z</time>
      </trkpt>
      <trkpt lat="43.66754" lon="-0.2993">
        <ele>223.33</ele>
        <time>2019-04-18T09:49:47.000Z</time>
      </trkpt>
      <trkpt lat="43.66743" lon="-0.29933">
        <ele>223.69</ele>
        <time>2019-04-18T09:49:57.000Z</time>
      </trkpt>
      <trkpt lat="43.66731" lon="-0.29934">
        <ele>224.18</ele>
        <time>2019-04-18T09:50:07.000Z</time>
      </trkpt>
      <trkpt lat="43.6672" lon="-0.29936">
        <ele>224.09</ele>
        <time>2019-04-18T09:50:17.000Z</time>
      </trkpt>
      <trkpt lat="43.66708" lon="-0.29938">
        <ele>224.28</ele>
        <time>2019-04-18T09:50:27.000Z</time>
      </trkpt>
      <trkpt lat="43.66697" lon="-0.2994">
        <ele>224.55</ele>
        <time>2019-04-18T09:50:37.000Z</time>
      </trkpt>
      <trkpt lat="43.66686" lon="-0.29942">
        <ele>224.72</ele>
        <time>2019-04-18T09:50:47.000Z</time>
      </trkpt>
      <trkpt lat="43.66675" lon="-0.29948">
        <ele>224.71</ele>
        <time>2019-04-18T09:50:57.000Z</time>
      </trkpt>
      <trkpt lat="43.66664" lon="-0.29953">
        <ele>224.73</ele>
        <time>2019-04-18T09:51:07.000Z</time>
      </trkpt>
      <trkpt lat="43.66652" lon="-0.29958">
        <ele>224.62</ele>
        <time>2019-04-18T09:51:17.000Z</time>
      </trkpt>
      <trkpt lat="43.66641" lon="-0.2996">
        <ele>224.79</ele>
        <time>2019-04-18T09:51:27.000Z</time>
      </trkpt>
      <trkpt lat="43.66629" lon="-0.29964">
        <ele>224.78</ele>
        <time>2019-04-18T09:51:37.000Z</time>
      </trkpt>
      <trkpt lat="43.66619" lon="-0.2997">
        <ele>224.82</ele>
        <time>2019-04-18T09:51:47.000Z</time>
      </trkpt>
      <trkpt lat="43.66614" lon="-0.29971">
        <ele>225.03</ele>
        <time>2019-04-18T09:51:57.000Z</time>
      </trkpt>
      <trkpt lat="43.66605" lon="-0.29974">
        <ele>225.06</ele>
        <time>2019-04-18T09:52:07.000Z</time>
      </trkpt>
      <trkpt lat="43.66592" lon="-0.29979">
        <ele>225.02</ele>
        <time>2019-04-18T09:52:17.000Z</time>
      </trkpt>
      <trkpt lat="43.66581" lon="-0.29983">
        <ele>224.67</ele>
        <time>2019-04-18T09:52:27.000Z</time>
      </trkpt>
      <trkpt lat="43.6657" lon="-0.29987">
        <ele>224.49</ele>
        <time>2019-04-18T09:52:37.000Z</time>
      </trkpt>
      <trkpt lat="43.66558" lon="-0.29992">
        <ele>224.51</ele>
        <time>2019-04-18T09:52:47.000Z</time>
      </trkpt>
      <trkpt lat="43.66546" lon="-0.29998">
        <ele>224.25</ele>
        <time>2019-04-18T09:52:57.000Z</time>
      </trkpt>
      <trkpt lat="43.66536" lon="-0.30002">
        <ele>223.71</ele>
        <time>2019-04-18T09:53:07.000Z</time>
      </trkpt>
      <trkpt lat="43.66525" lon="-0.30006">
        <ele>222.78</ele>
        <time>2019-04-18T09:53:17.000Z</time>
      </trkpt>
      <trkpt lat="43.66512" lon="-0.30012">
        <ele>222.73</ele>
        <time>2019-04-18T09:53:27.000Z</time>
      </trkpt>
      <trkpt lat="43.665" lon="-0.30017">
        <ele>222.91</ele>
        <time>2019-04-18T09:53:37.000Z</time>
      </trkpt>
      <trkpt lat="43.66489" lon="-0.30021">
        <ele>222.71</ele>
        <time>2019-04-18T09:53:47.000Z</time>
      </trkpt>
      <trkpt lat="43.66478" lon="-0.30025">
        <ele>222.51</ele>
        <time>2019-04-18T09:53:57.000Z</time>
      </trkpt>
      <trkpt lat="43.66465" lon="-0.30031">
        <ele>222.74</ele>
        <time>2019-04-18T09:54:07.000Z</time>
      </trkpt>
      <trkpt lat="43.66453" lon="-0.30036">
        <ele>222.88</ele>
        <time>2019-04-18T09:54:17.000Z</time>
      </trkpt>
      <trkpt lat="43.66442" lon="-0.30039">
        <ele>222.71</ele>
        <time>2019-04-18T09:54:27.000Z</time>
      </trkpt>
      <trkpt lat="43.6643" lon="-0.30043">
        <ele>222.57</ele>
        <time>2019-04-18T09:54:37.000Z</time>
      </trkpt>
      <trkpt lat="43.6642" lon="-0.30046">
        <ele>222.89</ele>
        <time>2019-04-18T09:54:47.000Z</time>
      </trkpt>
      <trkpt lat="43.66408" lon="-0.30052">
        <ele>222.92</ele>
        <time>2019-04-18T09:54:57.000Z</time>
      </trkpt>
      <trkpt lat="43.66396" lon="-0.30056">
        <ele>223.42</ele>
        <time>2019-04-18T09:55:07.000Z</time>
      </trkpt>
      <trkpt lat="43.66385" lon="-0.30059">
        <ele>223.35</ele>
        <time>2019-04-18T09:55:17.000Z</time>
      </trkpt>
      <trkpt lat="43.66373" lon="-0.30064">
        <ele>223.5</ele>
        <time>2019-04-18T09:55:27.000Z</time>
      </trkpt>
      <trkpt lat="43.66364" lon="-0.30066">
        <ele>223.97</ele>
        <time>2019-04-18T09:55:37.000Z</time>
      </trkpt>
      <trkpt lat="43.66353" lon="-0.30072">
        <ele>223.75</ele>
        <time>2019-04-18T09:55:47.000Z</time>
      </trkpt>
      <trkpt lat="43.66342" lon="-0.30077">
        <ele>224.11</ele>
        <time>2019-04-18T09:55:57.000Z</time>
      </trkpt>
      <trkpt lat="43.66332" lon="-0.30081">
        <ele>223.79</ele>
        <time>2019-04-18T09:56:07.000Z</time>
      </trkpt>
      <trkpt lat="43.66319" lon="-0.30082">
        <ele>224.3</ele>
        <time>2019-04-18T09:56:17.000Z</time>
      </trkpt>
      <trkpt lat="43.66308" lon="-0.30079">
        <ele>223.86</ele>
        <time>2019-04-18T09:56:27.000Z</time>
      </trkpt>
      <trkpt lat="43.66296" lon="-0.30072">
        <ele>224.12</ele>
        <time>2019-04-18T09:56:37.000Z</time>
      </trkpt>
      <trkpt lat="43.66285" lon="-0.30064">
        <ele>223.82</ele>
        <time>2019-04-18T09:56:47.000Z</time>
      </trkpt>
      <trkpt lat="43.66276" lon="-0.30056">
        <ele>223.73</ele>
        <time>2019-04-18T09:56:57.000Z</time>
      </trkpt>
      <trkpt lat="43.66265" lon="-0.3005">
        <ele>223.66</ele>
        <time>2019-04-18T09:57:07.000Z</time>
      </trkpt>
      <trkpt lat="43.66253" lon="-0.30043">
        <ele>223.55</ele>
        <time>2019-04-18T09:57:17.000Z</time>
      </trkpt>
      <trkpt lat="43.66243" lon="-0.30036">
        <ele>223.86</ele>
        <time>2019-04-18T09:57:27.000Z</time>
      </trkpt>
      <trkpt lat="43.66232" lon="-0.3003">
        <ele>223.98</ele>
        <time>2019-04-18T09:57:37.000Z</time>
      </trkpt>
      <trkpt lat="43.66221" lon="-0.30023">
        <ele>223.5</ele>
        <time>2019-04-18T09:57:47.000Z</time>
      </trkpt>
      <trkpt lat="43.6621" lon="-0.30017">
        <ele>223.56</ele>
        <time>2019-04-18T09:57:57.000Z</time>
      </trkpt>
      <trkpt lat="43.66206" lon="-0.30011">
        <ele>222.9</ele>
        <time>2019-04-18T09:58:07.000Z</time>
      </trkpt>
      <trkpt lat="43.662" lon="-0.30008">
        <ele>223.42</ele>
        <time>2019-04-18T09:58:17.000Z</time>
      </trkpt>
      <trkpt lat="43.66189" lon="-0.30002">
        <ele>223.28</ele>
        <time>2019-04-18T09:58:27.000Z</time>
      </trkpt>
      <trkpt lat="43.66177" lon="-0.29996">
        <ele>223.42</ele>
        <time>2019-04-18T09:58:37.000Z</time>
      </trkpt>
      <trkpt lat="43.66165" lon="-0.29988">
        <ele>223.24</ele>
        <time>2019-04-18T09:58:47.000Z</time>
      </trkpt>
      <trkpt lat="43.66154" lon="-0.2998">
        <ele>223.43</ele>
        <time>2019-04-18T09:58:57.000Z</time>
      </trkpt>
      <trkpt lat="43.66143" lon="-0.29973">
        <ele>223.38</ele>
        <time>2019-04-18T09:59:07.000Z</time>
      </trkpt>
      <trkpt lat="43.66132" lon="-0.29967">
        <ele>223.1</ele>
        <time>2019-04-18T09:59:17.000Z</time>
      </trkpt>
      <trkpt lat="43.6612" lon="-0.29961">
        <ele>223.53</ele>
        <time>2019-04-18T09:59:27.000Z</time>
      </trkpt>
      <trkpt lat="43.66109" lon="-0.29952">
        <ele>223.31</ele>
        <time>2019-04-18T09:59:37.000Z</time>
      </trkpt>
      <trkpt lat="43.66098" lon="-0.29945">
        <ele>222.99</ele>
        <time>2019-04-18T09:59:47.000Z</time>
      </trkpt>
      <trkpt lat="43.66087" lon="-0.29938">
        <ele>222.9</ele>
        <time>2019-04-18T09:59:57.000Z</time>
      </trkpt>
      <trkpt lat="43.66075" lon="-0.29932">
        <ele>222.84</ele>
        <time>2019-04-18T10:00:07.000Z</time>
      </trkpt>
      <trkpt lat="43.66063" lon="-0.29926">
        <ele>223.15</ele>
        <time>2019-04-18T10:00:17.000Z</time>
      </trkpt>
      <trkpt lat="43.66052" lon="-0.29922">
        <ele>223.21</ele>
        <time>2019-04-18T10:00:27.000Z</time>
      </trkpt>
      <trkpt lat="43.66041" lon="-0.29922">
        <ele>223.16</ele>
        <time>2019-04-18T10:00:37.000Z</time>
      </trkpt>
      <trkpt lat="43.66032" lon="-0.2993">
        <ele>224.02</ele>
        <time>2019-04-18T10:00:47.000Z</time>
      </trkpt>
      <trkpt lat="43.66031" lon="-0.29933">
        <ele>222.74</ele>
        <time>2019-04-18T10:02:10.000Z</time>
      </trkpt>
      <trkpt lat="43.66031" lon="-0.29945">
        <ele>222.66</ele>
        <time>2019-04-18T10:02:20.000Z</time>
      </trkpt>
      <trkpt lat="43.66035" lon="-0.29963">
        <ele>222.66</ele>
        <time>2019-04-18T10:02:30.000Z</time>
      </trkpt>
      <trkpt lat="43.66036" lon="-0.29977">
        <ele>222.92</ele>
        <time>2019-04-18T10:02:40.000Z</time>
      </trkpt>
      <trkpt lat="43.66035" lon="-0.29994">
        <ele>222.8</ele>
        <time>2019-04-18T10:02:50.000Z</time>
      </trkpt>
      <trkpt lat="43.66037" lon="-0.3001">
        <ele>222.88</ele>
        <time>2019-04-18T10:03:00.000Z</time>
      </trkpt>
      <trkpt lat="43.66039" lon="-0.30027">
        <ele>222.89</ele>
        <time>2019-04-18T10:03:10.000Z</time>
      </trkpt>
      <trkpt lat="43.6604" lon="-0.30043">
        <ele>223.19</ele>
        <time>2019-04-18T10:03:20.000Z</time>
      </trkpt>
      <trkpt lat="43.6604" lon="-0.30059">
        <ele>222.92</ele>
        <time>2019-04-18T10:03:30.000Z</time>
      </trkpt>
      <trkpt lat="43.6604" lon="-0.30075">
        <ele>222.99</ele>
        <time>2019-04-18T10:03:40.000Z</time>
      </trkpt>
      <trkpt lat="43.66041" lon="-0.30092">
        <ele>223.34</ele>
        <time>2019-04-18T10:03:50.000Z</time>
      </trkpt>
      <trkpt lat="43.66042" lon="-0.30107">
        <ele>223.14</ele>
        <time>2019-04-18T10:04:00.000Z</time>
      </trkpt>
      <trkpt lat="43.66042" lon="-0.30123">
        <ele>223.26</ele>
        <time>2019-04-18T10:04:10.000Z</time>
      </trkpt>
      <trkpt lat="43.66043" lon="-0.3014">
        <ele>223.23</ele>
        <time>2019-04-18T10:04:20.000Z</time>
      </trkpt>
      <trkpt lat="43.66045" lon="-0.30159">
        <ele>223.41</ele>
        <time>2019-04-18T10:04:30.000Z</time>
      </trkpt>
      <trkpt lat="43.66046" lon="-0.30174">
        <ele>223.85</ele>
        <time>2019-04-18T10:04:40.000Z</time>
      </trkpt>
      <trkpt lat="43.66046" lon="-0.30192">
        <ele>223.36</ele>
        <time>2019-04-18T10:04:50.000Z</time>
      </trkpt>
      <trkpt lat="43.66036" lon="-0.30201">
        <ele>223.54</ele>
        <time>2019-04-18T10:05:00.000Z</time>
      </trkpt>
      <trkpt lat="43.66025" lon="-0.30202">
        <ele>223.45</ele>
        <time>2019-04-18T10:05:10.000Z</time>
      </trkpt>
      <trkpt lat="43.66013" lon="-0.30205">
        <ele>223.83</ele>
        <time>2019-04-18T10:05:20.000Z</time>
      </trkpt>
      <trkpt lat="43.66001" lon="-0.30205">
        <ele>223.89</ele>
        <time>2019-04-18T10:05:30.000Z</time>
      </trkpt>
      <trkpt lat="43.6599" lon="-0.30206">
        <ele>223.81</ele>
        <time>2019-04-18T10:05:40.000Z</time>
      </trkpt>
      <trkpt lat="43.65978" lon="-0.30207">
        <ele>223.42</ele>
        <time>2019-04-18T10:05:50.000Z</time>
      </trkpt>
      <trkpt lat="43.65965" lon="-0.30211">
        <ele>223.55</ele>
        <time>2019-04-18T10:06:00.000Z</time>
      </trkpt>
      <trkpt lat="43.65952" lon="-0.30214">
        <ele>223.18</ele>
        <time>2019-04-18T10:06:10.000Z</time>
      </trkpt>
      <trkpt lat="43.65939" lon="-0.30215">
        <ele>223.65</ele>
        <time>2019-04-18T10:06:20.000Z</time>
      </trkpt>
      <trkpt lat="43.65928" lon="-0.30215">
        <ele>223.4</ele>
        <time>2019-04-18T10:06:30.000Z</time>
      </trkpt>
      <trkpt lat="43.65917" lon="-0.30216">
        <ele>223.48</ele>
        <time>2019-04-18T10:06:40.000Z</time>
      </trkpt>
      <trkpt lat="43.65904" lon="-0.30217">
        <ele>223.55</ele>
        <time>2019-04-18T10:06:50.000Z</time>
      </trkpt>
      <trkpt lat="43.65892" lon="-0.30218">
        <ele>223.47</ele>
        <time>2019-04-18T10:07:00.000Z</time>
      </trkpt>
      <trkpt lat="43.65879" lon="-0.30219">
        <ele>223.48</ele>
        <time>2019-04-18T10:07:10.000Z</time>
      </trkpt>
      <trkpt lat="43.65867" lon="-0.3022">
        <ele>223.42</ele>
        <time>2019-04-18T10:07:20.000Z</time>
      </trkpt>
      <trkpt lat="43.65854" lon="-0.30223">
        <ele>223.54</ele>
        <time>2019-04-18T10:07:30.000Z</time>
      </trkpt>
      <trkpt lat="43.65842" lon="-0.30225">
        <ele>222.87</ele>
        <time>2019-04-18T10:07:40.000Z</time>
      </trkpt>
      <trkpt lat="43.65832" lon="-0.30225">
        <ele>222.88</ele>
        <time>2019-04-18T10:07:50.000Z</time>
      </trkpt>
      <trkpt lat="43.65819" lon="-0.30225">
        <ele>223.14</ele>
        <time>2019-04-18T10:08:00.000Z</time>
      </trkpt>
      <trkpt lat="43.65807" lon="-0.30226">
        <ele>222.94</ele>
        <time>2019-04-18T10:08:10.000Z</time>
      </trkpt>
      <trkpt lat="43.65794" lon="-0.30229">
        <ele>222.9</ele>
        <time>2019-04-18T10:08:20.000Z</time>
      </trkpt>
      <trkpt lat="43.65782" lon="-0.30229">
        <ele>222.72</ele>
        <time>2019-04-18T10:08:30.000Z</time>
      </trkpt>
      <trkpt lat="43.65769" lon="-0.30232">
        <ele>222.63</ele>
        <time>2019-04-18T10:08:40.000Z</time>
      </trkpt>
      <trkpt lat="43.65756" lon="-0.30234">
        <ele>222.62</ele>
        <time>2019-04-18T10:08:50.000Z</time>
      </trkpt>
      <trkpt lat="43.65744" lon="-0.30236">
        <ele>223.22</ele>
        <time>2019-04-18T10:09:00.000Z</time>
      </trkpt>
      <trkpt lat="43.65732" lon="-0.30237">
        <ele>223.32</ele>
        <time>2019-04-18T10:09:10.000Z</time>
      </trkpt>
      <trkpt lat="43.65719" lon="-0.30237">
        <ele>222.79</ele>
        <time>2019-04-18T10:09:20.000Z</time>
      </trkpt>
      <trkpt lat="43.65705" lon="-0.30239">
        <ele>223.31</ele>
        <time>2019-04-18T10:09:30.000Z</time>
      </trkpt>
      <trkpt lat="43.65694" lon="-0.30242">
        <ele>223.01</ele>
        <time>2019-04-18T10:09:40.000Z</time>
      </trkpt>
      <trkpt lat="43.65682" lon="-0.30242">
        <ele>223.43</ele>
        <time>2019-04-18T10:09:50.000Z</time>
      </trkpt>
      <trkpt lat="43.6567" lon="-0.30244">
        <ele>223.59</ele>
        <time>2019-04-18T10:10:00.000Z</time>
      </trkpt>
      <trkpt lat="43.65659" lon="-0.30245">
        <ele>223.37</ele>
        <time>2019-04-18T10:10:10.000Z</time>
      </trkpt>
      <trkpt lat="43.65648" lon="-0.30246">
        <ele>223.79</ele>
        <time>2019-04-18T10:10:20.000Z</time>
      </trkpt>
      <trkpt lat="43.65637" lon="-0.30247">
        <ele>223.78</ele>
        <time>2019-04-18T10:10:30.000Z</time>
      </trkpt>
      <trkpt lat="43.65625" lon="-0.30249">
        <ele>223.8</ele>
        <time>2019-04-18T10:10:40.000Z</time>
      </trkpt>
      <trkpt lat="43.65612" lon="-0.3025">
        <ele>224.01</ele>
        <time>2019-04-18T10:10:50.000Z</time>
      </trkpt>
      <trkpt lat="43.656" lon="-0.30251">
        <ele>224.08</ele>
        <time>2019-04-18T10:11:00.000Z</time>
      </trkpt>
      <trkpt lat="43.65589" lon="-0.30252">
        <ele>223.78</ele>
        <time>2019-04-18T10:11:10.000Z</time>
      </trkpt>
      <trkpt lat="43.65579" lon="-0.30253">
        <ele>223.94</ele>
        <time>2019-04-18T10:11:20.000Z</time>
      </trkpt>
      <trkpt lat="43.65568" lon="-0.30255">
        <ele>223.96</ele>
        <time>2019-04-18T10:11:30.000Z</time>
      </trkpt>
      <trkpt lat="43.65556" lon="-0.30256">
        <ele>224.63</ele>
        <time>2019-04-18T10:11:40.000Z</time>
      </trkpt>
      <trkpt lat="43.65545" lon="-0.30257">
        <ele>225.08</ele>
        <time>2019-04-18T10:11:50.000Z</time>
      </trkpt>
      <trkpt lat="43.65532" lon="-0.30259">
        <ele>224.73</ele>
        <time>2019-04-18T10:12:00.000Z</time>
      </trkpt>
      <trkpt lat="43.65521" lon="-0.30261">
        <ele>224.86</ele>
        <time>2019-04-18T10:12:10.000Z</time>
      </trkpt>
      <trkpt lat="43.6551" lon="-0.30263">
        <ele>225.12</ele>
        <time>2019-04-18T10:12:20.000Z</time>
      </trkpt>
      <trkpt lat="43.65498" lon="-0.30265">
        <ele>225.33</ele>
        <time>2019-04-18T10:12:30.000Z</time>
      </trkpt>
      <trkpt lat="43.65485" lon="-0.30268">
        <ele>225.21</ele>
        <time>2019-04-18T10:12:40.000Z</time>
      </trkpt>
      <trkpt lat="43.65475" lon="-0.30268">
        <ele>225.45</ele>
        <time>2019-04-18T10:12:50.000Z</time>
      </trkpt>
      <trkpt lat="43.65464" lon="-0.30269">
        <ele>225.21</ele>
        <time>2019-04-18T10:13:00.000Z</time>
      </trkpt>
      <trkpt lat="43.65453" lon="-0.30268">
        <ele>225.31</ele>
        <time>2019-04-18T10:13:10.000Z</time>
      </trkpt>
      <trkpt lat="43.65441" lon="-0.3027">
        <ele>225.5</ele>
        <time>2019-04-18T10:13:20.000Z</time>
      </trkpt>
      <trkpt lat="43.65429" lon="-0.30272">
        <ele>225.53</ele>
        <time>2019-04-18T10:13:30.000Z</time>
      </trkpt>
      <trkpt lat="43.65418" lon="-0.30273">
        <ele>225.35</ele>
        <time>2019-04-18T10:13:40.000Z</time>
      </trkpt>
      <trkpt lat="43.65404" lon="-0.30275">
        <ele>225.28</ele>
        <time>2019-04-18T10:13:50.000Z</time>
      </trkpt>
      <trkpt lat="43.65392" lon="-0.30277">
        <ele>225.4</ele>
        <time>2019-04-18T10:14:00.000Z</time>
      </trkpt>
      <trkpt lat="43.6538" lon="-0.30279">
        <ele>225.28</ele>
        <time>2019-04-18T10:14:10.000Z</time>
      </trkpt>
      <trkpt lat="43.65368" lon="-0.3028">
        <ele>225.49</ele>
        <time>2019-04-18T10:14:20.000Z</time>
      </trkpt>
      <trkpt lat="43.65358" lon="-0.30281">
        <ele>225.56</ele>
        <time>2019-04-18T10:14:30.000Z</time>
      </trkpt>
      <trkpt lat="43.65346" lon="-0.30281">
        <ele>225.7</ele>
        <time>2019-04-18T10:14:40.000Z</time>
      </trkpt>
      <trkpt lat="43.65335" lon="-0.30283">
        <ele>225.89</ele>
        <time>2019-04-18T10:14:50.000Z</time>
      </trkpt>
      <trkpt lat="43.65323" lon="-0.30286">
        <ele>225.85</ele>
        <time>2019-04-18T10:15:00.000Z</time>
      </trkpt>
      <trkpt lat="43.65311" lon="-0.30287">
        <ele>225.38</ele>
        <time>2019-04-18T10:15:10.000Z</time>
      </trkpt>
      <trkpt lat="43.653" lon="-0.30287">
        <ele>225.59</ele>
        <time>2019-04-18T10:15:20.000Z</time>
      </trkpt>
      <trkpt lat="43.65289" lon="-0.30289">
        <ele>225.59</ele>
        <time>2019-04-18T10:15:30.000Z</time>
      </trkpt>
      <trkpt lat="43.65277" lon="-0.30289">
        <ele>225.52</ele>
        <time>2019-04-18T10:15:40.000Z</time>
      </trkpt>
      <trkpt lat="43.65264" lon="-0.30291">
        <ele>225.95</ele>
        <time>2019-04-18T10:15:50.000Z</time>
      </trkpt>
      <trkpt lat="43.65253" lon="-0.30292">
        <ele>226.13</ele>
        <time>2019-04-18T10:16:00.000Z</time>
      </trkpt>
      <trkpt lat="43.65242" lon="-0.30293">
        <ele>226.03</ele>
        <time>2019-04-18T10:16:10.000Z</time>
      </trkpt>
      <trkpt lat="43.6523" lon="-0.30295">
        <ele>226.32</ele>
        <time>2019-04-18T10:16:20.000Z</time>
      </trkpt>
      <trkpt lat="43.6522" lon="-0.30294">
        <ele>226.08</ele>
        <time>2019-04-18T10:16:30.000Z</time>
      </trkpt>
      <trkpt lat="43.65218" lon="-0.30296">
        <ele>226.04</ele>
        <time>2019-04-18T10:16:40.000Z</time>
      </trkpt>
      <trkpt lat="43.6521" lon="-0.30298">
        <ele>226.19</ele>
        <time>2019-04-18T10:16:50.000Z</time>
      </trkpt>
      <trkpt lat="43.65199" lon="-0.303">
        <ele>226.18</ele>
        <time>2019-04-18T10:17:00.000Z</time>
      </trkpt>
      <trkpt lat="43.65187" lon="-0.30302">
        <ele>226.17</ele>
        <time>2019-04-18T10:17:10.000Z</time>
      </trkpt>
      <trkpt lat="43.65177" lon="-0.30301">
        <ele>226.11</ele>
        <time>2019-04-18T10:17:20.000Z</time>
      </trkpt>
      <trkpt lat="43.65165" lon="-0.30302">
        <ele>226.27</ele>
        <time>2019-04-18T10:17:30.000Z</time>
      </trkpt>
      <trkpt lat="43.65152" lon="-0.30303">
        <ele>226.6</ele>
        <time>2019-04-18T10:17:40.000Z</time>
      </trkpt>
      <trkpt lat="43.65141" lon="-0.30306">
        <ele>226.69</ele>
        <time>2019-04-18T10:17:50.000Z</time>
      </trkpt>
      <trkpt lat="43.65129" lon="-0.30307">
        <ele>226.57</ele>
        <time>2019-04-18T10:18:00.000Z</time>
      </trkpt>
      <trkpt lat="43.65117" lon="-0.30307">
        <ele>226.36</ele>
        <time>2019-04-18T10:18:10.000Z</time>
      </trkpt>
      <trkpt lat="43.65106" lon="-0.30309">
        <ele>226.17</ele>
        <time>2019-04-18T10:18:20.000Z</time>
      </trkpt>
      <trkpt lat="43.65094" lon="-0.30312">
        <ele>225.78</ele>
        <time>2019-04-18T10:18:30.000Z</time>
      </trkpt>
      <trkpt lat="43.65082" lon="-0.30312">
        <ele>225.59</ele>
        <time>2019-04-18T10:18:40.000Z</time>
      </trkpt>
      <trkpt lat="43.6507" lon="-0.30314">
        <ele>225.77</ele>
        <time>2019-04-18T10:18:50.000Z</time>
      </trkpt>
      <trkpt lat="43.65058" lon="-0.30316">
        <ele>226.17</ele>
        <time>2019-04-18T10:19:00.000Z</time>
      </trkpt>
      <trkpt lat="43.65047" lon="-0.30317">
        <ele>225.7</ele>
        <time>2019-04-18T10:19:10.000Z</time>
      </trkpt>
      <trkpt lat="43.65035" lon="-0.30319">
        <ele>226.04</ele>
        <time>2019-04-18T10:19:20.000Z</time>
      </trkpt>
      <trkpt lat="43.65022" lon="-0.30319">
        <ele>226.04</ele>
        <time>2019-04-18T10:19:30.000Z</time>
      </trkpt>
      <trkpt lat="43.6501" lon="-0.3032">
        <ele>226.32</ele>
        <time>2019-04-18T10:19:40.000Z</time>
      </trkpt>
      <trkpt lat="43.64998" lon="-0.30321">
        <ele>226.58</ele>
        <time>2019-04-18T10:19:50.000Z</time>
      </trkpt>
      <trkpt lat="43.64988" lon="-0.30322">
        <ele>226.87</ele>
        <time>2019-04-18T10:20:00.000Z</time>
      </trkpt>
      <trkpt lat="43.64975" lon="-0.30323">
        <ele>227.18</ele>
        <time>2019-04-18T10:20:10.000Z</time>
      </trkpt>
      <trkpt lat="43.64964" lon="-0.30326">
        <ele>226.94</ele>
        <time>2019-04-18T10:20:20.000Z</time>
      </trkpt>
      <trkpt lat="43.64953" lon="-0.30327">
        <ele>226.45</ele>
        <time>2019-04-18T10:20:30.000Z</time>
      </trkpt>
      <trkpt lat="43.64941" lon="-0.30329">
        <ele>226.24</ele>
        <time>2019-04-18T10:20:40.000Z</time>
      </trkpt>
      <trkpt lat="43.64928" lon="-0.30331">
        <ele>225.94</ele>
        <time>2019-04-18T10:20:50.000Z</time>
      </trkpt>
      <trkpt lat="43.64916" lon="-0.30333">
        <ele>225.3</ele>
        <time>2019-04-18T10:21:00.000Z</time>
      </trkpt>
      <trkpt lat="43.64904" lon="-0.30335">
        <ele>224.79</ele>
        <time>2019-04-18T10:21:10.000Z</time>
      </trkpt>
      <trkpt lat="43.64891" lon="-0.30338">
        <ele>224.59</ele>
        <time>2019-04-18T10:21:20.000Z</time>
      </trkpt>
      <trkpt lat="43.64878" lon="-0.30343">
        <ele>223.79</ele>
        <time>2019-04-18T10:21:30.000Z</time>
      </trkpt>
      <trkpt lat="43.64866" lon="-0.30344">
        <ele>223.71</ele>
        <time>2019-04-18T10:21:40.000Z</time>
      </trkpt>
      <trkpt lat="43.64854" lon="-0.30348">
        <ele>223.23</ele>
        <time>2019-04-18T10:21:50.000Z</time>
      </trkpt>
      <trkpt lat="43.64842" lon="-0.30351">
        <ele>223.11</ele>
        <time>2019-04-18T10:22:00.000Z</time>
      </trkpt>
      <trkpt lat="43.64831" lon="-0.30355">
        <ele>223.41</ele>
        <time>2019-04-18T10:22:10.000Z</time>
      </trkpt>
      <trkpt lat="43.6482" lon="-0.30356">
        <ele>223.76</ele>
        <time>2019-04-18T10:22:20.000Z</time>
      </trkpt>
      <trkpt lat="43.64807" lon="-0.3036">
        <ele>224.52</ele>
        <time>2019-04-18T10:22:30.000Z</time>
      </trkpt>
      <trkpt lat="43.64796" lon="-0.30363">
        <ele>224.46</ele>
        <time>2019-04-18T10:22:40.000Z</time>
      </trkpt>
      <trkpt lat="43.64785" lon="-0.30365">
        <ele>225.23</ele>
        <time>2019-04-18T10:22:50.000Z</time>
      </trkpt>
      <trkpt lat="43.64774" lon="-0.30367">
        <ele>225.6</ele>
        <time>2019-04-18T10:23:00.000Z</time>
      </trkpt>
      <trkpt lat="43.64763" lon="-0.30369">
        <ele>225.66</ele>
        <time>2019-04-18T10:23:10.000Z</time>
      </trkpt>
      <trkpt lat="43.64751" lon="-0.30372">
        <ele>225.78</ele>
        <time>2019-04-18T10:23:20.000Z</time>
      </trkpt>
      <trkpt lat="43.6474" lon="-0.30374">
        <ele>226.04</ele>
        <time>2019-04-18T10:23:30.000Z</time>
      </trkpt>
      <trkpt lat="43.64728" lon="-0.30378">
        <ele>226.12</ele>
        <time>2019-04-18T10:23:40.000Z</time>
      </trkpt>
      <trkpt lat="43.64717" lon="-0.30381">
        <ele>226.16</ele>
        <time>2019-04-18T10:23:50.000Z</time>
      </trkpt>
      <trkpt lat="43.64706" lon="-0.30382">
        <ele>226.45</ele>
        <time>2019-04-18T10:24:00.000Z</time>
      </trkpt>
      <trkpt lat="43.64694" lon="-0.30384">
        <ele>226.74</ele>
        <time>2019-04-18T10:24:10.000Z</time>
      </trkpt>
      <trkpt lat="43.64683" lon="-0.30386">
        <ele>227.15</ele>
        <time>2019-04-18T10:24:20.000Z</time>
      </trkpt>
      <trkpt lat="43.64671" lon="-0.3039">
        <ele>226.89</ele>
        <time>2019-04-18T10:24:30.000Z</time>
      </trkpt>
      <trkpt lat="43.6466" lon="-0.30391">
        <ele>227.25</ele>
        <time>2019-04-18T10:24:40.000Z</time>
      </trkpt>
      <trkpt lat="43.64648" lon="-0.30395">
        <ele>227.1</ele>
        <time>2019-04-18T10:24:50.000Z</time>
      </trkpt>
      <trkpt lat="43.64638" lon="-0.30397">
        <ele>227.02</ele>
        <time>2019-04-18T10:25:00.000Z</time>
      </trkpt>
      <trkpt lat="43.64626" lon="-0.30401">
        <ele>227.09</ele>
        <time>2019-04-18T10:25:10.000Z</time>
      </trkpt>
      <trkpt lat="43.64614" lon="-0.30404">
        <ele>226.87</ele>
        <time>2019-04-18T10:25:20.000Z</time>
      </trkpt>
      <trkpt lat="43.64603" lon="-0.30408">
        <ele>226.7</ele>
        <time>2019-04-18T10:25:30.000Z</time>
      </trkpt>
      <trkpt lat="43.64592" lon="-0.3041">
        <ele>226.95</ele>
        <time>2019-04-18T10:25:40.000Z</time>
      </trkpt>
      <trkpt lat="43.64579" lon="-0.30413">
        <ele>226.52</ele>
        <time>2019-04-18T10:25:50.000Z</time>
      </trkpt>
      <trkpt lat="43.64568" lon="-0.30416">
        <ele>226.58</ele>
        <time>2019-04-18T10:26:00.000Z</time>
      </trkpt>
      <trkpt lat="43.64557" lon="-0.30419">
        <ele>226.23</ele>
        <time>2019-04-18T10:26:10.000Z</time>
      </trkpt>
      <trkpt lat="43.64544" lon="-0.30421">
        <ele>226.13</ele>
        <time>2019-04-18T10:26:20.000Z</time>
      </trkpt>
      <trkpt lat="43.64533" lon="-0.30423">
        <ele>226.31</ele>
        <time>2019-04-18T10:26:30.000Z</time>
      </trkpt>
      <trkpt lat="43.64521" lon="-0.30426">
        <ele>226.33</ele>
        <time>2019-04-18T10:26:40.000Z</time>
      </trkpt>
      <trkpt lat="43.6451" lon="-0.30429">
        <ele>225.82</ele>
        <time>2019-04-18T10:26:50.000Z</time>
      </trkpt>
      <trkpt lat="43.64497" lon="-0.30433">
        <ele>225.98</ele>
        <time>2019-04-18T10:27:00.000Z</time>
      </trkpt>
      <trkpt lat="43.64486" lon="-0.30435">
        <ele>225.47</ele>
        <time>2019-04-18T10:27:10.000Z</time>
      </trkpt>
      <trkpt lat="43.64475" lon="-0.30439">
        <ele>225.76</ele>
        <time>2019-04-18T10:27:20.000Z</time>
      </trkpt>
      <trkpt lat="43.64469" lon="-0.30448">
        <ele>224.54</ele>
        <time>2019-04-18T10:27:30.000Z</time>
      </trkpt>
      <trkpt lat="43.6447" lon="-0.30463">
        <ele>224.2</ele>
        <time>2019-04-18T10:27:40.000Z</time>
      </trkpt>
      <trkpt lat="43.64474" lon="-0.30477">
        <ele>224.1</ele>
        <time>2019-04-18T10:27:50.000Z</time>
      </trkpt>
      <trkpt lat="43.64477" lon="-0.30493">
        <ele>223.57</ele>
        <time>2019-04-18T10:28:00.000Z</time>
      </trkpt>
      <trkpt lat="43.64481" lon="-0.30507">
        <ele>223.07</ele>
        <time>2019-04-18T10:28:10.000Z</time>
      </trkpt>
      <trkpt lat="43.64485" lon="-0.30523">
        <ele>223.14</ele>
        <time>2019-04-18T10:28:20.000Z</time>
      </trkpt>
      <trkpt lat="43.64489" lon="-0.30539">
        <ele>222.57</ele>
        <time>2019-04-18T10:28:30.000Z</time>
      </trkpt>
      <trkpt lat="43.64494" lon="-0.30555">
        <ele>221.89</ele>
        <time>2019-04-18T10:28:40.000Z</time>
      </trkpt>
      <trkpt lat="43.64497" lon="-0.30571">
        <ele>221.38</ele>
        <time>2019-04-18T10:28:50.000Z</time>
      </trkpt>
      <trkpt lat="43.64497" lon="-0.30584">
        <ele>221.22</ele>
        <time>2019-04-18T10:29:00.000Z</time>
      </trkpt>
      <trkpt lat="43.64496" lon="-0.30586">
        <ele>220.88</ele>
        <time>2019-04-18T10:29:10.000Z</time>
      </trkpt>
      <trkpt lat="43.64494" lon="-0.30587">
        <ele>220.62</ele>
        <time>2019-04-18T10:29:20.000Z</time>
      </trkpt>
      <trkpt lat="43.64494" lon="-0.30586">
        <ele>221.03</ele>
        <time>2019-04-18T10:29:42.000Z</time>
      </trkpt>
      <trkpt lat="43.64493" lon="-0.30585">
        <ele>220.95</ele>
        <time>2019-04-18T10:30:10.000Z</time>
      </trkpt>
      <trkpt lat="43.64492" lon="-0.30584">
        <ele>220.42</ele>
        <time>2019-04-18T10:33:29.000Z</time>
      </trkpt>
      <trkpt lat="43.64493" lon="-0.30584">
        <ele>221.1</ele>
        <time>2019-04-18T10:36:01.000Z</time>
      </trkpt>
      <trkpt lat="43.64494" lon="-0.30582">
        <ele>221.07</ele>
        <time>2019-04-18T10:36:11.000Z</time>
      </trkpt>
      <trkpt lat="43.64495" lon="-0.30585">
        <ele>220.43</ele>
        <time>2019-04-18T10:44:33.000Z</time>
      </trkpt>
      <trkpt lat="43.64495" lon="-0.30593">
        <ele>220.58</ele>
        <time>2019-04-18T10:44:43.000Z</time>
      </trkpt>
      <trkpt lat="43.64494" lon="-0.30591">
        <ele>220.75</ele>
        <time>2019-04-18T10:44:56.000Z</time>
      </trkpt>
      <trkpt lat="43.64495" lon="-0.30589">
        <ele>220.65</ele>
        <time>2019-04-18T10:45:09.000Z</time>
      </trkpt>
      <trkpt lat="43.64499" lon="-0.30588">
        <ele>221.13</ele>
        <time>2019-04-18T10:45:19.000Z</time>
      </trkpt>
      <trkpt lat="43.64498" lon="-0.30587">
        <ele>221.23</ele>
        <time>2019-04-18T10:45:29.000Z</time>
      </trkpt>
      <trkpt lat="43.64494" lon="-0.30591">
        <ele>220.36</ele>
        <time>2019-04-18T10:45:39.000Z</time>
      </trkpt>
      <trkpt lat="43.64495" lon="-0.30589">
        <ele>220.24</ele>
        <time>2019-04-18T10:47:06.000Z</time>
      </trkpt>
      <trkpt lat="43.64499" lon="-0.30586">
        <ele>220.25</ele>
        <time>2019-04-18T10:47:16.000Z</time>
      </trkpt>
      <trkpt lat="43.64498" lon="-0.30586">
        <ele>220.38</ele>
        <time>2019-04-18T10:47:37.000Z</time>
      </trkpt>
      <trkpt lat="43.64497" lon="-0.30587">
        <ele>220.63</ele>
        <time>2019-04-18T10:47:47.000Z</time>
      </trkpt>
      <trkpt lat="43.64496" lon="-0.30587">
        <ele>220.13</ele>
        <time>2019-04-18T10:48:20.000Z</time>
      </trkpt>
      <trkpt lat="43.64494" lon="-0.30586">
        <ele>220.08</ele>
        <time>2019-04-18T10:48:30.000Z</time>
      </trkpt>
      <trkpt lat="43.64496" lon="-0.30587">
        <ele>223.84</ele>
        <time>2019-04-18T11:14:23.000Z</time>
      </trkpt>
      <trkpt lat="43.64499" lon="-0.3059">
        <ele>223.75</ele>
        <time>2019-04-18T11:14:33.000Z</time>
      </trkpt>
      <trkpt lat="43.64498" lon="-0.30589">
        <ele>223.8</ele>
        <time>2019-04-18T11:14:49.000Z</time>
      </trkpt>
      <trkpt lat="43.64496" lon="-0.30589">
        <ele>223.74</ele>
        <time>2019-04-18T11:15:00.000Z</time>
      </trkpt>
      <trkpt lat="43.64495" lon="-0.30588">
        <ele>223.91</ele>
        <time>2019-04-18T11:15:10.000Z</time>
      </trkpt>
      <trkpt lat="43.64495" lon="-0.30587">
        <ele>223.89</ele>
        <time>2019-04-18T11:16:07.000Z</time>
      </trkpt>
      <trkpt lat="43.64494" lon="-0.30586">
        <ele>223.62</ele>
        <time>2019-04-18T11:16:17.000Z</time>
      </trkpt>
      <trkpt lat="43.64493" lon="-0.30584">
        <ele>223.31</ele>
        <time>2019-04-18T11:16:31.000Z</time>
      </trkpt>
      <trkpt lat="43.64493" lon="-0.30586">
        <ele>223.53</ele>
        <time>2019-04-18T11:17:00.000Z</time>
      </trkpt>
      <trkpt lat="43.64495" lon="-0.30585">
        <ele>224.64</ele>
        <time>2019-04-18T11:21:21.000Z</time>
      </trkpt>
      <trkpt lat="43.645" lon="-0.3059">
        <ele>225</ele>
        <time>2019-04-18T11:21:31.000Z</time>
      </trkpt>
      <trkpt lat="43.64504" lon="-0.30599">
        <ele>224.99</ele>
        <time>2019-04-18T11:21:41.000Z</time>
      </trkpt>
      <trkpt lat="43.64506" lon="-0.30611">
        <ele>225</ele>
        <time>2019-04-18T11:21:51.000Z</time>
      </trkpt>
      <trkpt lat="43.6451" lon="-0.30622">
        <ele>224.71</ele>
        <time>2019-04-18T11:22:01.000Z</time>
      </trkpt>
      <trkpt lat="43.64515" lon="-0.30634">
        <ele>224.74</ele>
        <time>2019-04-18T11:22:11.000Z</time>
      </trkpt>
      <trkpt lat="43.64518" lon="-0.30645">
        <ele>225.03</ele>
        <time>2019-04-18T11:22:21.000Z</time>
      </trkpt>
      <trkpt lat="43.6452" lon="-0.30659">
        <ele>224.79</ele>
        <time>2019-04-18T11:22:31.000Z</time>
      </trkpt>
      <trkpt lat="43.64521" lon="-0.30672">
        <ele>224.83</ele>
        <time>2019-04-18T11:22:41.000Z</time>
      </trkpt>
      <trkpt lat="43.64521" lon="-0.30685">
        <ele>224.92</ele>
        <time>2019-04-18T11:22:51.000Z</time>
      </trkpt>
      <trkpt lat="43.64518" lon="-0.30697">
        <ele>225.52</ele>
        <time>2019-04-18T11:23:01.000Z</time>
      </trkpt>
      <trkpt lat="43.64515" lon="-0.30713">
        <ele>225.28</ele>
        <time>2019-04-18T11:23:11.000Z</time>
      </trkpt>
      <trkpt lat="43.64513" lon="-0.30724">
        <ele>225.41</ele>
        <time>2019-04-18T11:23:21.000Z</time>
      </trkpt>
      <trkpt lat="43.64512" lon="-0.30737">
        <ele>225.77</ele>
        <time>2019-04-18T11:23:31.000Z</time>
      </trkpt>
      <trkpt lat="43.64509" lon="-0.30751">
        <ele>226.03</ele>
        <time>2019-04-18T11:23:41.000Z</time>
      </trkpt>
      <trkpt lat="43.64508" lon="-0.30764">
        <ele>226.51</ele>
        <time>2019-04-18T11:23:51.000Z</time>
      </trkpt>
      <trkpt lat="43.64508" lon="-0.30779">
        <ele>226.1</ele>
        <time>2019-04-18T11:24:01.000Z</time>
      </trkpt>
      <trkpt lat="43.64509" lon="-0.30792">
        <ele>226.26</ele>
        <time>2019-04-18T11:24:11.000Z</time>
      </trkpt>
      <trkpt lat="43.64508" lon="-0.30809">
        <ele>226.6</ele>
        <time>2019-04-18T11:24:21.000Z</time>
      </trkpt>
      <trkpt lat="43.64502" lon="-0.30822">
        <ele>226.83</ele>
        <time>2019-04-18T11:24:31.000Z</time>
      </trkpt>
      <trkpt lat="43.64499" lon="-0.30835">
        <ele>226.73</ele>
        <time>2019-04-18T11:24:41.000Z</time>
      </trkpt>
      <trkpt lat="43.64493" lon="-0.30848">
        <ele>226.95</ele>
        <time>2019-04-18T11:24:51.000Z</time>
      </trkpt>
      <trkpt lat="43.64486" lon="-0.30863">
        <ele>227.18</ele>
        <time>2019-04-18T11:25:01.000Z</time>
      </trkpt>
      <trkpt lat="43.64482" lon="-0.30876">
        <ele>227.04</ele>
        <time>2019-04-18T11:25:11.000Z</time>
      </trkpt>
      <trkpt lat="43.64478" lon="-0.30891">
        <ele>227.07</ele>
        <time>2019-04-18T11:25:21.000Z</time>
      </trkpt>
      <trkpt lat="43.64474" lon="-0.30906">
        <ele>227.11</ele>
        <time>2019-04-18T11:25:31.000Z</time>
      </trkpt>
      <trkpt lat="43.6447" lon="-0.30921">
        <ele>227.41</ele>
        <time>2019-04-18T11:25:41.000Z</time>
      </trkpt>
      <trkpt lat="43.64466" lon="-0.30937">
        <ele>227.57</ele>
        <time>2019-04-18T11:25:51.000Z</time>
      </trkpt>
      <trkpt lat="43.64463" lon="-0.30951">
        <ele>227.15</ele>
        <time>2019-04-18T11:26:01.000Z</time>
      </trkpt>
      <trkpt lat="43.6446" lon="-0.30967">
        <ele>227.09</ele>
        <time>2019-04-18T11:26:11.000Z</time>
      </trkpt>
      <trkpt lat="43.64456" lon="-0.30981">
        <ele>227.16</ele>
        <time>2019-04-18T11:26:21.000Z</time>
      </trkpt>
      <trkpt lat="43.64453" lon="-0.30997">
        <ele>227.16</ele>
        <time>2019-04-18T11:26:31.000Z</time>
      </trkpt>
      <trkpt lat="43.64451" lon="-0.31011">
        <ele>227.06</ele>
        <time>2019-04-18T11:26:41.000Z</time>
      </trkpt>
      <trkpt lat="43.64448" lon="-0.31026">
        <ele>227.17</ele>
        <time>2019-04-18T11:26:51.000Z</time>
      </trkpt>
      <trkpt lat="43.64444" lon="-0.31043">
        <ele>227.2</ele>
        <time>2019-04-18T11:27:01.000Z</time>
      </trkpt>
      <trkpt lat="43.6444" lon="-0.31058">
        <ele>227.48</ele>
        <time>2019-04-18T11:27:11.000Z</time>
      </trkpt>
      <trkpt lat="43.64437" lon="-0.31073">
        <ele>227.59</ele>
        <time>2019-04-18T11:27:21.000Z</time>
      </trkpt>
      <trkpt lat="43.64433" lon="-0.31089">
        <ele>227.59</ele>
        <time>2019-04-18T11:27:31.000Z</time>
      </trkpt>
      <trkpt lat="43.64431" lon="-0.31105">
        <ele>227.16</ele>
        <time>2019-04-18T11:27:41.000Z</time>
      </trkpt>
      <trkpt lat="43.64427" lon="-0.31121">
        <ele>227.11</ele>
        <time>2019-04-18T11:27:51.000Z</time>
      </trkpt>
      <trkpt lat="43.64424" lon="-0.31136">
        <ele>227.15</ele>
        <time>2019-04-18T11:28:01.000Z</time>
      </trkpt>
      <trkpt lat="43.64421" lon="-0.31152">
        <ele>227.09</ele>
        <time>2019-04-18T11:28:11.000Z</time>
      </trkpt>
      <trkpt lat="43.64419" lon="-0.31168">
        <ele>227.47</ele>
        <time>2019-04-18T11:28:21.000Z</time>
      </trkpt>
      <trkpt lat="43.64416" lon="-0.31182">
        <ele>227.58</ele>
        <time>2019-04-18T11:28:31.000Z</time>
      </trkpt>
      <trkpt lat="43.64412" lon="-0.31199">
        <ele>227.51</ele>
        <time>2019-04-18T11:28:41.000Z</time>
      </trkpt>
      <trkpt lat="43.64408" lon="-0.31215">
        <ele>227.07</ele>
        <time>2019-04-18T11:28:51.000Z</time>
      </trkpt>
      <trkpt lat="43.64405" lon="-0.31231">
        <ele>227.45</ele>
        <time>2019-04-18T11:29:01.000Z</time>
      </trkpt>
      <trkpt lat="43.64401" lon="-0.31248">
        <ele>227.42</ele>
        <time>2019-04-18T11:29:11.000Z</time>
      </trkpt>
      <trkpt lat="43.64397" lon="-0.31264">
        <ele>227.2</ele>
        <time>2019-04-18T11:29:21.000Z</time>
      </trkpt>
      <trkpt lat="43.64394" lon="-0.3128">
        <ele>227.44</ele>
        <time>2019-04-18T11:29:31.000Z</time>
      </trkpt>
      <trkpt lat="43.64392" lon="-0.31295">
        <ele>227.34</ele>
        <time>2019-04-18T11:29:41.000Z</time>
      </trkpt>
      <trkpt lat="43.64389" lon="-0.31311">
        <ele>227.32</ele>
        <time>2019-04-18T11:29:51.000Z</time>
      </trkpt>
      <trkpt lat="43.64385" lon="-0.31327">
        <ele>227.37</ele>
        <time>2019-04-18T11:30:01.000Z</time>
      </trkpt>
      <trkpt lat="43.64382" lon="-0.31343">
        <ele>227.31</ele>
        <time>2019-04-18T11:30:11.000Z</time>
      </trkpt>
      <trkpt lat="43.64379" lon="-0.31359">
        <ele>227.09</ele>
        <time>2019-04-18T11:30:21.000Z</time>
      </trkpt>
      <trkpt lat="43.64375" lon="-0.31374">
        <ele>226.99</ele>
        <time>2019-04-18T11:30:31.000Z</time>
      </trkpt>
      <trkpt lat="43.64374" lon="-0.3139">
        <ele>226.95</ele>
        <time>2019-04-18T11:30:41.000Z</time>
      </trkpt>
      <trkpt lat="43.64371" lon="-0.31405">
        <ele>226.58</ele>
        <time>2019-04-18T11:30:51.000Z</time>
      </trkpt>
      <trkpt lat="43.64362" lon="-0.31415">
        <ele>226.39</ele>
        <time>2019-04-18T11:31:01.000Z</time>
      </trkpt>
      <trkpt lat="43.6435" lon="-0.31415">
        <ele>226.38</ele>
        <time>2019-04-18T11:31:11.000Z</time>
      </trkpt>
      <trkpt lat="43.64339" lon="-0.31414">
        <ele>226.51</ele>
        <time>2019-04-18T11:31:21.000Z</time>
      </trkpt>
      <trkpt lat="43.64327" lon="-0.31413">
        <ele>226.54</ele>
        <time>2019-04-18T11:31:31.000Z</time>
      </trkpt>
      <trkpt lat="43.64315" lon="-0.31409">
        <ele>226.46</ele>
        <time>2019-04-18T11:31:41.000Z</time>
      </trkpt>
      <trkpt lat="43.64304" lon="-0.31406">
        <ele>226.62</ele>
        <time>2019-04-18T11:31:51.000Z</time>
      </trkpt>
      <trkpt lat="43.64291" lon="-0.31402">
        <ele>227.21</ele>
        <time>2019-04-18T11:32:01.000Z</time>
      </trkpt>
      <trkpt lat="43.6428" lon="-0.31398">
        <ele>227.15</ele>
        <time>2019-04-18T11:32:11.000Z</time>
      </trkpt>
      <trkpt lat="43.64268" lon="-0.31393">
        <ele>226.84</ele>
        <time>2019-04-18T11:32:21.000Z</time>
      </trkpt>
      <trkpt lat="43.64257" lon="-0.31389">
        <ele>227.01</ele>
        <time>2019-04-18T11:32:31.000Z</time>
      </trkpt>
      <trkpt lat="43.64246" lon="-0.31384">
        <ele>227.12</ele>
        <time>2019-04-18T11:32:41.000Z</time>
      </trkpt>
      <trkpt lat="43.64234" lon="-0.31378">
        <ele>227.34</ele>
        <time>2019-04-18T11:32:51.000Z</time>
      </trkpt>
      <trkpt lat="43.64223" lon="-0.31372">
        <ele>227.13</ele>
        <time>2019-04-18T11:33:01.000Z</time>
      </trkpt>
      <trkpt lat="43.64212" lon="-0.31367">
        <ele>227.01</ele>
        <time>2019-04-18T11:33:11.000Z</time>
      </trkpt>
      <trkpt lat="43.64201" lon="-0.3136">
        <ele>226.68</ele>
        <time>2019-04-18T11:33:21.000Z</time>
      </trkpt>
      <trkpt lat="43.64189" lon="-0.31355">
        <ele>226.97</ele>
        <time>2019-04-18T11:33:31.000Z</time>
      </trkpt>
      <trkpt lat="43.64178" lon="-0.31349">
        <ele>226.94</ele>
        <time>2019-04-18T11:33:41.000Z</time>
      </trkpt>
      <trkpt lat="43.64168" lon="-0.31342">
        <ele>227.14</ele>
        <time>2019-04-18T11:33:51.000Z</time>
      </trkpt>
      <trkpt lat="43.64156" lon="-0.31337">
        <ele>227.4</ele>
        <time>2019-04-18T11:34:01.000Z</time>
      </trkpt>
      <trkpt lat="43.64145" lon="-0.31332">
        <ele>227.16</ele>
        <time>2019-04-18T11:34:11.000Z</time>
      </trkpt>
      <trkpt lat="43.64134" lon="-0.31325">
        <ele>226.94</ele>
        <time>2019-04-18T11:34:21.000Z</time>
      </trkpt>
      <trkpt lat="43.64123" lon="-0.31318">
        <ele>226.82</ele>
        <time>2019-04-18T11:34:31.000Z</time>
      </trkpt>
      <trkpt lat="43.6411" lon="-0.31312">
        <ele>226.88</ele>
        <time>2019-04-18T11:34:41.000Z</time>
      </trkpt>
      <trkpt lat="43.64099" lon="-0.31308">
        <ele>227.21</ele>
        <time>2019-04-18T11:34:51.000Z</time>
      </trkpt>
      <trkpt lat="43.64089" lon="-0.31301">
        <ele>226.87</ele>
        <time>2019-04-18T11:35:01.000Z</time>
      </trkpt>
      <trkpt lat="43.64078" lon="-0.31294">
        <ele>227.31</ele>
        <time>2019-04-18T11:35:11.000Z</time>
      </trkpt>
      <trkpt lat="43.64065" lon="-0.31287">
        <ele>227.5</ele>
        <time>2019-04-18T11:35:21.000Z</time>
      </trkpt>
      <trkpt lat="43.64054" lon="-0.31282">
        <ele>227.65</ele>
        <time>2019-04-18T11:35:31.000Z</time>
      </trkpt>
      <trkpt lat="43.64042" lon="-0.31275">
        <ele>227.41</ele>
        <time>2019-04-18T11:35:41.000Z</time>
      </trkpt>
      <trkpt lat="43.64031" lon="-0.31269">
        <ele>227.46</ele>
        <time>2019-04-18T11:35:51.000Z</time>
      </trkpt>
      <trkpt lat="43.64022" lon="-0.31262">
        <ele>227.81</ele>
        <time>2019-04-18T11:36:01.000Z</time>
      </trkpt>
      <trkpt lat="43.6402" lon="-0.31258">
        <ele>227.76</ele>
        <time>2019-04-18T11:36:11.000Z</time>
      </trkpt>
      <trkpt lat="43.64009" lon="-0.31254">
        <ele>228.15</ele>
        <time>2019-04-18T11:36:21.000Z</time>
      </trkpt>
      <trkpt lat="43.63998" lon="-0.31249">
        <ele>228.29</ele>
        <time>2019-04-18T11:36:31.000Z</time>
      </trkpt>
      <trkpt lat="43.63987" lon="-0.31244">
        <ele>228.06</ele>
        <time>2019-04-18T11:36:41.000Z</time>
      </trkpt>
      <trkpt lat="43.6398" lon="-0.3124">
        <ele>228.07</ele>
        <time>2019-04-18T11:36:51.000Z</time>
      </trkpt>
      <trkpt lat="43.63977" lon="-0.31238">
        <ele>228.62</ele>
        <time>2019-04-18T11:37:01.000Z</time>
      </trkpt>
      <trkpt lat="43.63966" lon="-0.31231">
        <ele>228.45</ele>
        <time>2019-04-18T11:37:11.000Z</time>
      </trkpt>
      <trkpt lat="43.63956" lon="-0.31225">
        <ele>228.89</ele>
        <time>2019-04-18T11:37:21.000Z</time>
      </trkpt>
      <trkpt lat="43.63945" lon="-0.31219">
        <ele>228.7</ele>
        <time>2019-04-18T11:37:31.000Z</time>
      </trkpt>
      <trkpt lat="43.63936" lon="-0.31211">
        <ele>228.8</ele>
        <time>2019-04-18T11:37:41.000Z</time>
      </trkpt>
      <trkpt lat="43.63936" lon="-0.31208">
        <ele>228.74</ele>
        <time>2019-04-18T11:37:51.000Z</time>
      </trkpt>
      <trkpt lat="43.63925" lon="-0.31206">
        <ele>229.15</ele>
        <time>2019-04-18T11:38:01.000Z</time>
      </trkpt>
      <trkpt lat="43.63913" lon="-0.31201">
        <ele>229.2</ele>
        <time>2019-04-18T11:38:11.000Z</time>
      </trkpt>
      <trkpt lat="43.63903" lon="-0.31194">
        <ele>229.67</ele>
        <time>2019-04-18T11:38:21.000Z</time>
      </trkpt>
      <trkpt lat="43.63892" lon="-0.31187">
        <ele>230.14</ele>
        <time>2019-04-18T11:38:31.000Z</time>
      </trkpt>
      <trkpt lat="43.63881" lon="-0.31182">
        <ele>230.35</ele>
        <time>2019-04-18T11:38:41.000Z</time>
      </trkpt>
      <trkpt lat="43.6387" lon="-0.31175">
        <ele>230.26</ele>
        <time>2019-04-18T11:38:51.000Z</time>
      </trkpt>
      <trkpt lat="43.6386" lon="-0.31171">
        <ele>230.43</ele>
        <time>2019-04-18T11:39:01.000Z</time>
      </trkpt>
      <trkpt lat="43.63849" lon="-0.31165">
        <ele>230.58</ele>
        <time>2019-04-18T11:39:11.000Z</time>
      </trkpt>
      <trkpt lat="43.63839" lon="-0.3116">
        <ele>230.79</ele>
        <time>2019-04-18T11:39:21.000Z</time>
      </trkpt>
      <trkpt lat="43.63832" lon="-0.31155">
        <ele>230.94</ele>
        <time>2019-04-18T11:39:31.000Z</time>
      </trkpt>
      <trkpt lat="43.63823" lon="-0.31152">
        <ele>231.37</ele>
        <time>2019-04-18T11:39:41.000Z</time>
      </trkpt>
      <trkpt lat="43.63814" lon="-0.31146">
        <ele>231.48</ele>
        <time>2019-04-18T11:39:51.000Z</time>
      </trkpt>
      <trkpt lat="43.63801" lon="-0.31139">
        <ele>231.61</ele>
        <time>2019-04-18T11:40:01.000Z</time>
      </trkpt>
      <trkpt lat="43.63788" lon="-0.31134">
        <ele>231.85</ele>
        <time>2019-04-18T11:40:11.000Z</time>
      </trkpt>
      <trkpt lat="43.63775" lon="-0.31125">
        <ele>231.91</ele>
        <time>2019-04-18T11:40:21.000Z</time>
      </trkpt>
      <trkpt lat="43.63763" lon="-0.31117">
        <ele>231.91</ele>
        <time>2019-04-18T11:40:31.000Z</time>
      </trkpt>
      <trkpt lat="43.63752" lon="-0.31111">
        <ele>232.1</ele>
        <time>2019-04-18T11:40:41.000Z</time>
      </trkpt>
      <trkpt lat="43.6374" lon="-0.31105">
        <ele>232.34</ele>
        <time>2019-04-18T11:40:51.000Z</time>
      </trkpt>
      <trkpt lat="43.63729" lon="-0.31099">
        <ele>232.77</ele>
        <time>2019-04-18T11:41:01.000Z</time>
      </trkpt>
      <trkpt lat="43.63716" lon="-0.31093">
        <ele>232.71</ele>
        <time>2019-04-18T11:41:11.000Z</time>
      </trkpt>
      <trkpt lat="43.63704" lon="-0.31087">
        <ele>232.61</ele>
        <time>2019-04-18T11:41:21.000Z</time>
      </trkpt>
      <trkpt lat="43.63694" lon="-0.31082">
        <ele>232.68</ele>
        <time>2019-04-18T11:41:31.000Z</time>
      </trkpt>
      <trkpt lat="43.63681" lon="-0.31077">
        <ele>233.12</ele>
        <time>2019-04-18T11:41:41.000Z</time>
      </trkpt>
      <trkpt lat="43.6367" lon="-0.31072">
        <ele>233.13</ele>
        <time>2019-04-18T11:41:51.000Z</time>
      </trkpt>
      <trkpt lat="43.63659" lon="-0.31065">
        <ele>233.39</ele>
        <time>2019-04-18T11:42:01.000Z</time>
      </trkpt>
      <trkpt lat="43.63649" lon="-0.3106">
        <ele>233.47</ele>
        <time>2019-04-18T11:42:11.000Z</time>
      </trkpt>
      <trkpt lat="43.63636" lon="-0.31056">
        <ele>233.41</ele>
        <time>2019-04-18T11:42:21.000Z</time>
      </trkpt>
      <trkpt lat="43.63625" lon="-0.3105">
        <ele>233.75</ele>
        <time>2019-04-18T11:42:31.000Z</time>
      </trkpt>
      <trkpt lat="43.63614" lon="-0.31045">
        <ele>233.65</ele>
        <time>2019-04-18T11:42:41.000Z</time>
      </trkpt>
      <trkpt lat="43.63604" lon="-0.31039">
        <ele>233.7</ele>
        <time>2019-04-18T11:42:51.000Z</time>
      </trkpt>
      <trkpt lat="43.6359" lon="-0.31035">
        <ele>233.78</ele>
        <time>2019-04-18T11:43:01.000Z</time>
      </trkpt>
      <trkpt lat="43.63578" lon="-0.31029">
        <ele>233.97</ele>
        <time>2019-04-18T11:43:11.000Z</time>
      </trkpt>
      <trkpt lat="43.63566" lon="-0.31024">
        <ele>234.18</ele>
        <time>2019-04-18T11:43:21.000Z</time>
      </trkpt>
      <trkpt lat="43.63555" lon="-0.31019">
        <ele>234.12</ele>
        <time>2019-04-18T11:43:31.000Z</time>
      </trkpt>
      <trkpt lat="43.63543" lon="-0.31014">
        <ele>234.45</ele>
        <time>2019-04-18T11:43:41.000Z</time>
      </trkpt>
      <trkpt lat="43.6353" lon="-0.31009">
        <ele>234.67</ele>
        <time>2019-04-18T11:43:51.000Z</time>
      </trkpt>
      <trkpt lat="43.63522" lon="-0.31002">
        <ele>234.44</ele>
        <time>2019-04-18T11:44:01.000Z</time>
      </trkpt>
      <trkpt lat="43.63518" lon="-0.31001">
        <ele>234.37</ele>
        <time>2019-04-18T11:44:11.000Z</time>
      </trkpt>
      <trkpt lat="43.63508" lon="-0.30996">
        <ele>234.47</ele>
        <time>2019-04-18T11:44:21.000Z</time>
      </trkpt>
      <trkpt lat="43.63497" lon="-0.30992">
        <ele>235.02</ele>
        <time>2019-04-18T11:44:31.000Z</time>
      </trkpt>
      <trkpt lat="43.63485" lon="-0.30986">
        <ele>235.09</ele>
        <time>2019-04-18T11:44:41.000Z</time>
      </trkpt>
      <trkpt lat="43.63474" lon="-0.30982">
        <ele>234.83</ele>
        <time>2019-04-18T11:44:51.000Z</time>
      </trkpt>
      <trkpt lat="43.63463" lon="-0.30977">
        <ele>235.29</ele>
        <time>2019-04-18T11:45:01.000Z</time>
      </trkpt>
      <trkpt lat="43.63451" lon="-0.30972">
        <ele>235.23</ele>
        <time>2019-04-18T11:45:11.000Z</time>
      </trkpt>
      <trkpt lat="43.6344" lon="-0.30966">
        <ele>235.37</ele>
        <time>2019-04-18T11:45:21.000Z</time>
      </trkpt>
      <trkpt lat="43.63431" lon="-0.30962">
        <ele>235.4</ele>
        <time>2019-04-18T11:45:31.000Z</time>
      </trkpt>
      <trkpt lat="43.6342" lon="-0.30958">
        <ele>235.39</ele>
        <time>2019-04-18T11:45:41.000Z</time>
      </trkpt>
      <trkpt lat="43.6341" lon="-0.30954">
        <ele>235.27</ele>
        <time>2019-04-18T11:45:51.000Z</time>
      </trkpt>
      <trkpt lat="43.634" lon="-0.30948">
        <ele>234.92</ele>
        <time>2019-04-18T11:46:01.000Z</time>
      </trkpt>
      <trkpt lat="43.63389" lon="-0.30943">
        <ele>234.91</ele>
        <time>2019-04-18T11:46:11.000Z</time>
      </trkpt>
      <trkpt lat="43.63379" lon="-0.30938">
        <ele>234.85</ele>
        <time>2019-04-18T11:46:21.000Z</time>
      </trkpt>
      <trkpt lat="43.6337" lon="-0.30932">
        <ele>234.82</ele>
        <time>2019-04-18T11:46:31.000Z</time>
      </trkpt>
      <trkpt lat="43.63359" lon="-0.30928">
        <ele>234.75</ele>
        <time>2019-04-18T11:46:41.000Z</time>
      </trkpt>
      <trkpt lat="43.63347" lon="-0.30923">
        <ele>234.91</ele>
        <time>2019-04-18T11:46:51.000Z</time>
      </trkpt>
      <trkpt lat="43.63335" lon="-0.30918">
        <ele>234.89</ele>
        <time>2019-04-18T11:47:01.000Z</time>
      </trkpt>
      <trkpt lat="43.63323" lon="-0.30912">
        <ele>234.84</ele>
        <time>2019-04-18T11:47:11.000Z</time>
      </trkpt>
      <trkpt lat="43.6331" lon="-0.30907">
        <ele>234.9</ele>
        <time>2019-04-18T11:47:21.000Z</time>
      </trkpt>
      <trkpt lat="43.63298" lon="-0.30902">
        <ele>235.1</ele>
        <time>2019-04-18T11:47:31.000Z</time>
      </trkpt>
      <trkpt lat="43.63287" lon="-0.30896">
        <ele>234.91</ele>
        <time>2019-04-18T11:47:41.000Z</time>
      </trkpt>
      <trkpt lat="43.63275" lon="-0.30889">
        <ele>234.4</ele>
        <time>2019-04-18T11:47:51.000Z</time>
      </trkpt>
      <trkpt lat="43.63263" lon="-0.30884">
        <ele>234.56</ele>
        <time>2019-04-18T11:48:01.000Z</time>
      </trkpt>
      <trkpt lat="43.63251" lon="-0.30877">
        <ele>234.57</ele>
        <time>2019-04-18T11:48:11.000Z</time>
      </trkpt>
      <trkpt lat="43.6324" lon="-0.30872">
        <ele>234.39</ele>
        <time>2019-04-18T11:48:21.000Z</time>
      </trkpt>
      <trkpt lat="43.63228" lon="-0.30867">
        <ele>234.14</ele>
        <time>2019-04-18T11:48:31.000Z</time>
      </trkpt>
      <trkpt lat="43.63215" lon="-0.30861">
        <ele>234.2</ele>
        <time>2019-04-18T11:48:41.000Z</time>
      </trkpt>
      <trkpt lat="43.63204" lon="-0.30855">
        <ele>233.93</ele>
        <time>2019-04-18T11:48:51.000Z</time>
      </trkpt>
      <trkpt lat="43.63193" lon="-0.3085">
        <ele>233.95</ele>
        <time>2019-04-18T11:49:01.000Z</time>
      </trkpt>
      <trkpt lat="43.63186" lon="-0.30841">
        <ele>234.35</ele>
        <time>2019-04-18T11:49:11.000Z</time>
      </trkpt>
      <trkpt lat="43.63186" lon="-0.30835">
        <ele>234.1</ele>
        <time>2019-04-18T11:49:21.000Z</time>
      </trkpt>
      <trkpt lat="43.63186" lon="-0.30833">
        <ele>233.99</ele>
        <time>2019-04-18T11:50:00.000Z</time>
      </trkpt>
      <trkpt lat="43.63187" lon="-0.30842">
        <ele>234.25</ele>
        <time>2019-04-18T11:50:10.000Z</time>
      </trkpt>
      <trkpt lat="43.63179" lon="-0.30846">
        <ele>234.31</ele>
        <time>2019-04-18T11:50:20.000Z</time>
      </trkpt>
      <trkpt lat="43.63171" lon="-0.30846">
        <ele>234.32</ele>
        <time>2019-04-18T11:50:30.000Z</time>
      </trkpt>
      <trkpt lat="43.63162" lon="-0.30846">
        <ele>234.15</ele>
        <time>2019-04-18T11:50:40.000Z</time>
      </trkpt>
      <trkpt lat="43.63153" lon="-0.30847">
        <ele>234.15</ele>
        <time>2019-04-18T11:50:50.000Z</time>
      </trkpt>
      <trkpt lat="43.63144" lon="-0.30848">
        <ele>234.5</ele>
        <time>2019-04-18T11:51:00.000Z</time>
      </trkpt>
      <trkpt lat="43.63134" lon="-0.30844">
        <ele>234.56</ele>
        <time>2019-04-18T11:51:10.000Z</time>
      </trkpt>
      <trkpt lat="43.63127" lon="-0.30843">
        <ele>234.74</ele>
        <time>2019-04-18T11:51:20.000Z</time>
      </trkpt>
      <trkpt lat="43.63122" lon="-0.30846">
        <ele>234.27</ele>
        <time>2019-04-18T11:51:30.000Z</time>
      </trkpt>
      <trkpt lat="43.63113" lon="-0.30846">
        <ele>234.44</ele>
        <time>2019-04-18T11:51:40.000Z</time>
      </trkpt>
      <trkpt lat="43.63106" lon="-0.30846">
        <ele>234.45</ele>
        <time>2019-04-18T11:51:50.000Z</time>
      </trkpt>
      <trkpt lat="43.631" lon="-0.30846">
        <ele>234.66</ele>
        <time>2019-04-18T11:52:00.000Z</time>
      </trkpt>
      <trkpt lat="43.63095" lon="-0.30842">
        <ele>235.11</ele>
        <time>2019-04-18T11:52:10.000Z</time>
      </trkpt>
      <trkpt lat="43.63091" lon="-0.30841">
        <ele>234.88</ele>
        <time>2019-04-18T11:52:20.000Z</time>
      </trkpt>
      <trkpt lat="43.63089" lon="-0.3084">
        <ele>234.9</ele>
        <time>2019-04-18T11:52:30.000Z</time>
      </trkpt>
      <trkpt lat="43.63087" lon="-0.30843">
        <ele>235.07</ele>
        <time>2019-04-18T11:52:40.000Z</time>
      </trkpt>
      <trkpt lat="43.63086" lon="-0.30842">
        <ele>235.18</ele>
        <time>2019-04-18T11:53:14.000Z</time>
      </trkpt>
      <trkpt lat="43.63085" lon="-0.30842">
        <ele>234.97</ele>
        <time>2019-04-18T11:53:57.000Z</time>
      </trkpt>
      <trkpt lat="43.63076" lon="-0.30841">
        <ele>235.66</ele>
        <time>2019-04-18T11:54:07.000Z</time>
      </trkpt>
      <trkpt lat="43.63068" lon="-0.30843">
        <ele>235.59</ele>
        <time>2019-04-18T11:54:17.000Z</time>
      </trkpt>
      <trkpt lat="43.63059" lon="-0.30838">
        <ele>235.26</ele>
        <time>2019-04-18T11:54:27.000Z</time>
      </trkpt>
      <trkpt lat="43.63048" lon="-0.30837">
        <ele>235.38</ele>
        <time>2019-04-18T11:54:37.000Z</time>
      </trkpt>
      <trkpt lat="43.63037" lon="-0.30835">
        <ele>235.11</ele>
        <time>2019-04-18T11:54:47.000Z</time>
      </trkpt>
      <trkpt lat="43.63026" lon="-0.30834">
        <ele>235.28</ele>
        <time>2019-04-18T11:54:57.000Z</time>
      </trkpt>
      <trkpt lat="43.63013" lon="-0.30834">
        <ele>235.81</ele>
        <time>2019-04-18T11:55:07.000Z</time>
      </trkpt>
      <trkpt lat="43.63003" lon="-0.30831">
        <ele>235.59</ele>
        <time>2019-04-18T11:55:17.000Z</time>
      </trkpt>
      <trkpt lat="43.62992" lon="-0.3083">
        <ele>235.27</ele>
        <time>2019-04-18T11:55:27.000Z</time>
      </trkpt>
      <trkpt lat="43.62984" lon="-0.30827">
        <ele>235.36</ele>
        <time>2019-04-18T11:55:37.000Z</time>
      </trkpt>
      <trkpt lat="43.62986" lon="-0.30825">
        <ele>235.57</ele>
        <time>2019-04-18T11:55:47.000Z</time>
      </trkpt>
      <trkpt lat="43.62981" lon="-0.30827">
        <ele>235.42</ele>
        <time>2019-04-18T11:55:57.000Z</time>
      </trkpt>
      <trkpt lat="43.6297" lon="-0.30826">
        <ele>235.59</ele>
        <time>2019-04-18T11:56:07.000Z</time>
      </trkpt>
      <trkpt lat="43.6296" lon="-0.30825">
        <ele>235.51</ele>
        <time>2019-04-18T11:56:17.000Z</time>
      </trkpt>
      <trkpt lat="43.62949" lon="-0.30823">
        <ele>235.74</ele>
        <time>2019-04-18T11:56:27.000Z</time>
      </trkpt>
      <trkpt lat="43.62937" lon="-0.30822">
        <ele>235.7</ele>
        <time>2019-04-18T11:56:37.000Z</time>
      </trkpt>
      <trkpt lat="43.62925" lon="-0.30821">
        <ele>235.95</ele>
        <time>2019-04-18T11:56:47.000Z</time>
      </trkpt>
      <trkpt lat="43.62913" lon="-0.30823">
        <ele>235.59</ele>
        <time>2019-04-18T11:56:57.000Z</time>
      </trkpt>
      <trkpt lat="43.62903" lon="-0.30825">
        <ele>235.6</ele>
        <time>2019-04-18T11:57:07.000Z</time>
      </trkpt>
      <trkpt lat="43.62892" lon="-0.30827">
        <ele>235.43</ele>
        <time>2019-04-18T11:57:17.000Z</time>
      </trkpt>
      <trkpt lat="43.62893" lon="-0.30829">
        <ele>235.83</ele>
        <time>2019-04-18T11:57:27.000Z</time>
      </trkpt>
      <trkpt lat="43.62893" lon="-0.30838">
        <ele>235.95</ele>
        <time>2019-04-18T11:57:37.000Z</time>
      </trkpt>
      <trkpt lat="43.62891" lon="-0.30838">
        <ele>236.04</ele>
        <time>2019-04-18T11:57:49.000Z</time>
      </trkpt>
      <trkpt lat="43.62882" lon="-0.30829">
        <ele>236.03</ele>
        <time>2019-04-18T11:57:59.000Z</time>
      </trkpt>
      <trkpt lat="43.62871" lon="-0.30828">
        <ele>236.17</ele>
        <time>2019-04-18T11:58:09.000Z</time>
      </trkpt>
      <trkpt lat="43.62862" lon="-0.30825">
        <ele>235.72</ele>
        <time>2019-04-18T11:58:19.000Z</time>
      </trkpt>
      <trkpt lat="43.62852" lon="-0.3082">
        <ele>235.91</ele>
        <time>2019-04-18T11:58:29.000Z</time>
      </trkpt>
      <trkpt lat="43.62844" lon="-0.30819">
        <ele>235.85</ele>
        <time>2019-04-18T11:58:39.000Z</time>
      </trkpt>
      <trkpt lat="43.62843" lon="-0.30818">
        <ele>235.89</ele>
        <time>2019-04-18T11:59:24.000Z</time>
      </trkpt>
      <trkpt lat="43.62836" lon="-0.30812">
        <ele>236.32</ele>
        <time>2019-04-18T11:59:34.000Z</time>
      </trkpt>
      <trkpt lat="43.62825" lon="-0.30811">
        <ele>236.26</ele>
        <time>2019-04-18T11:59:44.000Z</time>
      </trkpt>
      <trkpt lat="43.62813" lon="-0.30807">
        <ele>236.44</ele>
        <time>2019-04-18T11:59:54.000Z</time>
      </trkpt>
      <trkpt lat="43.628" lon="-0.30805">
        <ele>235.9</ele>
        <time>2019-04-18T12:00:04.000Z</time>
      </trkpt>
      <trkpt lat="43.62789" lon="-0.30801">
        <ele>235.99</ele>
        <time>2019-04-18T12:00:14.000Z</time>
      </trkpt>
      <trkpt lat="43.62777" lon="-0.308">
        <ele>235.65</ele>
        <time>2019-04-18T12:00:24.000Z</time>
      </trkpt>
      <trkpt lat="43.62767" lon="-0.30794">
        <ele>235.88</ele>
        <time>2019-04-18T12:00:34.000Z</time>
      </trkpt>
      <trkpt lat="43.62755" lon="-0.30792">
        <ele>235.9</ele>
        <time>2019-04-18T12:00:44.000Z</time>
      </trkpt>
      <trkpt lat="43.62743" lon="-0.30789">
        <ele>235.89</ele>
        <time>2019-04-18T12:00:54.000Z</time>
      </trkpt>
      <trkpt lat="43.62733" lon="-0.30786">
        <ele>235.88</ele>
        <time>2019-04-18T12:01:04.000Z</time>
      </trkpt>
      <trkpt lat="43.62721" lon="-0.30782">
        <ele>235.73</ele>
        <time>2019-04-18T12:01:14.000Z</time>
      </trkpt>
      <trkpt lat="43.62709" lon="-0.3078">
        <ele>235.93</ele>
        <time>2019-04-18T12:01:24.000Z</time>
      </trkpt>
      <trkpt lat="43.62698" lon="-0.30776">
        <ele>236.22</ele>
        <time>2019-04-18T12:01:34.000Z</time>
      </trkpt>
      <trkpt lat="43.62687" lon="-0.30772">
        <ele>236.44</ele>
        <time>2019-04-18T12:01:44.000Z</time>
      </trkpt>
      <trkpt lat="43.62675" lon="-0.30769">
        <ele>236.72</ele>
        <time>2019-04-18T12:01:54.000Z</time>
      </trkpt>
      <trkpt lat="43.62665" lon="-0.30764">
        <ele>236.28</ele>
        <time>2019-04-18T12:02:04.000Z</time>
      </trkpt>
      <trkpt lat="43.62653" lon="-0.30762">
        <ele>236.71</ele>
        <time>2019-04-18T12:02:14.000Z</time>
      </trkpt>
      <trkpt lat="43.62641" lon="-0.3076">
        <ele>236.62</ele>
        <time>2019-04-18T12:02:24.000Z</time>
      </trkpt>
      <trkpt lat="43.62629" lon="-0.30756">
        <ele>236.87</ele>
        <time>2019-04-18T12:02:34.000Z</time>
      </trkpt>
      <trkpt lat="43.62617" lon="-0.30752">
        <ele>236.81</ele>
        <time>2019-04-18T12:02:44.000Z</time>
      </trkpt>
      <trkpt lat="43.62605" lon="-0.3075">
        <ele>236.86</ele>
        <time>2019-04-18T12:02:54.000Z</time>
      </trkpt>
      <trkpt lat="43.62595" lon="-0.30746">
        <ele>236.63</ele>
        <time>2019-04-18T12:03:04.000Z</time>
      </trkpt>
      <trkpt lat="43.62587" lon="-0.30743">
        <ele>236.88</ele>
        <time>2019-04-18T12:03:14.000Z</time>
      </trkpt>
      <trkpt lat="43.62585" lon="-0.30741">
        <ele>237.32</ele>
        <time>2019-04-18T12:03:24.000Z</time>
      </trkpt>
      <trkpt lat="43.62585" lon="-0.30743">
        <ele>237.07</ele>
        <time>2019-04-18T12:03:52.000Z</time>
      </trkpt>
      <trkpt lat="43.62589" lon="-0.30724">
        <ele>237.89</ele>
        <time>2019-04-18T12:04:02.000Z</time>
      </trkpt>
      <trkpt lat="43.62589" lon="-0.30711">
        <ele>237.65</ele>
        <time>2019-04-18T12:04:12.000Z</time>
      </trkpt>
      <trkpt lat="43.6259" lon="-0.30693">
        <ele>237.41</ele>
        <time>2019-04-18T12:04:22.000Z</time>
      </trkpt>
      <trkpt lat="43.62591" lon="-0.30677">
        <ele>237.57</ele>
        <time>2019-04-18T12:04:32.000Z</time>
      </trkpt>
      <trkpt lat="43.62591" lon="-0.3066">
        <ele>237.62</ele>
        <time>2019-04-18T12:04:42.000Z</time>
      </trkpt>
      <trkpt lat="43.62593" lon="-0.30645">
        <ele>237.15</ele>
        <time>2019-04-18T12:04:52.000Z</time>
      </trkpt>
      <trkpt lat="43.62593" lon="-0.30629">
        <ele>236.88</ele>
        <time>2019-04-18T12:05:02.000Z</time>
      </trkpt>
      <trkpt lat="43.62595" lon="-0.30614">
        <ele>237.43</ele>
        <time>2019-04-18T12:05:12.000Z</time>
      </trkpt>
      <trkpt lat="43.62595" lon="-0.30597">
        <ele>236.81</ele>
        <time>2019-04-18T12:05:22.000Z</time>
      </trkpt>
      <trkpt lat="43.62596" lon="-0.30579">
        <ele>236.87</ele>
        <time>2019-04-18T12:05:32.000Z</time>
      </trkpt>
      <trkpt lat="43.62596" lon="-0.30563">
        <ele>236.72</ele>
        <time>2019-04-18T12:05:42.000Z</time>
      </trkpt>
      <trkpt lat="43.62597" lon="-0.30545">
        <ele>236.89</ele>
        <time>2019-04-18T12:05:52.000Z</time>
      </trkpt>
      <trkpt lat="43.62597" lon="-0.30528">
        <ele>236.74</ele>
        <time>2019-04-18T12:06:02.000Z</time>
      </trkpt>
      <trkpt lat="43.62599" lon="-0.30512">
        <ele>236.39</ele>
        <time>2019-04-18T12:06:12.000Z</time>
      </trkpt>
      <trkpt lat="43.62599" lon="-0.30496">
        <ele>236.88</ele>
        <time>2019-04-18T12:06:22.000Z</time>
      </trkpt>
      <trkpt lat="43.626" lon="-0.30478">
        <ele>236.78</ele>
        <time>2019-04-18T12:06:32.000Z</time>
      </trkpt>
      <trkpt lat="43.62602" lon="-0.30462">
        <ele>236.65</ele>
        <time>2019-04-18T12:06:42.000Z</time>
      </trkpt>
      <trkpt lat="43.62603" lon="-0.30446">
        <ele>236.08</ele>
        <time>2019-04-18T12:06:52.000Z</time>
      </trkpt>
      <trkpt lat="43.62606" lon="-0.3043">
        <ele>236.29</ele>
        <time>2019-04-18T12:07:02.000Z</time>
      </trkpt>
      <trkpt lat="43.62608" lon="-0.30414">
        <ele>236.01</ele>
        <time>2019-04-18T12:07:12.000Z</time>
      </trkpt>
      <trkpt lat="43.62608" lon="-0.30395">
        <ele>235.77</ele>
        <time>2019-04-18T12:07:22.000Z</time>
      </trkpt>
      <trkpt lat="43.62609" lon="-0.30378">
        <ele>235.7</ele>
        <time>2019-04-18T12:07:32.000Z</time>
      </trkpt>
      <trkpt lat="43.62612" lon="-0.3036">
        <ele>235.49</ele>
        <time>2019-04-18T12:07:42.000Z</time>
      </trkpt>
      <trkpt lat="43.62613" lon="-0.30344">
        <ele>235.14</ele>
        <time>2019-04-18T12:07:52.000Z</time>
      </trkpt>
      <trkpt lat="43.62615" lon="-0.30327">
        <ele>234.7</ele>
        <time>2019-04-18T12:08:02.000Z</time>
      </trkpt>
      <trkpt lat="43.62616" lon="-0.30309">
        <ele>234.65</ele>
        <time>2019-04-18T12:08:12.000Z</time>
      </trkpt>
      <trkpt lat="43.62618" lon="-0.30293">
        <ele>234.04</ele>
        <time>2019-04-18T12:08:22.000Z</time>
      </trkpt>
      <trkpt lat="43.6262" lon="-0.30286">
        <ele>233.57</ele>
        <time>2019-04-18T12:08:32.000Z</time>
      </trkpt>
      <trkpt lat="43.6262" lon="-0.30269">
        <ele>233.64</ele>
        <time>2019-04-18T12:08:42.000Z</time>
      </trkpt>
      <trkpt lat="43.62621" lon="-0.30252">
        <ele>233.25</ele>
        <time>2019-04-18T12:08:52.000Z</time>
      </trkpt>
      <trkpt lat="43.62623" lon="-0.30236">
        <ele>233.22</ele>
        <time>2019-04-18T12:09:02.000Z</time>
      </trkpt>
      <trkpt lat="43.62624" lon="-0.30221">
        <ele>232.91</ele>
        <time>2019-04-18T12:09:12.000Z</time>
      </trkpt>
      <trkpt lat="43.62625" lon="-0.30203">
        <ele>232.68</ele>
        <time>2019-04-18T12:09:22.000Z</time>
      </trkpt>
      <trkpt lat="43.62625" lon="-0.30187">
        <ele>232.88</ele>
        <time>2019-04-18T12:09:32.000Z</time>
      </trkpt>
      <trkpt lat="43.62621" lon="-0.30172">
        <ele>232.42</ele>
        <time>2019-04-18T12:09:42.000Z</time>
      </trkpt>
      <trkpt lat="43.62621" lon="-0.30155">
        <ele>232.56</ele>
        <time>2019-04-18T12:09:52.000Z</time>
      </trkpt>
      <trkpt lat="43.62621" lon="-0.30138">
        <ele>232.5</ele>
        <time>2019-04-18T12:10:02.000Z</time>
      </trkpt>
      <trkpt lat="43.62619" lon="-0.3012">
        <ele>232.42</ele>
        <time>2019-04-18T12:10:12.000Z</time>
      </trkpt>
      <trkpt lat="43.62618" lon="-0.30103">
        <ele>232.39</ele>
        <time>2019-04-18T12:10:22.000Z</time>
      </trkpt>
      <trkpt lat="43.62619" lon="-0.30095">
        <ele>232.45</ele>
        <time>2019-04-18T12:10:32.000Z</time>
      </trkpt>
      <trkpt lat="43.6262" lon="-0.30077">
        <ele>232.67</ele>
        <time>2019-04-18T12:10:42.000Z</time>
      </trkpt>
      <trkpt lat="43.62622" lon="-0.30061">
        <ele>232.77</ele>
        <time>2019-04-18T12:10:52.000Z</time>
      </trkpt>
      <trkpt lat="43.62623" lon="-0.30042">
        <ele>233.17</ele>
        <time>2019-04-18T12:11:02.000Z</time>
      </trkpt>
      <trkpt lat="43.62622" lon="-0.30025">
        <ele>233.15</ele>
        <time>2019-04-18T12:11:12.000Z</time>
      </trkpt>
      <trkpt lat="43.62623" lon="-0.30009">
        <ele>233.15</ele>
        <time>2019-04-18T12:11:22.000Z</time>
      </trkpt>
      <trkpt lat="43.62623" lon="-0.29991">
        <ele>233.06</ele>
        <time>2019-04-18T12:11:32.000Z</time>
      </trkpt>
      <trkpt lat="43.62624" lon="-0.29977">
        <ele>233.38</ele>
        <time>2019-04-18T12:11:42.000Z</time>
      </trkpt>
      <trkpt lat="43.62623" lon="-0.29961">
        <ele>233.56</ele>
        <time>2019-04-18T12:11:52.000Z</time>
      </trkpt>
      <trkpt lat="43.62624" lon="-0.29947">
        <ele>233.74</ele>
        <time>2019-04-18T12:12:02.000Z</time>
      </trkpt>
      <trkpt lat="43.62624" lon="-0.29933">
        <ele>233.57</ele>
        <time>2019-04-18T12:12:12.000Z</time>
      </trkpt>
      <trkpt lat="43.62625" lon="-0.29918">
        <ele>234.06</ele>
        <time>2019-04-18T12:12:22.000Z</time>
      </trkpt>
      <trkpt lat="43.62625" lon="-0.29903">
        <ele>234.91</ele>
        <time>2019-04-18T12:12:32.000Z</time>
      </trkpt>
      <trkpt lat="43.62626" lon="-0.29889">
        <ele>235.54</ele>
        <time>2019-04-18T12:12:42.000Z</time>
      </trkpt>
      <trkpt lat="43.62625" lon="-0.29874">
        <ele>236.67</ele>
        <time>2019-04-18T12:12:52.000Z</time>
      </trkpt>
      <trkpt lat="43.62626" lon="-0.29861">
        <ele>237.08</ele>
        <time>2019-04-18T12:13:02.000Z</time>
      </trkpt>
      <trkpt lat="43.62626" lon="-0.29846">
        <ele>237.75</ele>
        <time>2019-04-18T12:13:12.000Z</time>
      </trkpt>
      <trkpt lat="43.62626" lon="-0.2983">
        <ele>238.6</ele>
        <time>2019-04-18T12:13:22.000Z</time>
      </trkpt>
      <trkpt lat="43.62626" lon="-0.29816">
        <ele>239.33</ele>
        <time>2019-04-18T12:13:32.000Z</time>
      </trkpt>
      <trkpt lat="43.62627" lon="-0.29801">
        <ele>239.53</ele>
        <time>2019-04-18T12:13:42.000Z</time>
      </trkpt>
      <trkpt lat="43.62628" lon="-0.29785">
        <ele>239.55</ele>
        <time>2019-04-18T12:13:52.000Z</time>
      </trkpt>
      <trkpt lat="43.6263" lon="-0.29769">
        <ele>240</ele>
        <time>2019-04-18T12:14:02.000Z</time>
      </trkpt>
      <trkpt lat="43.62631" lon="-0.29755">
        <ele>239.72</ele>
        <time>2019-04-18T12:14:12.000Z</time>
      </trkpt>
      <trkpt lat="43.62631" lon="-0.29743">
        <ele>239.63</ele>
        <time>2019-04-18T12:14:22.000Z</time>
      </trkpt>
      <trkpt lat="43.62632" lon="-0.29728">
        <ele>239.59</ele>
        <time>2019-04-18T12:14:32.000Z</time>
      </trkpt>
      <trkpt lat="43.62632" lon="-0.29712">
        <ele>239.59</ele>
        <time>2019-04-18T12:14:42.000Z</time>
      </trkpt>
      <trkpt lat="43.62633" lon="-0.29694">
        <ele>239.48</ele>
        <time>2019-04-18T12:14:52.000Z</time>
      </trkpt>
      <trkpt lat="43.62633" lon="-0.29677">
        <ele>239.12</ele>
        <time>2019-04-18T12:15:02.000Z</time>
      </trkpt>
      <trkpt lat="43.62632" lon="-0.29662">
        <ele>239</ele>
        <time>2019-04-18T12:15:12.000Z</time>
      </trkpt>
      <trkpt lat="43.62629" lon="-0.29646">
        <ele>238.45</ele>
        <time>2019-04-18T12:15:22.000Z</time>
      </trkpt>
      <trkpt lat="43.62625" lon="-0.29631">
        <ele>237.5</ele>
        <time>2019-04-18T12:15:32.000Z</time>
      </trkpt>
      <trkpt lat="43.6262" lon="-0.29617">
        <ele>237.07</ele>
        <time>2019-04-18T12:15:42.000Z</time>
      </trkpt>
      <trkpt lat="43.62614" lon="-0.29602">
        <ele>236.72</ele>
        <time>2019-04-18T12:15:52.000Z</time>
      </trkpt>
      <trkpt lat="43.62608" lon="-0.29586">
        <ele>236.59</ele>
        <time>2019-04-18T12:16:02.000Z</time>
      </trkpt>
      <trkpt lat="43.62603" lon="-0.29571">
        <ele>236.53</ele>
        <time>2019-04-18T12:16:12.000Z</time>
      </trkpt>
      <trkpt lat="43.62599" lon="-0.29555">
        <ele>236.41</ele>
        <time>2019-04-18T12:16:22.000Z</time>
      </trkpt>
      <trkpt lat="43.62593" lon="-0.2954">
        <ele>236.22</ele>
        <time>2019-04-18T12:16:32.000Z</time>
      </trkpt>
      <trkpt lat="43.62587" lon="-0.29524">
        <ele>236.42</ele>
        <time>2019-04-18T12:16:42.000Z</time>
      </trkpt>
      <trkpt lat="43.62583" lon="-0.29511">
        <ele>236.23</ele>
        <time>2019-04-18T12:16:52.000Z</time>
      </trkpt>
      <trkpt lat="43.62581" lon="-0.29494">
        <ele>235.95</ele>
        <time>2019-04-18T12:17:02.000Z</time>
      </trkpt>
      <trkpt lat="43.62577" lon="-0.29479">
        <ele>236.31</ele>
        <time>2019-04-18T12:17:12.000Z</time>
      </trkpt>
      <trkpt lat="43.62574" lon="-0.29464">
        <ele>236.05</ele>
        <time>2019-04-18T12:17:22.000Z</time>
      </trkpt>
      <trkpt lat="43.62571" lon="-0.29447">
        <ele>236.05</ele>
        <time>2019-04-18T12:17:32.000Z</time>
      </trkpt>
      <trkpt lat="43.62569" lon="-0.2943">
        <ele>235.98</ele>
        <time>2019-04-18T12:17:42.000Z</time>
      </trkpt>
      <trkpt lat="43.62566" lon="-0.29415">
        <ele>235.99</ele>
        <time>2019-04-18T12:17:52.000Z</time>
      </trkpt>
      <trkpt lat="43.62564" lon="-0.29401">
        <ele>236.1</ele>
        <time>2019-04-18T12:18:02.000Z</time>
      </trkpt>
      <trkpt lat="43.62561" lon="-0.29385">
        <ele>236.02</ele>
        <time>2019-04-18T12:18:12.000Z</time>
      </trkpt>
      <trkpt lat="43.62559" lon="-0.29368">
        <ele>236.42</ele>
        <time>2019-04-18T12:18:22.000Z</time>
      </trkpt>
      <trkpt lat="43.62556" lon="-0.29351">
        <ele>236.26</ele>
        <time>2019-04-18T12:18:32.000Z</time>
      </trkpt>
      <trkpt lat="43.62553" lon="-0.29335">
        <ele>236.09</ele>
        <time>2019-04-18T12:18:42.000Z</time>
      </trkpt>
      <trkpt lat="43.62552" lon="-0.29319">
        <ele>236.47</ele>
        <time>2019-04-18T12:18:52.000Z</time>
      </trkpt>
      <trkpt lat="43.62549" lon="-0.29302">
        <ele>236.43</ele>
        <time>2019-04-18T12:19:02.000Z</time>
      </trkpt>
      <trkpt lat="43.62547" lon="-0.29285">
        <ele>236.5</ele>
        <time>2019-04-18T12:19:12.000Z</time>
      </trkpt>
      <trkpt lat="43.62544" lon="-0.29268">
        <ele>236.33</ele>
        <time>2019-04-18T12:19:22.000Z</time>
      </trkpt>
      <trkpt lat="43.62541" lon="-0.29258">
        <ele>236.42</ele>
        <time>2019-04-18T12:19:32.000Z</time>
      </trkpt>
      <trkpt lat="43.62538" lon="-0.29248">
        <ele>236.3</ele>
        <time>2019-04-18T12:19:42.000Z</time>
      </trkpt>
      <trkpt lat="43.62537" lon="-0.29245">
        <ele>236.4</ele>
        <time>2019-04-18T12:19:53.000Z</time>
      </trkpt>
      <trkpt lat="43.62535" lon="-0.29228">
        <ele>236.3</ele>
        <time>2019-04-18T12:20:03.000Z</time>
      </trkpt>
      <trkpt lat="43.62532" lon="-0.29211">
        <ele>236.77</ele>
        <time>2019-04-18T12:20:13.000Z</time>
      </trkpt>
      <trkpt lat="43.6253" lon="-0.29197">
        <ele>236.54</ele>
        <time>2019-04-18T12:20:23.000Z</time>
      </trkpt>
      <trkpt lat="43.62528" lon="-0.2918">
        <ele>236.8</ele>
        <time>2019-04-18T12:20:33.000Z</time>
      </trkpt>
      <trkpt lat="43.62525" lon="-0.29165">
        <ele>236.49</ele>
        <time>2019-04-18T12:20:43.000Z</time>
      </trkpt>
      <trkpt lat="43.62523" lon="-0.29147">
        <ele>236.23</ele>
        <time>2019-04-18T12:20:53.000Z</time>
      </trkpt>
      <trkpt lat="43.6252" lon="-0.29132">
        <ele>236.38</ele>
        <time>2019-04-18T12:21:03.000Z</time>
      </trkpt>
      <trkpt lat="43.62517" lon="-0.29116">
        <ele>236.75</ele>
        <time>2019-04-18T12:21:13.000Z</time>
      </trkpt>
      <trkpt lat="43.62515" lon="-0.29098">
        <ele>236.87</ele>
        <time>2019-04-18T12:21:23.000Z</time>
      </trkpt>
      <trkpt lat="43.62512" lon="-0.29082">
        <ele>236.95</ele>
        <time>2019-04-18T12:21:33.000Z</time>
      </trkpt>
      <trkpt lat="43.62511" lon="-0.29065">
        <ele>236.35</ele>
        <time>2019-04-18T12:21:43.000Z</time>
      </trkpt>
      <trkpt lat="43.62508" lon="-0.29049">
        <ele>236.61</ele>
        <time>2019-04-18T12:21:53.000Z</time>
      </trkpt>
      <trkpt lat="43.62506" lon="-0.29032">
        <ele>236.7</ele>
        <time>2019-04-18T12:22:03.000Z</time>
      </trkpt>
      <trkpt lat="43.62504" lon="-0.29016">
        <ele>236.42</ele>
        <time>2019-04-18T12:22:13.000Z</time>
      </trkpt>
      <trkpt lat="43.62501" lon="-0.29001">
        <ele>236.46</ele>
        <time>2019-04-18T12:22:23.000Z</time>
      </trkpt>
      <trkpt lat="43.62498" lon="-0.28984">
        <ele>236.92</ele>
        <time>2019-04-18T12:22:33.000Z</time>
      </trkpt>
      <trkpt lat="43.62496" lon="-0.28968">
        <ele>236.8</ele>
        <time>2019-04-18T12:22:43.000Z</time>
      </trkpt>
      <trkpt lat="43.62493" lon="-0.2895">
        <ele>236.64</ele>
        <time>2019-04-18T12:22:53.000Z</time>
      </trkpt>
      <trkpt lat="43.62489" lon="-0.28934">
        <ele>236.69</ele>
        <time>2019-04-18T12:23:03.000Z</time>
      </trkpt>
      <trkpt lat="43.62487" lon="-0.28919">
        <ele>237.03</ele>
        <time>2019-04-18T12:23:13.000Z</time>
      </trkpt>
      <trkpt lat="43.62484" lon="-0.28902">
        <ele>237.15</ele>
        <time>2019-04-18T12:23:23.000Z</time>
      </trkpt>
      <trkpt lat="43.62482" lon="-0.28899">
        <ele>236.83</ele>
        <time>2019-04-18T12:23:33.000Z</time>
      </trkpt>
      <trkpt lat="43.62484" lon="-0.28897">
        <ele>236.82</ele>
        <time>2019-04-18T12:23:43.000Z</time>
      </trkpt>
      <trkpt lat="43.62476" lon="-0.28895">
        <ele>236.94</ele>
        <time>2019-04-18T12:23:53.000Z</time>
      </trkpt>
      <trkpt lat="43.62466" lon="-0.28895">
        <ele>236.57</ele>
        <time>2019-04-18T12:24:03.000Z</time>
      </trkpt>
      <trkpt lat="43.62455" lon="-0.28892">
        <ele>236.78</ele>
        <time>2019-04-18T12:24:13.000Z</time>
      </trkpt>
      <trkpt lat="43.62443" lon="-0.28891">
        <ele>236.56</ele>
        <time>2019-04-18T12:24:23.000Z</time>
      </trkpt>
      <trkpt lat="43.6243" lon="-0.28887">
        <ele>237.09</ele>
        <time>2019-04-18T12:24:33.000Z</time>
      </trkpt>
      <trkpt lat="43.62418" lon="-0.28885">
        <ele>237.08</ele>
        <time>2019-04-18T12:24:43.000Z</time>
      </trkpt>
      <trkpt lat="43.62407" lon="-0.28882">
        <ele>236.92</ele>
        <time>2019-04-18T12:24:53.000Z</time>
      </trkpt>
      <trkpt lat="43.62396" lon="-0.28874">
        <ele>236.76</ele>
        <time>2019-04-18T12:25:03.000Z</time>
      </trkpt>
      <trkpt lat="43.62385" lon="-0.28872">
        <ele>236.88</ele>
        <time>2019-04-18T12:25:13.000Z</time>
      </trkpt>
      <trkpt lat="43.62373" lon="-0.28869">
        <ele>236.47</ele>
        <time>2019-04-18T12:25:23.000Z</time>
      </trkpt>
      <trkpt lat="43.62362" lon="-0.28867">
        <ele>236.14</ele>
        <time>2019-04-18T12:25:33.000Z</time>
      </trkpt>
      <trkpt lat="43.62351" lon="-0.28863">
        <ele>236.48</ele>
        <time>2019-04-18T12:25:43.000Z</time>
      </trkpt>
      <trkpt lat="43.62339" lon="-0.2886">
        <ele>235.99</ele>
        <time>2019-04-18T12:25:53.000Z</time>
      </trkpt>
      <trkpt lat="43.62329" lon="-0.28856">
        <ele>235.88</ele>
        <time>2019-04-18T12:26:03.000Z</time>
      </trkpt>
      <trkpt lat="43.62324" lon="-0.28852">
        <ele>235.64</ele>
        <time>2019-04-18T12:26:13.000Z</time>
      </trkpt>
      <trkpt lat="43.62314" lon="-0.28851">
        <ele>235.67</ele>
        <time>2019-04-18T12:26:23.000Z</time>
      </trkpt>
      <trkpt lat="43.62308" lon="-0.28858">
        <ele>236.08</ele>
        <time>2019-04-18T12:26:33.000Z</time>
      </trkpt>
      <trkpt lat="43.62306" lon="-0.2887">
        <ele>235.79</ele>
        <time>2019-04-18T12:26:43.000Z</time>
      </trkpt>
      <trkpt lat="43.62306" lon="-0.28885">
        <ele>236.14</ele>
        <time>2019-04-18T12:26:53.000Z</time>
      </trkpt>
      <trkpt lat="43.62306" lon="-0.28901">
        <ele>236.26</ele>
        <time>2019-04-18T12:27:03.000Z</time>
      </trkpt>
      <trkpt lat="43.62308" lon="-0.28917">
        <ele>236.83</ele>
        <time>2019-04-18T12:27:13.000Z</time>
      </trkpt>
      <trkpt lat="43.62309" lon="-0.28934">
        <ele>236.76</ele>
        <time>2019-04-18T12:27:23.000Z</time>
      </trkpt>
      <trkpt lat="43.6231" lon="-0.28949">
        <ele>237.13</ele>
        <time>2019-04-18T12:27:33.000Z</time>
      </trkpt>
      <trkpt lat="43.62309" lon="-0.28965">
        <ele>237.55</ele>
        <time>2019-04-18T12:27:43.000Z</time>
      </trkpt>
      <trkpt lat="43.62309" lon="-0.2898">
        <ele>238.22</ele>
        <time>2019-04-18T12:27:53.000Z</time>
      </trkpt>
      <trkpt lat="43.62311" lon="-0.28996">
        <ele>238.11</ele>
        <time>2019-04-18T12:28:03.000Z</time>
      </trkpt>
      <trkpt lat="43.62312" lon="-0.29012">
        <ele>238.07</ele>
        <time>2019-04-18T12:28:13.000Z</time>
      </trkpt>
      <trkpt lat="43.62312" lon="-0.29027">
        <ele>238.16</ele>
        <time>2019-04-18T12:28:23.000Z</time>
      </trkpt>
      <trkpt lat="43.62313" lon="-0.29044">
        <ele>238.73</ele>
        <time>2019-04-18T12:28:33.000Z</time>
      </trkpt>
      <trkpt lat="43.62313" lon="-0.2906">
        <ele>238.32</ele>
        <time>2019-04-18T12:28:43.000Z</time>
      </trkpt>
      <trkpt lat="43.62311" lon="-0.29077">
        <ele>238.28</ele>
        <time>2019-04-18T12:28:53.000Z</time>
      </trkpt>
      <trkpt lat="43.62301" lon="-0.29087">
        <ele>238.28</ele>
        <time>2019-04-18T12:29:03.000Z</time>
      </trkpt>
      <trkpt lat="43.62294" lon="-0.29093">
        <ele>238.26</ele>
        <time>2019-04-18T12:29:13.000Z</time>
      </trkpt>
      <trkpt lat="43.62285" lon="-0.29096">
        <ele>238.52</ele>
        <time>2019-04-18T12:29:23.000Z</time>
      </trkpt>
      <trkpt lat="43.62274" lon="-0.291">
        <ele>238.67</ele>
        <time>2019-04-18T12:29:33.000Z</time>
      </trkpt>
      <trkpt lat="43.62263" lon="-0.29101">
        <ele>238.61</ele>
        <time>2019-04-18T12:29:43.000Z</time>
      </trkpt>
      <trkpt lat="43.62251" lon="-0.29105">
        <ele>238.28</ele>
        <time>2019-04-18T12:29:53.000Z</time>
      </trkpt>
      <trkpt lat="43.6224" lon="-0.29109">
        <ele>238.53</ele>
        <time>2019-04-18T12:30:03.000Z</time>
      </trkpt>
      <trkpt lat="43.6223" lon="-0.29112">
        <ele>238.29</ele>
        <time>2019-04-18T12:30:13.000Z</time>
      </trkpt>
      <trkpt lat="43.62217" lon="-0.29115">
        <ele>238.75</ele>
        <time>2019-04-18T12:30:23.000Z</time>
      </trkpt>
      <trkpt lat="43.62205" lon="-0.29118">
        <ele>238.83</ele>
        <time>2019-04-18T12:30:33.000Z</time>
      </trkpt>
      <trkpt lat="43.62193" lon="-0.29122">
        <ele>239.05</ele>
        <time>2019-04-18T12:30:43.000Z</time>
      </trkpt>
      <trkpt lat="43.62181" lon="-0.29121">
        <ele>239.42</ele>
        <time>2019-04-18T12:30:53.000Z</time>
      </trkpt>
      <trkpt lat="43.62173" lon="-0.2912">
        <ele>239.58</ele>
        <time>2019-04-18T12:31:03.000Z</time>
      </trkpt>
      <trkpt lat="43.62163" lon="-0.29114">
        <ele>239.56</ele>
        <time>2019-04-18T12:31:13.000Z</time>
      </trkpt>
      <trkpt lat="43.62152" lon="-0.29109">
        <ele>239.25</ele>
        <time>2019-04-18T12:31:23.000Z</time>
      </trkpt>
      <trkpt lat="43.6214" lon="-0.29104">
        <ele>238.99</ele>
        <time>2019-04-18T12:31:33.000Z</time>
      </trkpt>
      <trkpt lat="43.62129" lon="-0.29098">
        <ele>239.63</ele>
        <time>2019-04-18T12:31:43.000Z</time>
      </trkpt>
      <trkpt lat="43.62118" lon="-0.29093">
        <ele>239.54</ele>
        <time>2019-04-18T12:31:53.000Z</time>
      </trkpt>
      <trkpt lat="43.62107" lon="-0.29088">
        <ele>239.51</ele>
        <time>2019-04-18T12:32:03.000Z</time>
      </trkpt>
      <trkpt lat="43.62096" lon="-0.29083">
        <ele>239.35</ele>
        <time>2019-04-18T12:32:13.000Z</time>
      </trkpt>
      <trkpt lat="43.62084" lon="-0.29077">
        <ele>239.28</ele>
        <time>2019-04-18T12:32:23.000Z</time>
      </trkpt>
      <trkpt lat="43.62073" lon="-0.29074">
        <ele>238.99</ele>
        <time>2019-04-18T12:32:33.000Z</time>
      </trkpt>
      <trkpt lat="43.62061" lon="-0.29068">
        <ele>239.27</ele>
        <time>2019-04-18T12:32:43.000Z</time>
      </trkpt>
      <trkpt lat="43.6205" lon="-0.29062">
        <ele>239.14</ele>
        <time>2019-04-18T12:32:53.000Z</time>
      </trkpt>
      <trkpt lat="43.62038" lon="-0.29057">
        <ele>238.97</ele>
        <time>2019-04-18T12:33:03.000Z</time>
      </trkpt>
      <trkpt lat="43.62028" lon="-0.29052">
        <ele>239.12</ele>
        <time>2019-04-18T12:33:13.000Z</time>
      </trkpt>
      <trkpt lat="43.62016" lon="-0.29047">
        <ele>239.1</ele>
        <time>2019-04-18T12:33:23.000Z</time>
      </trkpt>
      <trkpt lat="43.62005" lon="-0.29043">
        <ele>239.33</ele>
        <time>2019-04-18T12:33:33.000Z</time>
      </trkpt>
      <trkpt lat="43.61994" lon="-0.29037">
        <ele>238.67</ele>
        <time>2019-04-18T12:33:43.000Z</time>
      </trkpt>
      <trkpt lat="43.61986" lon="-0.29026">
        <ele>238.63</ele>
        <time>2019-04-18T12:33:53.000Z</time>
      </trkpt>
      <trkpt lat="43.61981" lon="-0.2901">
        <ele>238.65</ele>
        <time>2019-04-18T12:34:03.000Z</time>
      </trkpt>
      <trkpt lat="43.61981" lon="-0.28999">
        <ele>238.61</ele>
        <time>2019-04-18T12:34:13.000Z</time>
      </trkpt>
      <trkpt lat="43.61982" lon="-0.28998">
        <ele>238.33</ele>
        <time>2019-04-18T12:34:23.000Z</time>
      </trkpt>
      <trkpt lat="43.61982" lon="-0.28998">
        <ele>238.82</ele>
        <time>2019-04-18T12:34:29.000Z</time>
      </trkpt>
    </trkseg>
  </trk>
</gpx>